GFSSW_925_temp_000.txt.gz
Temp
9 9 9 9 9 10 16 17 17 17 18 19 20 21 22 23 24 24 23 24 25 25 25 25 26 26 25 23 24 20 18 19 22 23 24 22 25 26 26 26 24 23 21 22 24
12 11 12 12 11 15 16 17 17 18 18 19 20 21 22 23 24 24 25 26 26 25 25 24 22 24 21 26 23 20 17 23 23 23 24 23 24 25 26 23 23 22 21 23 23
13 14 14 15 16 16 17 18 18 18 18 20 22 22 22 23 23 24 25 26 26 26 25 24 23 24 26 25 25 23 22 24 24 24 24 24 24 24 24 24 23 21 21 20 22
15 15 15 16 16 17 17 19 19 19 20 21 22 23 23 22 21 26 26 26 27 27 26 25 23 24 24 25 24 24 24 25 25 25 25 24 24 24 24 24 24 20 20 20 20
14 15 16 16 17 18 19 19 19 20 21 22 23 23 23 21 24 26 27 27 27 27 26 24 23 24 23 25 25 25 25 25 25 25 25 25 25 24 24 24 22 21 21 20 20
16 16 17 18 18 19 19 19 20 21 22 22 23 23 22 22 26 26 26 27 27 27 27 26 24 24 25 25 24 25 25 25 24 24 24 24 23 24 23 22 22 21 20 20 21
17 17 18 18 19 19 19 20 21 21 22 23 23 22 20 23 26 26 27 27 27 27 25 27 26 24 24 25 26 26 25 23 23 24 24 24 24 23 22 21 21 21 20 20 21
18 18 19 19 20 20 20 21 21 22 23 23 23 22 21 26 26 27 26 27 27 27 27 27 27 25 25 25 23 24 22 22 23 23 25 24 22 23 22 21 20 20 19 20 20
19 19 20 20 20 21 21 22 23 23 23 22 21 21 23 26 26 27 26 26 27 27 27 27 27 24 23 20 19 19 21 22 23 24 24 24 22 22 22 21 21 19 19 19 19
19 20 21 21 21 22 23 23 23 23 22 21 20 21 24 25 26 26 26 26 25 24 24 25 20 20 18 18 19 21 21 20 23 22 21 22 21 20 21 20 21 18 19 20 20
20 21 21 22 22 23 23 23 19 19 21 23 23 23 24 26 26 26 26 26 24 24 23 23 20 20 22 23 23 23 21 21 22 22 21 21 19 20 22 19 18 17 17 18 18
20 21 22 22 22 23 23 19 20 20 20 24 24 24 25 25 24 23 25 23 23 22 22 20 21 23 23 22 22 21 21 20 20 21 21 20 20 19 20 20 18 18 17 18 18
21 21 22 22 23 22 21 20 21 21 19 23 24 24 24 25 24 23 24 23 23 22 21 21 23 24 22 21 21 21 21 20 20 19 20 21 20 21 22 21 20 20 18 19 18
20 21 22 23 23 21 20 21 21 20 16 22 23 24 25 25 24 25 25 24 22 23 23 23 23 23 21 22 21 20 21 21 19 19 19 20 18 21 21 21 21 19 18 19 19
20 21 22 22 21 21 20 21 21 20 15 23 24 25 25 24 24 25 25 24 23 22 21 22 23 21 21 21 21 20 20 19 20 18 19 19 18 20 21 22 21 19 17 18 18
19 20 21 21 21 20 20 21 21 15 18 23 24 24 24 23 24 23 21 21 22 21 21 22 23 21 22 21 22 20 20 18 18 17 16 19 19 19 20 21 19 18 19 18 18
19 20 21 20 20 20 21 19 16 15 23 22 23 24 22 22 23 21 19 18 18 18 17 19 21 21 22 20 19 18 16 13 14 13 15 18 18 19 20 20 19 19 18 18 18
20 20 20 20 20 21 20 15 18 20 22 24 23 23 22 22 23 20 20 18 18 18 16 17 17 19 21 21 20 19 17 12 15 13 14 17 19 19 20 21 19 18 17 18 18
20 20 20 19 20 20 15 13 14 19 21 21 22 21 21 22 22 20 18 18 18 17 17 15 17 19 20 20 20 19 16 18 15 8 11 14 18 20 19 19 19 19 19 17 14
20 19 20 20 20 20 12 16 20 21 21 21 21 20 20 19 20 20 19 18 19 18 17 18 16 18 18 19 20 20 19 15 12 12 14 15 16 17 19 19 18 17 17 14 14
20 16 20 20 20 14 12 15 20 22 21 20 19 19 19 19 19 19 18 18 19 18 17 17 17 16 17 18 18 16 15 16 17 13 13 13 14 17 18 18 18 17 15 15 14
17 15 21 20 16 12 16 20 19 21 20 20 19 19 19 19 18 18 18 18 19 19 17 17 13 12 16 17 18 18 17 15 11 14 11 11 16 19 17 19 15 15 16 15 15
14 15 20 20 11 9 19 19 18 20 19 19 19 19 19 18 17 18 19 19 19 18 18 17 12 11 15 16 15 16 17 16 14 10 12 9 12 18 18 16 16 14 14 13 13
13 12 12 12 13 17 18 19 19 19 19 20 20 19 18 17 17 18 17 18 18 18 16 15 14 13 12 14 14 14 16 16 14 8 13 14 15 16 17 15 14 13 12 12 12
12 13 14 11 13 16 17 19 18 18 20 19 18 17 18 15 15 16 16 15 16 15 17 14 13 14 13 14 15 15 15 15 14 13 11 13 14 15 13 13 13 13 13 12 12
13 13 12 13 16 17 13 18 19 19 19 18 17 16 16 16 16 16 16 15 15 16 15 13 11 12 13 14 13 13 14 13 13 13 13 13 14 13 12 12 12 12 12 11 10
16 16 12 10 12 11 12 18 18 18 18 18 18 16 13 16 16 16 15 15 14 14 12 13 8 8 13 10 10 12 12 13 14 14 13 11 12 12 11 11 11 11 11 11 9

GFSSW_925_temp_003.txt.gz
Temp
9 9 9 9 9 11 15 16 16 16 19 19 20 21 22 23 24 23 23 24 24 25 25 25 25 24 23 22 22 18 17 18 22 22 23 21 24 23 23 22 23 21 19 22 23
9 9 9 9 12 15 16 15 16 17 19 20 21 21 22 23 23 24 25 25 25 25 25 23 22 22 22 24 21 18 17 21 22 22 23 23 23 23 24 22 22 22 20 21 21
10 10 10 13 15 16 16 17 18 19 20 21 21 22 23 22 23 24 26 26 26 26 25 24 22 22 24 23 22 21 20 23 23 22 22 23 24 23 21 23 21 21 20 19 20
13 14 15 16 16 16 17 17 18 20 20 21 22 22 23 22 22 26 26 26 26 27 26 25 22 23 22 23 22 23 23 22 24 23 23 23 23 24 23 23 22 20 19 19 19
15 15 16 16 17 17 18 19 19 20 20 22 22 23 23 22 23 26 26 26 27 27 25 23 22 23 23 24 24 24 24 24 25 25 24 24 24 24 23 23 22 19 19 18 18
15 16 17 17 18 18 19 19 20 20 21 22 23 23 23 22 26 26 26 27 27 26 26 25 24 24 24 24 24 24 24 23 24 24 23 24 23 23 23 21 20 18 18 17 18
16 17 18 18 18 19 19 20 20 21 22 22 23 23 21 23 26 26 26 26 26 26 24 26 25 24 24 25 24 24 23 22 23 23 23 22 22 22 22 21 20 18 18 18 18
18 18 19 19 19 19 20 20 21 22 23 23 23 23 21 26 26 26 26 26 27 27 26 26 26 24 24 24 21 21 20 20 22 22 23 23 20 22 22 20 19 18 18 18 18
19 19 19 19 20 20 21 21 22 22 23 23 23 21 23 26 26 26 26 25 26 26 27 26 25 21 20 19 19 17 20 21 22 22 23 23 20 21 21 19 19 18 17 18 18
19 19 20 20 21 21 22 23 23 23 23 23 21 21 23 23 25 26 26 25 25 23 23 22 18 19 17 17 18 20 20 20 21 21 19 20 19 19 19 18 18 18 18 20 19
19 20 21 21 22 22 23 21 18 19 21 21 22 22 23 25 25 26 25 24 23 21 21 20 19 20 21 21 22 22 21 20 21 21 20 20 17 18 17 18 17 15 16 16 17
20 21 21 22 22 23 23 18 19 19 20 21 23 23 24 24 23 23 25 23 22 21 21 19 21 22 22 21 22 21 21 19 19 20 19 19 19 18 18 19 17 16 16 16 16
21 21 22 22 22 23 21 19 20 20 18 21 23 24 24 24 23 23 23 22 22 22 21 20 23 22 22 19 20 20 21 20 19 18 19 18 20 20 20 19 19 18 17 17 16
21 22 22 23 22 21 20 20 20 19 15 20 22 24 24 24 23 24 24 23 21 22 22 22 22 21 20 21 20 19 21 20 18 18 18 18 19 19 20 20 20 17 16 17 17
20 21 22 22 21 20 20 20 20 19 14 21 23 25 24 23 24 22 22 23 22 21 20 22 22 20 20 21 20 19 18 18 19 18 18 18 17 19 18 21 19 18 18 18 18
20 21 21 21 21 20 20 21 20 14 17 22 23 23 23 22 21 22 19 19 20 19 19 19 21 21 21 20 20 19 18 17 16 16 15 18 18 17 17 18 18 18 18 17 17
20 20 21 20 19 20 21 19 15 14 22 22 22 22 22 21 20 20 18 17 16 18 16 18 19 19 20 19 18 17 15 13 14 13 14 17 17 17 19 19 19 18 17 17 17
20 20 20 20 20 20 20 15 18 19 20 22 21 22 21 20 19 18 18 16 17 16 14 16 16 18 19 20 19 18 16 12 15 12 13 16 18 18 20 19 18 19 16 17 15
20 20 20 19 20 20 14 12 14 16 20 20 21 20 19 20 20 19 17 17 17 16 17 14 17 18 19 18 19 18 15 17 12 6 10 13 17 18 18 17 19 17 16 13 12
20 19 19 19 20 19 11 15 19 20 20 20 20 19 19 18 19 18 17 18 18 16 17 17 15 17 17 19 18 18 18 15 11 11 13 14 15 16 18 16 17 15 13 13 13
20 15 19 19 20 12 12 13 20 20 20 19 19 19 18 19 18 17 17 18 18 18 16 16 16 15 16 17 17 15 14 15 15 12 12 11 13 15 16 15 15 13 14 14 14
16 15 19 20 15 10 15 19 18 18 18 18 18 18 18 18 17 18 18 18 18 18 17 16 12 12 16 15 16 17 15 14 12 13 10 8 14 16 17 16 13 13 13 12 12
13 14 19 20 12 8 17 18 18 19 18 19 19 18 17 17 17 18 18 17 17 18 17 16 12 11 14 15 15 16 15 14 11 9 11 9 12 15 16 14 14 13 12 11 11
12 11 12 11 11 16 17 18 18 19 18 18 18 17 17 16 15 17 16 16 15 17 14 15 13 13 12 14 14 13 14 14 13 7 11 12 14 15 14 13 12 11 11 11 11
11 12 13 11 12 15 16 18 18 18 19 16 16 16 17 14 15 15 15 15 16 14 15 13 13 13 13 13 13 14 13 14 13 12 12 13 12 13 12 11 11 11 11 11 11
13 12 11 12 15 16 12 18 17 18 18 17 15 16 16 15 15 16 15 15 15 15 14 12 10 12 12 12 12 12 13 12 12 12 11 11 12 13 12 11 11 10 10 10 10
14 14 12 8 11 11 11 17 18 17 16 17 15 14 14 16 15 15 14 14 14 14 12 12 8 8 10 9 9 10 11 12 13 13 13 11 12 12 11 11 10 10 10 9 9

GFSSW_925_temp_006.txt.gz
Temp
9 9 9 9 9 10 11 13 16 18 19 19 21 20 20 22 23 23 23 25 24 24 24 24 24 22 22 21 20 18 16 18 21 22 23 21 23 22 21 21 21 20 18 20 22
9 9 9 9 10 11 10 14 17 18 19 20 21 21 20 22 23 23 24 24 25 25 24 23 22 22 21 21 19 18 17 22 21 21 23 22 23 23 23 22 22 21 20 19 20
11 11 10 11 11 11 14 16 18 19 20 21 21 21 21 23 22 24 25 25 26 26 24 23 22 23 22 21 20 21 20 21 23 22 22 22 23 22 20 22 20 21 20 17 18
14 13 13 13 13 15 16 18 18 20 20 21 21 21 23 22 21 25 26 26 26 26 26 24 22 22 21 23 21 22 21 21 23 22 22 22 22 23 20 22 21 19 18 17 17
14 14 14 14 15 16 18 19 19 20 21 21 22 22 22 21 23 25 26 26 26 26 25 23 22 22 22 23 23 23 23 22 23 21 22 23 23 23 21 21 21 18 18 17 17
14 15 16 16 17 18 18 19 20 21 21 22 22 22 22 21 25 25 26 26 26 26 24 24 23 23 22 23 23 23 23 23 23 23 23 23 23 23 23 21 21 18 17 16 17
16 17 17 17 18 18 19 20 20 21 21 22 22 23 22 23 25 26 26 26 26 26 24 24 24 23 22 24 21 22 23 20 21 21 23 22 22 22 21 21 20 18 17 16 16
17 17 18 18 19 19 20 20 21 21 22 23 23 22 22 25 25 26 26 26 27 26 26 25 25 22 21 22 19 20 19 19 22 21 22 22 20 21 22 21 20 17 16 16 17
18 18 19 19 20 20 20 21 21 22 23 23 23 23 23 26 25 26 25 25 26 26 25 25 23 19 18 19 18 16 19 20 20 19 19 22 20 20 20 18 18 17 16 17 18
19 19 20 20 20 20 21 21 22 23 22 22 22 21 23 23 24 25 25 25 24 23 22 20 17 18 16 17 18 20 20 19 19 20 18 19 18 17 17 17 17 16 15 16 18
19 19 20 21 21 21 22 21 18 19 21 21 21 21 22 24 24 24 24 24 22 19 20 18 18 19 20 20 21 21 20 19 19 20 19 18 16 16 15 15 15 15 15 15 16
20 20 21 21 22 21 21 17 18 19 21 21 21 22 23 23 22 21 24 22 21 20 21 19 20 21 19 19 20 21 20 19 18 18 19 18 18 18 17 16 15 14 14 16 16
20 21 21 21 21 20 20 18 19 19 18 21 22 23 23 24 22 21 22 21 21 20 19 19 21 20 20 18 18 19 20 20 19 17 18 17 19 17 19 18 16 15 16 17 16
20 21 21 22 22 20 19 19 19 20 15 19 22 24 23 23 22 22 21 22 20 21 21 20 20 20 19 20 19 19 20 19 17 17 18 17 18 18 16 19 16 17 16 18 17
20 21 22 22 21 19 19 20 20 20 14 21 22 24 22 21 22 20 20 21 19 19 19 20 20 19 19 20 19 18 17 17 18 17 17 16 16 18 17 19 18 18 17 16 15
20 21 21 21 21 19 20 20 20 13 17 21 22 22 22 19 20 19 18 18 19 18 17 18 19 19 20 20 19 18 17 16 15 15 15 17 16 16 17 18 18 18 18 16 17
20 20 21 21 18 20 20 18 15 14 20 21 21 21 20 19 19 18 17 15 16 19 15 17 18 18 19 18 18 16 14 13 14 12 14 16 16 16 18 18 18 18 17 16 13
19 20 19 19 19 20 20 14 17 18 19 20 20 19 19 19 18 17 17 15 16 16 13 15 16 18 18 19 18 17 15 11 15 11 12 14 17 17 19 16 16 16 14 12 11
20 20 19 18 19 20 14 12 14 16 19 20 20 19 19 19 18 17 16 16 16 16 16 13 16 17 18 17 18 18 14 15 11 6 9 13 15 17 16 15 16 13 12 12 11
20 19 18 18 19 19 11 14 18 17 19 19 19 19 19 17 18 17 17 17 17 16 16 16 16 17 17 18 17 16 16 14 11 11 12 14 14 15 15 14 13 12 13 12 11
20 14 18 18 19 12 11 13 19 18 19 19 18 18 18 18 17 17 17 18 18 17 15 16 15 15 16 16 16 15 13 14 13 11 10 10 13 14 14 14 13 13 12 11 11
16 15 18 18 14 9 14 18 17 17 17 18 17 18 18 17 17 17 17 17 16 17 16 15 11 12 16 16 15 15 15 13 10 12 9 8 11 15 15 13 13 13 11 11 11
13 14 18 18 12 8 16 17 17 18 17 18 18 17 16 16 16 17 17 16 15 16 16 15 11 11 14 14 14 15 15 13 10 9 11 9 12 13 13 13 13 12 11 10 10
12 12 11 10 10 15 16 17 17 17 16 15 16 16 16 15 14 16 16 16 14 15 12 13 12 13 11 14 13 13 14 13 12 11 11 11 14 15 14 12 11 10 10 10 9
10 12 12 11 11 14 15 17 17 18 17 15 16 16 16 14 14 14 15 14 15 13 13 13 13 12 12 12 12 13 12 12 11 11 12 13 12 13 12 11 11 10 10 10 10
12 12 10 10 13 15 11 17 17 17 17 17 15 16 16 15 16 16 15 14 14 15 14 10 10 11 10 11 10 10 11 11 11 11 11 11 11 12 12 11 10 10 10 9 8
12 13 11 7 10 11 11 16 17 16 15 16 14 14 14 15 14 15 13 14 14 14 12 11 7 8 9 9 8 10 12 11 12 12 12 12 13 12 11 10 10 10 8 8 7

GFSSW_925_temp_009.txt.gz
Temp
9 9 9 9 9 9 10 14 18 18 19 19 19 20 21 21 22 22 22 24 23 23 23 23 23 22 22 21 20 19 23 23 22 23 24 22 24 22 22 23 22 22 22 21 21
9 9 9 9 9 10 13 16 18 18 19 19 20 21 21 22 21 22 24 24 25 25 24 23 22 21 23 22 21 22 23 22 22 22 23 23 23 23 24 23 22 22 20 18 19
11 10 10 10 9 12 15 17 18 19 19 19 20 20 22 22 21 24 25 25 25 25 24 23 23 23 23 22 22 21 23 22 22 22 23 23 23 22 23 23 24 25 22 20 19
13 13 11 10 13 15 17 18 18 19 20 20 21 21 22 21 22 25 25 26 26 25 24 23 23 23 22 24 22 24 21 23 23 21 22 23 23 23 22 25 23 23 22 20 20
14 14 14 15 15 16 17 18 19 20 21 21 21 22 22 21 23 25 25 26 26 26 25 23 23 22 23 23 23 24 23 22 23 21 22 22 23 23 23 23 22 21 20 21 21
14 15 15 16 16 17 18 19 20 21 21 21 22 22 22 22 25 25 26 26 26 26 24 24 23 22 23 23 23 23 23 22 22 22 22 23 23 23 24 22 21 20 22 22 21
15 16 16 17 17 18 19 19 20 21 21 21 21 22 21 23 25 25 26 26 26 26 24 24 23 24 22 23 21 21 23 22 21 21 23 21 24 24 23 22 22 21 21 21 20
17 17 17 17 18 18 19 20 21 21 21 22 22 22 23 25 25 26 25 25 25 25 24 24 24 21 22 21 21 22 21 23 22 22 22 23 24 25 21 22 23 21 20 20 20
17 18 18 18 19 19 20 21 21 21 22 22 22 22 23 25 25 24 24 24 25 24 24 24 22 20 21 22 22 20 23 21 22 20 21 23 23 24 21 20 21 20 20 20 20
18 18 19 19 20 20 21 21 21 21 22 22 21 22 23 23 24 24 24 24 22 23 23 22 20 21 20 23 22 21 21 21 21 22 21 21 21 21 19 17 19 19 19 19 20
19 19 19 19 20 20 20 20 19 20 21 21 21 21 22 23 24 23 23 23 22 21 22 19 22 21 20 20 20 21 20 20 20 19 20 19 20 21 19 19 18 18 19 19 20
19 20 20 20 20 20 20 17 18 20 20 20 21 21 23 22 21 22 23 22 21 21 20 21 20 20 19 19 20 20 20 20 20 19 20 20 21 20 19 17 17 18 19 19 19
20 20 20 20 21 20 20 18 19 19 19 21 21 22 22 23 20 20 21 20 20 20 19 20 21 19 20 19 20 19 20 19 20 19 19 19 22 20 20 19 18 18 18 18 20
20 20 21 21 21 19 19 19 19 19 17 19 21 23 22 22 21 20 20 21 20 20 20 20 19 19 19 19 19 19 19 18 18 19 21 18 22 21 19 20 19 19 19 19 19
20 21 21 21 21 18 19 19 19 19 17 21 21 23 20 21 20 21 19 20 19 18 20 20 19 19 20 19 19 20 17 17 18 19 19 20 21 21 19 20 20 19 18 18 17
20 20 21 21 21 19 20 19 19 15 17 20 21 21 21 19 19 19 18 18 18 18 18 18 18 19 19 19 18 18 18 17 16 18 19 18 19 20 20 19 19 19 19 17 16
20 20 21 21 18 19 19 18 17 16 19 20 20 20 18 18 18 18 17 16 17 19 16 18 19 18 18 19 19 18 18 19 19 18 19 17 18 19 18 17 18 18 17 15 14
19 20 19 19 19 19 19 16 17 17 19 19 20 18 19 18 18 17 17 17 16 16 16 17 19 18 18 18 18 17 17 17 18 17 17 16 18 18 17 17 17 15 15 15 14
19 19 19 18 19 19 15 14 15 16 19 19 19 19 18 18 18 17 16 16 16 16 17 16 18 17 17 17 18 18 17 16 14 8 14 17 18 17 17 17 16 15 15 15 15
20 18 17 18 18 19 12 15 18 17 19 19 19 18 18 17 18 17 17 17 17 15 16 16 17 17 17 17 17 18 17 17 15 16 16 18 16 19 17 17 15 15 14 14 15
19 15 17 18 19 13 13 14 17 17 18 19 18 17 17 17 17 16 17 17 17 17 16 15 16 17 16 17 17 17 17 15 15 14 15 14 17 16 16 16 16 15 14 14 14
15 16 17 17 15 10 14 17 17 17 17 17 17 17 17 16 16 17 16 16 15 16 16 15 13 15 17 15 15 16 16 15 15 15 13 12 15 16 16 16 15 15 14 14 14
14 14 17 17 13 10 15 16 16 18 16 17 17 16 15 15 16 16 16 15 14 16 16 15 14 15 16 16 16 16 15 13 12 12 14 13 16 15 14 14 15 14 14 14 13
12 13 12 10 11 14 15 16 17 16 15 15 16 16 15 15 14 15 15 15 14 14 12 14 13 14 16 16 15 14 14 13 14 13 14 14 16 17 17 16 15 13 13 14 13
10 12 12 12 13 14 15 16 16 17 16 15 16 16 16 14 14 14 15 15 14 13 13 14 14 13 13 14 13 14 14 14 13 14 13 15 15 16 16 15 14 14 13 13 13
13 12 10 10 13 15 12 16 16 16 17 16 15 15 15 15 15 15 15 14 15 14 13 11 13 11 11 11 11 11 13 12 13 13 13 14 13 15 14 13 13 13 12 12 10
11 12 12 7 10 12 12 15 16 15 15 15 14 14 14 15 15 15 13 12 14 14 13 12 11 10 12 10 10 12 13 12 13 13 14 14 16 13 13 12 13 13 11 8 7

GFSSW_925_temp_012.txt.gz
Temp
9 9 9 9 9 9 10 13 16 17 17 18 19 20 21 22 22 22 26 24 23 24 23 23 24 24 26 27 27 27 29 28 27 28 27 28 28 28 27 28 26 27 28 27 24
10 9 10 10 9 9 12 15 17 17 18 19 20 20 21 22 21 26 24 24 24 25 23 26 27 27 29 28 28 30 30 28 28 28 28 28 28 28 27 27 27 27 25 25 23
12 10 10 9 9 12 14 16 17 18 19 20 20 21 22 22 26 27 25 25 25 24 24 25 27 29 29 29 28 29 29 28 27 28 29 28 28 28 28 27 28 28 27 25 24
13 13 12 11 12 13 16 16 18 18 19 20 20 21 22 22 25 26 25 25 25 25 25 27 29 29 29 29 29 27 27 28 27 27 28 28 28 28 28 29 28 28 28 26 26
13 13 14 13 15 16 17 18 18 19 19 20 21 21 21 26 26 25 26 26 26 25 28 29 29 29 29 28 29 28 28 27 27 27 27 27 27 27 28 29 28 27 27 27 27
14 14 15 16 16 17 18 19 19 19 20 21 21 21 23 25 25 25 26 26 27 28 28 29 29 29 28 27 28 27 28 27 27 27 26 26 27 27 28 28 28 27 28 28 27
15 15 16 16 17 18 18 19 19 20 20 21 21 21 26 26 25 25 26 26 26 26 28 26 27 29 29 27 26 27 27 27 26 26 26 26 27 28 28 27 27 27 28 28 27
16 16 17 17 18 18 19 20 20 21 21 21 21 22 26 24 25 25 25 26 25 25 26 25 26 27 27 26 27 28 28 28 26 27 26 28 28 28 27 27 28 27 27 27 27
17 17 17 18 18 19 19 20 21 21 21 22 22 24 26 25 26 24 24 27 26 25 24 24 26 27 27 28 28 28 27 27 26 26 26 27 28 28 26 25 27 28 27 27 27
18 18 18 18 19 19 20 20 21 21 21 22 22 26 26 26 25 24 24 24 27 27 28 28 28 28 29 29 27 26 26 27 26 26 26 27 27 27 25 24 26 27 27 26 26
18 18 19 19 19 20 20 20 23 24 25 24 24 25 25 25 24 25 23 26 27 28 28 26 28 26 25 25 25 25 25 26 26 24 24 25 26 25 25 26 25 26 25 25 25
19 19 19 19 20 20 20 24 21 23 24 23 24 25 24 24 26 26 25 27 27 27 26 27 25 24 24 24 25 25 25 25 25 23 24 25 26 25 25 23 24 25 25 25 25
19 19 19 20 20 19 20 20 19 21 25 24 24 25 25 25 24 24 26 26 26 26 26 26 24 23 24 25 25 24 24 23 23 24 24 25 26 25 24 24 24 24 25 25 25
19 20 20 20 20 19 21 19 20 21 25 24 25 25 25 25 24 23 22 25 25 24 25 24 23 23 24 23 23 24 23 22 22 23 26 24 26 24 24 24 24 24 24 23 23
20 21 21 20 20 23 19 19 19 21 23 23 25 24 25 25 24 24 22 25 24 23 24 22 23 23 23 22 22 23 21 22 22 24 24 25 26 24 24 24 24 23 23 22 21
20 20 20 20 20 18 20 19 20 23 21 23 24 24 24 24 23 24 24 24 23 24 24 23 23 23 23 22 22 22 22 22 22 23 23 23 24 24 24 22 23 23 22 21 21
20 20 20 21 21 19 20 21 23 22 22 23 23 24 23 22 22 23 22 21 23 23 23 23 23 23 22 23 23 24 23 23 22 22 23 21 23 22 21 22 22 21 21 20 20
19 20 20 19 19 20 20 23 22 21 22 22 23 23 23 22 22 22 22 22 22 22 23 22 22 22 21 21 21 22 22 21 20 21 22 21 23 23 21 21 21 20 20 20 19
19 19 18 18 19 20 24 22 21 23 23 23 23 23 22 22 22 22 21 21 20 20 22 21 21 21 20 21 21 22 21 20 18 13 18 22 22 21 21 21 21 20 20 19 19
19 19 18 18 19 20 22 20 21 21 22 23 23 22 22 22 22 22 21 20 20 20 20 20 21 20 21 21 21 22 20 21 21 18 19 23 22 23 21 21 20 20 20 19 19
19 22 17 18 19 23 21 20 21 20 21 22 22 21 22 21 22 21 20 20 20 20 21 20 20 20 20 21 21 21 20 20 20 19 19 19 22 22 21 20 20 19 19 19 18
18 21 17 18 22 20 21 21 19 21 21 21 21 21 21 20 20 20 20 20 19 19 20 18 19 19 20 19 19 20 20 20 19 18 18 16 19 20 21 20 19 19 18 18 18
22 21 17 17 20 18 19 19 20 21 20 21 20 20 20 20 19 20 19 18 18 20 19 19 19 19 20 19 19 19 19 18 17 16 17 16 19 21 20 19 20 19 18 18 18
21 19 20 20 18 21 21 20 20 19 19 20 19 20 20 20 19 19 19 18 17 18 12 17 18 19 20 20 19 18 19 19 18 16 17 18 19 20 21 20 20 19 17 17 17
19 19 17 19 19 21 21 20 20 20 19 20 20 21 20 18 19 18 19 18 17 14 17 18 18 18 18 18 18 18 18 18 18 18 16 18 19 19 20 19 18 17 17 16 16
20 19 17 17 18 20 18 20 20 19 20 20 20 19 20 19 20 18 19 19 19 18 18 17 17 14 15 16 17 17 18 18 18 18 18 18 18 19 18 17 16 16 15 14 13
13 14 20 12 17 19 19 20 20 20 18 20 20 20 17 19 20 18 18 17 18 18 17 16 15 14 14 14 14 14 17 18 18 18 17 16 18 17 16 15 15 15 14 11 9

GFSSW_925_temp_015.txt.gz
Temp
11 10 9 9 9 9 9 11 15 16 17 18 19 20 20 21 22 22 27 25 25 24 23 26 26 28 29 31 31 32 31 30 30 30 29 30 30 30 31 29 30 30 30 29 26
11 11 9 10 9 9 11 13 16 16 18 19 20 20 20 21 21 28 25 25 25 25 25 28 29 30 31 31 32 31 31 30 31 31 30 30 31 30 30 29 29 29 29 27 26
11 11 12 10 11 11 12 14 16 17 18 19 20 20 21 22 24 29 25 25 25 25 26 29 30 31 31 32 31 32 31 30 30 31 31 31 30 30 30 29 30 29 29 28 26
13 13 13 12 11 11 12 16 16 18 19 20 20 20 21 19 27 28 26 26 25 25 28 30 31 31 31 31 32 30 30 31 30 30 30 30 31 30 31 31 31 31 30 29 28
14 14 14 14 13 14 15 16 17 18 19 20 20 21 21 26 28 27 26 27 26 28 30 32 31 31 30 31 31 30 30 30 30 29 30 30 30 30 30 30 30 30 30 29 29
14 14 14 15 15 16 16 17 18 19 20 20 20 21 21 27 27 27 27 28 29 30 31 31 32 32 31 31 31 30 30 30 30 29 29 29 29 29 30 31 30 30 30 30 29
14 14 15 15 16 17 17 18 19 20 20 20 20 19 26 28 27 28 28 28 28 29 31 30 31 31 31 29 30 30 29 29 29 29 29 29 29 29 30 30 30 30 30 30 30
15 15 15 16 17 17 18 19 20 20 20 20 21 20 27 27 27 28 28 29 28 29 29 29 30 31 31 30 30 29 30 29 29 29 29 29 30 30 30 30 30 30 30 30 30
16 16 17 17 18 18 19 19 20 20 21 21 21 23 27 26 28 27 27 29 29 28 28 28 30 30 29 29 29 30 30 29 28 29 29 30 30 31 30 29 30 31 30 30 30
17 17 18 18 18 19 19 20 20 21 21 19 24 27 27 28 27 27 27 27 29 29 29 30 30 30 31 30 29 30 29 29 29 29 29 29 30 30 29 29 29 30 31 30 30
18 18 18 19 19 19 20 19 24 24 26 27 28 27 28 27 27 28 27 28 29 30 29 30 30 29 28 28 28 29 29 29 29 28 27 28 29 29 29 29 29 29 29 29 29
18 18 19 19 19 20 20 26 25 26 25 27 27 27 27 27 28 28 28 29 29 29 29 29 28 27 27 27 28 28 28 28 28 27 27 29 29 28 28 27 28 28 28 28 27
18 18 19 19 20 20 23 23 22 23 27 26 27 27 27 28 27 27 29 29 29 29 29 28 27 26 27 27 27 28 27 26 26 27 28 28 28 27 27 27 27 28 28 27 26
19 19 19 20 20 23 24 21 21 21 26 25 27 27 27 28 26 27 26 28 28 28 28 27 26 26 27 26 26 26 26 25 25 26 27 28 28 27 27 26 26 26 26 26 25
20 20 20 20 23 25 22 21 21 23 24 25 26 26 28 27 27 27 26 28 27 27 27 26 26 26 26 25 25 26 24 25 25 26 27 28 28 26 27 26 25 25 25 24 24
20 20 20 20 22 21 20 20 22 24 23 25 27 26 26 27 26 27 27 28 27 27 28 26 26 26 25 25 25 25 25 25 26 27 25 27 27 27 27 26 25 25 24 24 23
20 19 19 21 24 19 20 23 25 23 25 25 25 26 26 25 25 26 26 25 26 25 25 26 25 25 25 26 26 26 26 25 24 24 25 26 26 25 25 25 25 24 24 23 23
19 19 19 19 19 19 21 25 23 25 26 26 26 26 25 26 25 25 26 25 25 26 26 26 24 25 24 24 24 25 25 23 22 23 25 25 25 25 25 24 24 23 23 23 22
19 19 20 18 18 19 25 23 24 25 26 25 26 25 24 25 25 25 24 24 23 24 25 25 24 24 23 24 24 24 23 23 22 18 20 26 26 25 24 23 23 23 23 22 22
21 22 22 19 20 21 24 22 24 25 26 26 25 25 25 25 25 25 24 23 23 23 24 23 23 23 24 24 24 24 24 23 23 19 21 25 25 25 23 23 23 23 22 22 22
22 24 19 19 19 25 23 24 24 24 25 25 25 24 25 24 25 24 23 22 23 23 24 23 23 23 23 23 24 24 23 22 23 22 20 21 23 24 24 23 22 22 22 22 21
22 23 18 18 24 24 24 24 20 24 24 24 25 25 25 24 24 23 23 23 22 22 22 21 22 21 23 22 22 23 23 23 20 20 20 19 20 23 23 23 22 22 22 21 20
24 23 19 19 21 21 23 22 24 23 24 24 23 24 24 23 22 23 22 20 21 22 21 22 21 21 23 22 22 22 22 22 20 18 18 18 20 23 23 23 23 22 22 20 19
24 21 23 23 24 24 23 23 22 23 22 23 23 24 23 23 23 22 21 20 20 21 14 18 22 21 21 22 22 21 22 22 21 18 19 20 21 23 23 22 22 21 21 19 18
24 23 22 21 22 24 24 24 23 22 23 24 23 24 23 21 22 22 22 20 20 14 19 21 19 20 21 22 22 21 21 21 21 21 19 20 21 21 21 20 20 20 19 18 17
23 22 22 22 23 23 20 23 23 22 23 23 23 23 23 21 22 21 22 22 21 20 20 20 18 17 17 20 21 20 21 21 21 21 20 21 20 21 21 20 19 18 17 16 15
19 19 23 16 22 22 22 23 23 22 21 24 23 23 21 22 22 21 21 21 21 20 19 18 17 17 16 17 16 15 19 21 21 21 20 18 19 20 19 17 15 15 15 14 11

GFSSW_925_temp_018.txt.gz
Temp
11 11 11 11 10 9 9 12 15 16 17 17 18 19 19 20 22 20 24 26 25 25 25 25 27 27 28 30 31 32 30 30 30 30 30 30 30 31 31 30 30 30 30 28 26
11 11 12 11 10 10 10 12 14 16 17 17 18 19 19 18 19 24 26 26 26 25 25 27 29 29 29 31 32 31 30 31 31 31 30 31 31 30 30 29 29 28 28 27 26
13 13 12 12 10 10 11 12 15 17 17 18 19 19 18 18 22 28 27 26 26 26 25 29 31 31 30 32 32 31 30 31 30 30 32 31 30 30 30 29 29 28 28 27 26
14 13 13 12 11 10 11 12 16 17 17 19 20 19 19 17 26 27 27 27 27 26 26 30 31 30 31 31 32 30 31 31 30 31 31 30 31 30 31 30 31 30 29 27 27
14 14 13 13 13 13 14 15 17 18 19 19 20 19 19 23 28 28 28 28 27 27 29 32 31 32 31 31 31 30 30 30 30 30 30 30 30 30 30 30 31 30 29 28 28
14 14 14 14 14 15 16 17 18 19 19 20 20 18 18 25 28 29 28 29 30 31 32 32 32 32 32 31 31 31 30 30 30 30 30 29 30 29 31 30 30 30 29 29 28
14 14 14 14 15 16 17 17 18 19 20 20 19 17 23 27 29 29 29 29 30 30 31 31 31 32 32 30 31 31 29 30 30 30 29 30 29 29 30 31 30 30 30 30 29
15 14 15 15 16 16 18 18 19 20 20 20 20 18 25 28 27 28 29 30 30 30 30 30 31 31 31 31 30 30 30 29 30 30 30 29 28 30 31 30 30 30 30 30 30
15 15 15 16 16 17 18 19 20 20 20 20 19 21 27 27 28 29 29 30 30 30 29 29 30 31 30 29 29 29 29 29 29 31 30 30 29 31 31 30 30 30 30 30 30
16 16 17 17 18 18 19 19 20 20 21 18 21 25 28 29 28 28 29 28 30 30 30 30 30 30 30 29 27 28 30 30 30 29 29 29 30 31 31 30 29 30 30 30 30
17 17 17 18 18 19 19 19 22 23 24 27 28 28 29 29 28 29 29 29 30 30 28 30 29 28 28 28 29 29 29 29 30 29 28 28 29 30 29 30 30 30 30 30 26
17 18 18 18 18 19 19 24 26 27 26 28 28 28 28 29 28 29 29 29 29 28 30 29 28 28 29 29 28 29 28 29 29 28 27 29 29 29 28 28 29 29 29 27 25
18 18 19 19 19 19 21 24 25 24 27 27 28 28 28 29 28 28 29 30 29 29 29 27 27 28 28 28 28 29 28 26 26 28 28 28 28 27 27 28 28 28 28 26 25
19 19 19 19 19 23 24 24 23 23 26 25 27 28 28 29 27 28 28 28 29 29 29 28 27 27 28 27 26 27 26 26 26 26 26 29 26 27 27 26 26 26 25 25 25
19 20 19 20 19 25 23 23 23 24 23 27 27 28 29 28 28 27 28 29 28 28 28 27 27 27 27 26 26 26 26 26 26 26 27 28 27 27 27 26 25 25 25 24 24
19 20 20 20 21 22 22 22 23 23 22 26 27 27 27 28 28 28 28 29 29 28 28 27 27 26 26 26 26 26 26 27 26 26 24 27 27 24 26 26 25 25 24 24 23
19 20 20 21 23 21 21 24 24 24 27 26 26 27 27 26 27 27 27 27 27 26 25 26 26 26 26 26 27 27 26 24 22 23 23 26 26 24 25 26 26 24 23 23 23
20 20 20 20 21 21 22 24 23 26 27 28 27 27 26 26 26 27 27 26 26 26 27 26 23 25 26 25 24 26 25 22 21 21 23 26 25 24 25 25 24 24 23 23 22
20 19 20 19 20 20 24 23 25 26 28 27 27 26 25 26 26 26 25 25 24 25 25 25 24 25 25 25 25 24 23 24 22 19 20 24 25 24 24 24 24 23 23 23 23
20 21 23 21 20 21 23 22 26 26 28 27 26 27 25 26 26 26 25 24 24 24 25 24 24 25 25 25 25 25 25 23 22 20 20 24 24 22 23 23 23 23 23 23 23
19 22 19 21 20 23 23 24 25 26 26 27 27 26 27 26 26 26 25 24 24 24 25 24 24 23 24 24 24 24 24 23 23 22 20 20 22 24 24 24 23 22 23 22 21
22 22 19 21 22 24 24 25 20 24 25 26 26 27 26 25 25 25 24 23 23 24 23 22 23 21 24 23 24 24 23 23 19 20 20 19 20 24 23 23 22 22 21 21 20
23 22 20 21 22 22 24 24 26 25 25 25 25 25 26 25 23 24 22 22 22 22 21 22 22 21 22 22 23 23 24 23 21 18 17 17 19 24 23 20 21 21 21 19 19
24 21 22 22 24 24 24 23 23 24 24 25 25 25 25 24 25 23 21 21 21 20 15 19 23 22 20 22 23 22 23 23 22 18 18 18 20 22 23 21 20 20 20 19 18
24 23 24 21 23 25 25 25 24 22 24 25 24 25 24 23 23 23 22 20 21 16 20 21 20 21 21 22 22 22 22 22 22 21 19 20 21 22 21 21 19 19 18 18 17
22 23 23 24 24 24 21 24 25 25 24 24 24 25 24 22 23 23 23 23 22 21 21 21 18 17 18 22 21 19 20 20 21 22 22 21 20 22 19 18 17 16 16 17 15
22 22 24 19 23 23 23 24 25 24 23 25 25 24 20 22 22 22 22 22 22 21 20 19 18 17 16 16 16 15 19 21 21 21 20 18 20 19 18 17 17 16 16 14 13

GFSSW_925_temp_021.txt.gz
Temp
13 12 12 11 11 11 12 11 14 16 15 17 17 18 18 19 20 20 19 24 25 25 24 25 25 25 25 25 25 26 23 24 25 26 26 28 27 27 27 26 26 26 25 24 25
13 13 13 12 11 12 12 13 16 16 16 17 17 18 18 19 20 20 25 25 25 25 25 24 24 25 24 25 25 25 23 26 27 25 25 27 26 28 26 25 24 23 24 25 25
11 12 12 12 12 11 12 13 15 16 17 17 17 17 18 18 17 24 26 26 26 26 26 26 26 26 25 26 27 28 25 27 26 26 26 25 27 28 25 24 24 23 23 23 24
12 12 13 13 13 12 13 14 15 17 16 17 18 17 18 18 23 27 27 27 26 27 25 26 26 26 26 25 28 27 27 27 27 26 27 26 27 28 26 25 25 24 24 23 22
14 14 14 14 14 14 14 16 16 17 17 18 17 17 17 18 22 28 28 27 27 26 25 25 25 26 26 27 29 26 27 27 27 27 27 27 28 28 26 26 25 25 25 23 23
14 14 14 14 14 14 15 16 16 17 18 17 16 18 17 22 28 28 28 28 28 26 27 26 28 29 29 27 27 27 27 26 27 27 28 28 28 28 26 26 25 25 23 23 24
14 14 14 14 14 15 16 17 17 18 18 18 17 17 19 22 27 28 29 29 29 29 28 30 30 27 28 28 29 27 26 26 26 26 27 28 26 26 25 26 25 25 24 24 24
15 15 15 15 15 16 17 18 18 18 19 18 17 17 20 27 28 28 29 29 30 30 29 30 30 27 28 28 29 28 26 24 26 26 26 25 23 25 25 25 24 25 24 24 24
15 15 15 16 16 17 17 18 19 19 19 18 18 18 22 27 27 28 29 28 30 29 29 29 29 28 29 25 24 25 23 25 26 26 26 25 24 25 25 25 24 23 24 24 23
16 16 16 16 17 18 18 19 19 20 20 17 18 20 23 27 28 28 28 29 28 29 28 28 25 25 23 22 23 24 25 24 24 27 27 26 26 26 26 26 26 26 23 22 21
16 17 17 17 17 18 18 18 17 19 18 21 23 24 27 28 28 28 29 28 28 28 25 25 23 22 25 26 27 26 26 24 24 26 27 26 25 25 25 26 27 22 20 20 20
17 17 17 18 18 18 17 17 23 24 21 24 25 26 28 28 27 27 29 27 27 24 25 25 23 26 28 28 27 27 25 23 25 26 25 25 25 24 24 24 22 21 20 20 19
17 18 18 18 18 18 18 20 23 24 22 26 27 27 27 27 26 27 28 26 26 25 25 23 25 27 27 24 24 24 23 23 24 24 25 25 23 23 24 23 23 22 21 20 19
18 18 19 19 18 21 20 23 23 23 20 24 26 27 27 27 25 28 28 26 27 25 24 24 26 26 26 24 24 23 24 24 24 22 21 23 21 22 22 22 22 21 18 18 18
18 18 19 19 19 20 23 23 23 22 16 24 26 27 28 26 25 26 28 26 25 26 24 25 25 23 23 24 24 24 25 24 24 22 22 22 21 21 22 21 21 19 19 18 17
18 19 19 19 20 21 22 22 23 17 19 25 25 25 25 26 27 26 27 27 27 25 23 24 25 24 23 25 25 25 24 23 23 21 17 21 22 21 22 22 21 20 19 19 17
19 20 20 20 19 21 22 20 16 16 25 24 24 25 25 25 25 25 25 24 22 23 23 24 24 24 25 23 25 23 21 16 17 15 16 21 22 19 21 22 21 20 17 17 17
19 20 20 20 21 21 22 18 20 25 25 26 25 25 24 25 25 25 24 22 22 22 22 21 21 22 24 23 23 22 22 14 19 15 16 21 21 19 20 21 21 20 18 18 18
19 20 20 21 21 21 17 16 20 24 26 25 25 24 24 25 25 24 21 22 21 21 21 21 21 23 23 23 23 22 19 23 17 17 13 19 21 21 21 21 21 20 19 17 17
19 20 21 21 22 21 16 17 23 25 26 26 24 24 23 23 24 23 23 22 22 22 22 22 21 23 24 24 24 22 23 18 15 17 18 19 19 18 20 20 21 21 19 18 17
19 17 20 20 22 16 16 19 24 25 23 24 24 25 24 23 24 23 22 22 22 23 21 20 20 21 23 21 21 20 20 20 20 15 14 13 17 21 19 19 19 18 18 16 14
18 17 19 20 17 16 18 24 20 24 24 25 24 25 24 24 23 22 20 21 21 20 21 20 18 16 21 22 23 23 21 20 13 17 12 12 15 20 17 18 17 17 16 15 15
17 16 19 19 14 13 21 23 25 23 24 25 23 23 24 22 21 20 19 20 19 18 18 19 18 14 18 20 21 22 22 21 16 12 15 11 13 20 20 17 18 16 15 15 14
16 15 16 16 17 20 22 22 22 23 23 24 23 24 23 22 23 20 19 20 19 19 15 17 20 17 14 19 20 20 20 21 17 11 13 13 16 18 17 17 16 14 14 14 13
16 17 17 15 17 19 21 21 21 22 23 24 23 23 22 21 21 19 18 19 19 17 19 18 17 18 18 19 20 20 19 18 18 17 15 15 18 16 15 14 14 14 14 14 12
17 18 19 17 20 21 18 22 21 22 22 22 22 22 21 20 19 19 19 18 19 19 19 17 13 16 17 17 17 17 16 17 18 19 18 18 17 16 15 14 14 14 13 12 11
21 21 17 15 19 17 19 23 23 21 22 22 22 17 15 18 17 17 17 17 18 18 17 15 12 11 12 13 12 12 16 18 19 19 18 16 17 14 13 13 12 10 11 11 10

GFSSW_925_temp_024.txt.gz
Temp
13 14 14 13 14 13 12 12 12 13 14 14 15 16 17 18 19 19 18 24 25 24 24 23 23 24 23 23 24 24 22 21 23 26 26 25 26 25 25 24 24 24 22 23 22
13 13 13 12 13 13 13 11 11 12 14 14 15 16 18 19 18 18 26 25 25 24 24 23 23 23 22 23 23 23 21 24 24 25 25 25 25 26 24 22 21 21 22 22 22
10 12 11 13 13 14 13 11 11 11 12 13 15 18 19 18 16 22 27 26 25 24 24 24 24 24 23 25 25 23 24 26 25 25 25 25 26 26 22 22 22 22 21 21 22
12 13 12 14 14 14 13 12 12 12 13 14 17 18 19 17 21 26 27 26 25 24 23 24 23 23 23 24 24 26 26 26 27 25 25 25 25 26 24 23 23 23 22 21 20
14 14 14 14 14 14 14 14 14 13 15 15 17 18 17 17 20 27 27 26 25 23 23 23 24 24 24 25 26 24 26 25 25 25 25 25 25 26 24 22 23 23 23 22 22
14 14 14 14 14 14 14 15 15 15 16 16 17 17 15 19 26 27 27 26 25 24 25 24 25 26 25 25 25 25 25 25 26 26 27 26 26 27 25 22 22 23 22 22 22
14 15 14 14 14 14 15 16 16 16 16 17 17 16 15 20 27 27 26 28 28 27 26 27 28 27 26 26 25 24 25 25 26 26 26 25 26 24 24 23 22 23 22 22 22
15 15 14 14 14 15 16 17 17 17 17 17 16 15 18 26 26 27 28 29 29 29 29 29 29 27 27 27 26 26 23 23 25 25 26 25 23 25 22 23 22 22 22 22 22
15 15 15 15 15 15 16 17 17 17 17 17 15 15 21 26 27 28 28 28 28 29 29 29 28 25 24 22 21 22 22 23 25 23 25 25 23 23 22 23 22 21 20 20 19
15 15 15 15 16 16 17 18 18 18 17 15 16 19 22 24 27 28 28 28 27 27 25 26 21 22 21 21 21 22 22 22 23 24 24 24 24 23 23 22 22 18 17 17 17
16 16 16 16 17 17 17 17 16 17 17 20 21 22 24 26 27 28 28 28 27 26 24 23 22 22 24 23 24 24 22 22 24 25 26 23 23 24 24 20 18 18 17 17 16
16 16 17 17 17 18 18 16 20 22 21 21 21 22 24 27 26 26 28 26 26 24 24 21 23 24 25 24 23 24 22 23 24 24 24 21 22 23 20 18 18 18 17 17 16
17 17 17 18 18 18 17 19 22 21 20 24 23 23 26 27 25 25 26 25 25 24 24 21 24 26 24 22 23 21 21 23 23 23 23 21 21 20 20 19 19 18 17 17 16
17 17 17 18 18 18 19 23 23 22 17 23 25 26 27 25 25 26 27 26 25 23 22 24 25 23 23 23 23 22 23 23 23 21 21 22 18 21 19 18 18 17 16 16 17
17 17 18 18 18 18 21 22 22 21 16 23 25 27 27 26 24 25 27 26 25 25 22 23 22 22 22 23 24 23 24 23 23 21 20 20 18 20 19 18 18 16 16 16 15
18 17 18 17 18 20 21 22 21 15 18 23 24 24 25 25 24 25 26 25 25 23 22 23 23 23 23 23 24 24 23 20 20 19 16 20 19 19 18 19 18 18 16 16 14
18 18 18 18 19 21 22 19 15 15 23 23 23 23 24 24 24 24 23 21 20 21 21 22 22 23 24 22 22 21 18 15 16 15 16 20 19 18 18 19 19 16 15 15 14
18 18 19 19 20 21 21 17 19 21 23 24 23 22 23 24 24 23 22 20 20 21 20 19 19 21 22 22 22 22 19 14 19 15 16 19 18 18 18 19 18 17 16 17 16
18 18 19 21 21 21 15 15 18 22 24 24 23 22 23 24 23 21 21 20 21 21 20 19 20 22 23 23 22 21 19 20 16 14 13 17 19 20 19 19 19 19 19 17 14
18 19 20 21 21 20 15 15 20 23 23 24 23 22 22 22 23 21 21 21 22 21 20 21 20 22 23 22 22 21 21 17 13 16 18 17 18 17 18 18 18 17 15 14 14
18 15 19 20 21 14 15 17 23 23 22 23 23 23 22 21 22 21 20 20 20 21 19 20 19 19 21 20 20 19 19 18 17 13 14 13 15 17 18 18 16 14 14 13 13
15 15 18 19 15 13 16 20 22 23 23 23 23 22 22 22 20 19 19 20 18 19 20 19 16 14 20 21 22 21 20 17 12 17 11 11 14 17 16 16 16 15 14 13 13
14 14 18 18 13 11 17 22 23 23 23 24 23 22 22 21 18 19 18 18 17 18 18 19 16 13 16 18 19 20 21 17 14 11 14 10 13 16 16 15 15 13 13 12 11
13 14 14 13 13 17 20 22 22 21 22 22 22 22 21 21 18 18 18 18 18 18 14 17 17 16 15 18 18 20 20 17 15 11 13 12 15 16 15 13 13 12 11 10 10
14 15 15 14 15 18 19 20 21 21 22 22 22 22 21 20 19 17 18 18 18 16 19 16 16 17 17 17 18 19 18 17 17 15 14 15 14 14 13 12 13 12 11 11 10
16 16 14 14 17 18 17 19 20 21 21 22 21 20 20 18 18 17 17 17 17 18 18 14 13 15 17 15 14 16 16 15 16 17 17 15 14 14 13 12 12 11 11 11 10
18 17 15 13 15 16 17 19 19 20 21 20 17 15 14 17 15 14 15 16 16 17 15 14 11 10 12 11 12 11 15 17 18 16 17 15 14 12 12 11 10 10 10 10 10

GFSSW_925_temp_027.txt.gz
Temp
13 12 13 13 13 13 13 12 11 13 11 13 13 15 16 18 19 17 16 23 24 24 24 23 22 22 22 22 23 22 21 21 23 23 23 25 24 24 23 22 23 22 21 21 19
13 12 11 11 13 13 12 12 11 10 11 13 13 15 17 17 17 16 26 24 24 23 23 22 22 22 20 22 22 22 19 22 23 24 23 24 24 23 23 22 20 19 19 19 18
13 10 11 11 12 12 12 12 11 11 11 13 15 15 17 17 15 21 27 26 25 23 23 23 23 23 22 23 23 22 23 24 24 24 24 23 23 23 21 21 21 20 19 19 18
13 12 13 14 13 13 13 13 12 11 12 14 15 16 17 15 21 25 26 26 25 23 23 23 22 23 23 23 23 25 25 24 26 23 23 23 23 22 23 22 21 21 20 19 19
14 14 15 15 14 14 13 12 12 12 12 15 15 16 15 17 19 26 26 26 24 23 22 21 22 23 24 23 24 25 25 24 24 24 24 24 25 24 24 20 21 21 21 20 20
14 14 14 14 14 14 13 13 13 14 14 15 15 15 15 20 26 25 25 25 24 23 22 22 23 23 24 24 25 24 24 24 25 24 25 24 25 25 21 19 20 21 21 20 20
14 14 14 14 14 14 13 14 15 15 15 15 15 14 15 20 26 26 25 26 25 24 23 24 24 24 24 23 24 23 24 25 25 25 26 24 25 23 20 20 21 21 21 20 21
14 14 14 14 14 14 14 15 15 16 15 15 15 13 17 25 26 26 27 27 27 26 26 28 26 25 26 24 22 24 21 22 24 25 23 24 22 24 19 20 20 20 20 20 19
14 14 14 14 14 14 15 14 15 16 15 14 14 14 20 25 25 27 27 27 28 27 27 28 26 22 22 21 20 19 22 23 24 24 24 24 23 23 18 21 20 19 17 17 15
14 15 14 14 15 15 16 14 15 16 15 13 14 17 22 24 26 27 27 28 26 26 24 23 20 21 19 20 21 22 23 21 22 23 23 23 22 22 19 19 17 14 14 14 14
15 15 15 15 16 16 15 15 14 15 14 19 20 21 23 25 26 27 27 27 25 23 23 22 21 22 23 23 24 23 21 21 22 23 22 23 20 17 18 15 14 14 15 14 14
15 16 16 16 16 16 16 15 19 20 19 18 19 20 22 24 24 26 27 25 24 23 23 21 22 24 22 22 23 22 21 22 23 22 22 20 17 16 16 15 15 15 15 15 14
16 16 16 16 16 15 16 19 21 20 19 22 21 22 22 24 24 25 26 24 24 24 23 22 24 23 22 21 22 21 21 22 23 21 20 20 18 16 17 16 16 15 15 15 15
16 16 16 16 15 17 18 21 21 21 17 22 24 24 26 24 24 25 26 25 24 23 21 22 22 22 21 22 21 22 22 22 22 20 19 20 17 18 17 16 16 15 14 14 14
16 17 17 16 17 16 20 21 21 20 15 22 24 26 25 25 24 25 26 25 24 23 22 22 22 22 22 23 23 22 22 22 22 19 19 19 16 17 17 16 16 15 14 14 14
17 17 17 16 17 20 20 21 21 15 18 22 24 24 24 24 24 24 24 22 23 21 21 22 22 22 23 23 23 23 21 18 17 17 16 19 17 16 16 16 16 16 15 15 14
17 18 18 17 18 20 21 18 15 14 22 21 22 23 23 23 23 23 21 19 20 20 20 21 21 21 22 22 22 20 18 15 16 14 15 18 18 17 18 17 17 15 14 14 13
17 18 18 19 19 20 21 16 18 20 21 22 22 22 22 23 21 21 20 19 20 20 18 18 19 21 21 22 21 20 18 14 19 15 15 17 17 17 17 16 16 15 14 14 13
18 17 18 20 19 20 15 14 17 18 23 22 22 21 22 23 21 20 20 19 20 20 20 19 20 22 22 22 21 21 17 18 14 12 13 15 18 18 18 16 16 16 15 14 12
18 17 18 19 20 20 14 15 18 21 23 22 21 21 21 22 21 20 20 20 21 19 19 20 19 21 22 22 21 20 19 17 13 16 17 16 17 15 16 16 16 15 13 12 11
18 15 18 18 20 13 14 15 19 22 23 23 21 21 21 21 20 20 20 19 19 20 19 19 18 18 20 19 19 19 18 16 15 12 13 12 14 15 16 16 14 13 12 12 11
14 15 17 18 14 11 15 18 20 22 21 22 22 22 20 20 19 19 19 19 17 19 19 18 15 14 19 19 20 20 19 16 12 16 10 10 13 16 15 14 14 13 13 11 10
13 13 17 18 12 10 16 20 21 22 22 22 22 21 21 18 18 18 18 18 17 18 18 18 15 13 16 17 18 20 19 14 12 10 14 10 13 15 14 14 13 12 11 10 9
12 13 13 12 12 16 19 20 21 21 22 21 21 20 20 18 16 17 17 18 17 17 14 16 15 15 15 17 17 18 18 16 15 11 12 11 15 15 13 12 12 11 10 9 9
12 14 14 13 14 16 18 20 20 21 22 21 21 21 20 19 18 16 17 17 18 16 16 15 15 16 15 15 17 18 17 15 15 14 14 14 13 15 12 11 11 11 9 9 9
13 14 12 13 15 16 16 18 19 20 21 21 20 18 19 18 18 16 16 17 18 17 16 13 12 15 16 13 13 16 16 15 14 15 14 15 14 13 12 11 11 10 10 10 11
15 15 13 11 13 14 15 18 19 19 18 17 17 15 15 16 15 14 14 14 15 16 14 12 10 10 12 10 12 11 14 15 16 16 15 12 13 11 11 11 10 9 9 9 9

GFSSW_925_temp_030.txt.gz
Temp
12 11 10 10 10 11 11 11 12 11 12 10 14 14 14 15 17 15 14 22 23 23 23 22 22 22 22 21 21 20 20 19 21 21 22 25 24 23 22 22 21 21 19 19 17
10 11 10 10 10 10 10 10 11 11 10 10 14 15 14 15 14 14 24 24 24 23 22 22 21 21 19 21 21 20 19 22 22 23 24 24 24 23 22 21 20 18 17 17 16
13 11 10 10 10 11 10 10 10 10 10 10 14 14 14 13 12 20 25 26 24 23 23 23 22 22 22 22 22 21 21 22 24 24 23 22 22 21 20 21 20 18 16 16 15
13 12 11 13 11 12 10 10 10 10 10 11 15 14 13 13 21 25 25 26 25 23 22 22 21 22 21 22 22 24 22 23 23 23 22 22 21 21 22 22 20 19 17 17 16
13 13 14 14 13 13 11 10 10 10 12 12 14 13 13 15 18 24 25 25 23 22 22 20 20 21 22 22 23 23 25 23 22 22 21 22 23 22 22 19 19 19 18 17 17
13 13 14 14 14 13 12 12 12 12 13 13 13 13 12 18 24 24 24 24 24 22 21 21 21 22 23 23 24 23 23 23 23 23 23 23 22 23 21 18 18 19 18 18 18
13 14 14 14 14 13 13 13 12 14 12 13 13 12 13 18 24 24 24 24 24 23 21 22 23 23 22 23 24 23 24 23 23 24 24 23 25 23 19 19 19 19 19 18 18
13 14 14 14 14 13 13 13 14 14 13 13 12 11 15 24 25 25 26 25 24 24 23 25 23 22 24 23 21 22 21 22 24 24 22 23 22 23 17 19 18 18 18 17 16
13 14 14 14 14 13 13 13 14 15 13 13 12 12 18 25 25 27 26 26 26 25 24 24 24 22 22 20 20 19 21 22 24 23 23 24 23 20 17 18 17 17 16 15 15
14 14 14 15 14 13 13 11 13 14 13 12 13 15 20 24 25 26 27 27 26 25 24 23 19 20 19 20 20 21 22 21 23 23 23 23 18 16 18 18 15 14 14 13 13
14 14 15 14 13 13 12 12 13 14 12 17 19 19 22 23 24 26 26 26 24 22 23 21 20 21 22 22 22 22 22 22 21 22 19 15 15 14 15 14 13 13 13 12 12
14 14 15 14 14 13 12 13 18 19 18 16 17 19 21 23 23 25 26 25 24 22 23 20 21 22 21 21 20 20 20 22 22 20 19 16 15 14 14 14 13 12 12 12 12
15 15 15 14 11 11 14 17 20 19 18 21 19 20 22 22 23 23 25 24 23 23 21 20 22 22 22 20 21 20 21 22 22 21 18 19 17 15 16 14 14 13 13 13 13
15 15 15 14 13 16 16 20 19 19 16 21 22 23 24 24 24 24 25 24 22 22 21 21 21 21 21 21 20 22 21 22 20 19 18 18 18 17 15 14 14 14 13 12 13
15 15 15 16 16 15 20 20 19 19 16 21 23 25 24 23 23 24 23 24 22 21 21 22 22 21 21 22 22 22 20 20 20 17 18 18 17 16 15 15 14 13 13 13 12
15 15 15 14 16 19 20 20 19 15 17 22 23 23 23 23 23 23 22 20 21 20 19 20 21 21 22 21 21 20 19 17 16 16 15 18 17 16 15 15 15 14 13 13 13
15 15 15 16 17 19 19 17 15 14 21 21 21 23 22 22 21 21 20 19 20 19 19 19 20 20 21 21 21 18 17 15 16 14 15 17 16 16 16 16 16 14 13 13 12
15 15 15 17 18 19 19 16 18 19 19 21 21 21 21 22 20 20 20 19 19 18 17 18 18 21 20 21 20 19 18 14 19 15 15 17 17 17 16 16 15 14 14 12 12
15 13 15 19 18 18 14 13 16 17 21 20 21 21 21 21 20 19 19 18 19 19 19 18 20 21 21 21 21 19 17 17 13 12 12 14 17 17 15 14 14 14 14 12 12
14 15 16 18 18 17 13 15 18 18 21 21 20 20 20 21 20 19 20 19 20 18 19 19 19 20 21 21 19 20 17 16 12 16 17 15 15 15 15 14 14 14 13 12 11
16 14 16 17 18 13 14 16 18 19 21 22 20 20 20 20 19 19 19 19 18 19 19 18 17 18 20 19 19 18 17 14 14 11 13 11 14 14 15 15 14 13 12 10 10
13 14 15 17 14 10 14 16 19 21 21 21 21 21 19 19 18 19 18 18 16 18 19 17 14 15 19 19 18 19 18 15 12 16 9 10 13 15 14 14 14 12 11 10 9
12 13 15 17 12 10 15 19 20 21 21 21 21 20 19 17 17 17 17 17 17 18 17 16 15 13 16 17 18 19 17 13 12 10 13 10 13 14 13 13 13 10 9 9 8
12 12 12 11 11 15 18 19 20 20 20 20 19 19 18 17 15 16 17 17 17 17 14 15 14 15 15 17 16 18 17 15 14 10 12 11 15 15 14 13 11 10 9 8 8
11 13 13 13 13 15 17 19 20 20 21 19 20 20 18 18 17 16 16 17 17 15 15 15 15 15 14 14 16 17 16 14 15 14 14 15 12 14 13 11 10 9 8 8 8
13 12 10 11 13 15 15 18 19 19 19 20 19 17 19 17 17 15 16 16 17 15 15 12 12 15 15 12 12 15 15 14 14 14 13 14 13 12 11 10 10 9 8 9 9
13 13 12 9 12 14 13 16 18 18 17 17 17 16 17 17 14 13 13 12 15 15 13 12 10 11 12 9 11 11 13 13 14 13 13 13 13 10 11 10 9 8 8 8 8

GFSSW_925_temp_033.txt.gz
Temp
11 11 10 10 10 9 10 10 12 10 10 10 11 11 12 12 17 15 13 22 23 22 22 22 21 21 21 22 22 21 24 23 23 24 21 23 23 24 23 23 22 20 21 19 16
12 10 11 10 10 10 10 9 11 10 9 10 10 10 10 11 13 12 24 23 23 22 22 22 21 20 21 22 22 23 23 24 24 24 26 26 25 24 23 22 21 19 17 16 16
12 13 10 11 10 9 9 9 9 9 9 11 10 9 9 12 13 20 23 25 23 23 23 22 22 22 22 22 22 22 24 23 24 25 24 26 24 23 23 23 23 21 18 17 16
12 12 12 12 13 10 9 9 9 10 9 9 8 8 11 12 21 24 24 25 22 22 22 21 21 22 22 23 23 24 24 24 24 24 24 24 23 23 25 24 23 21 19 17 17
13 13 12 13 13 12 9 11 10 11 11 10 9 9 12 15 18 24 24 25 22 21 22 21 21 22 22 22 23 23 24 23 23 23 24 23 23 23 24 20 21 19 19 19 18
13 13 13 14 13 12 11 12 11 12 11 9 9 9 12 18 23 24 23 23 22 21 20 21 22 22 23 23 24 23 23 23 23 23 23 24 22 24 21 20 20 20 20 19 19
13 13 13 13 13 12 12 12 13 10 11 10 9 10 12 19 23 23 23 23 23 22 20 21 22 23 23 23 23 23 24 24 23 24 23 23 24 23 20 21 20 20 20 19 19
13 13 14 13 13 13 13 13 13 9 11 10 9 10 16 23 23 23 24 23 22 22 22 23 22 22 23 22 22 23 22 24 24 24 22 24 24 20 19 21 20 20 19 20 20
13 13 13 14 13 13 13 14 11 10 11 10 10 11 19 24 23 25 25 25 22 21 22 22 22 22 22 23 23 22 23 23 24 23 24 24 22 19 19 20 20 20 20 19 19
13 13 13 14 12 13 13 13 11 10 10 10 11 14 20 23 24 25 26 26 23 22 22 22 21 22 21 24 24 23 23 23 24 24 22 22 19 18 17 20 18 18 18 18 17
13 13 14 13 11 13 13 11 11 12 11 17 18 18 20 23 23 25 26 25 24 23 23 21 24 24 24 22 22 22 23 23 22 21 20 18 17 17 17 18 17 17 17 17 16
13 14 14 11 11 12 12 10 16 19 18 15 16 17 19 21 23 24 25 25 23 23 22 23 22 22 21 21 21 21 22 22 21 20 20 18 18 17 16 16 17 17 16 16 15
13 14 13 9 11 9 11 14 18 18 18 20 17 19 21 21 23 23 24 23 23 22 21 22 22 21 21 21 22 21 22 21 22 21 20 20 20 18 16 16 15 15 15 15 16
13 13 11 11 11 12 12 19 18 17 18 21 21 22 22 22 23 23 24 24 22 22 20 21 21 21 21 21 21 22 21 21 21 22 23 20 23 19 17 16 15 15 16 16 16
13 13 11 14 14 14 18 18 18 18 17 21 22 24 22 23 23 24 22 23 22 21 21 21 21 21 21 21 21 21 20 20 20 20 21 21 22 20 16 17 16 16 16 16 15
13 13 10 11 13 18 18 17 18 16 18 21 22 22 22 22 22 22 22 21 20 20 20 20 20 21 21 19 20 19 20 19 18 19 20 19 21 21 18 18 17 16 16 16 15
13 13 12 13 15 17 17 17 17 16 20 20 21 22 21 21 21 20 20 19 21 21 20 20 20 20 21 21 20 20 21 20 20 20 20 18 18 21 19 18 18 17 17 16 15
13 11 12 15 16 16 17 17 18 19 19 20 20 21 21 20 20 19 19 20 19 19 19 20 21 21 20 21 21 19 21 19 19 19 19 18 19 21 18 18 19 18 18 16 16
10 9 11 15 16 14 15 15 17 17 19 20 20 20 20 20 20 19 18 19 19 19 21 20 20 20 20 20 21 19 19 18 16 13 17 19 19 19 17 17 17 18 16 17 16
11 10 13 16 16 16 15 16 18 18 20 20 20 20 20 20 20 19 19 18 19 18 19 19 20 19 20 20 19 20 18 19 17 18 18 18 18 20 18 17 17 17 17 17 15
13 13 14 15 16 14 15 16 18 18 19 21 19 19 19 19 19 19 19 18 18 18 18 18 19 19 19 20 20 19 18 16 17 16 18 17 20 18 19 18 17 18 18 16 15
11 14 13 15 14 11 15 16 18 20 20 20 20 19 19 19 18 18 19 19 16 18 20 17 17 17 19 18 18 19 18 17 18 17 13 15 19 16 16 17 17 17 15 14 13
12 12 13 15 13 11 15 18 20 20 20 21 20 19 18 17 18 17 17 16 16 18 18 17 17 17 19 19 18 19 17 15 14 14 15 16 19 16 15 15 16 16 14 12 12
12 13 12 11 11 15 17 19 20 19 20 19 18 18 17 17 16 16 16 16 16 16 13 16 15 18 19 19 17 18 16 15 17 16 16 16 18 17 16 15 14 14 13 12 12
11 13 13 13 14 15 17 18 19 20 20 19 19 19 18 17 16 16 16 16 16 14 14 16 17 16 15 14 15 17 17 15 17 16 18 18 16 18 17 17 15 13 12 11 11
12 13 10 12 13 15 15 17 18 18 19 20 18 17 18 17 18 16 16 16 17 15 15 13 15 14 15 13 13 15 16 15 15 15 16 15 16 16 15 14 13 12 11 11 11
11 12 13 9 12 14 14 16 18 17 16 16 17 16 17 16 14 13 13 13 15 15 13 13 13 13 14 11 13 14 15 16 15 15 17 16 19 14 13 13 14 12 11 11 11

GFSSW_925_temp_036.txt.gz
Temp
10 10 11 10 10 10 10 10 9 9 10 9 11 10 11 10 14 13 18 22 22 22 22 22 23 24 24 27 27 28 28 28 28 27 26 27 26 26 26 25 25 24 24 23 18
12 11 11 10 10 10 10 9 9 9 9 9 9 10 11 9 12 16 21 22 22 22 23 25 25 25 26 27 27 27 28 28 29 29 28 27 27 26 25 26 24 23 23 20 17
12 12 13 11 10 10 11 9 9 9 9 9 9 9 9 10 16 25 24 22 22 22 24 24 25 26 26 27 27 28 28 29 29 29 29 28 28 28 27 27 27 25 22 18 18
13 13 13 12 13 12 13 11 10 12 9 9 9 10 10 11 24 25 24 24 23 21 23 24 25 25 26 26 28 27 28 28 28 28 28 28 28 26 28 28 27 27 24 20 20
13 13 13 13 13 14 14 12 12 12 9 9 8 9 12 18 23 24 24 24 22 21 24 25 25 26 26 27 27 27 28 27 27 27 28 29 28 27 27 26 26 25 23 23 23
13 13 13 13 13 14 13 13 12 9 9 8 8 9 13 20 23 22 22 22 22 23 25 25 26 27 26 27 27 27 27 26 26 27 27 27 26 27 26 26 24 23 24 25 25
13 13 13 13 13 13 13 13 13 9 9 8 8 10 15 22 23 22 21 23 23 24 26 25 26 26 27 27 27 26 26 26 26 27 26 28 26 26 25 26 25 25 25 25 26
12 13 13 13 13 13 13 13 12 9 8 9 9 10 20 22 22 22 23 23 22 23 24 24 24 25 25 26 26 27 28 26 27 27 26 27 27 25 24 26 26 26 25 25 25
12 13 13 13 13 13 13 12 12 9 11 9 10 13 22 23 23 25 24 26 23 22 23 23 24 26 25 26 26 27 27 27 26 27 27 28 27 24 25 26 25 25 25 25 24
12 13 12 13 13 13 13 12 12 11 11 10 12 16 22 26 25 25 25 25 26 24 24 24 26 26 27 27 27 27 27 27 27 27 28 27 26 24 25 26 25 25 25 25 24
12 12 12 13 13 12 12 11 15 17 14 21 22 22 24 25 24 27 26 26 25 27 26 25 26 27 28 28 28 28 28 28 27 26 27 27 26 25 24 25 25 25 24 24 23
12 12 13 13 12 12 10 17 20 19 21 20 21 21 22 23 25 27 26 27 27 27 26 26 27 26 25 26 27 27 27 27 25 25 26 26 25 24 24 25 25 25 24 24 22
12 12 12 12 11 9 12 16 17 17 21 22 22 23 25 24 26 27 27 27 26 26 26 27 25 25 26 26 26 26 27 26 26 25 26 26 26 24 22 22 21 22 24 23 23
12 11 11 11 11 12 13 16 16 16 22 23 23 25 24 25 25 26 26 27 26 26 26 26 24 25 26 26 26 26 25 26 25 26 27 26 27 26 23 23 21 21 21 22 22
12 11 11 14 14 15 18 17 16 17 21 24 24 25 25 26 26 26 24 27 26 25 25 25 25 25 26 25 24 25 25 26 26 26 26 26 26 27 23 23 22 21 22 21 21
12 11 9 10 11 15 15 16 17 21 20 23 25 24 25 25 25 25 26 26 25 25 26 25 25 25 25 24 25 24 25 25 25 25 24 26 25 28 27 25 23 21 21 21 20
11 10 9 11 17 14 16 18 21 20 23 23 24 25 25 24 24 25 25 25 26 24 24 25 24 24 24 25 24 25 25 24 23 23 24 23 24 27 25 24 23 22 21 21 20
11 10 9 12 14 14 16 20 20 23 23 23 24 25 24 24 24 24 24 24 24 25 26 25 23 24 24 25 26 25 25 24 22 23 24 22 24 26 23 23 23 23 22 21 21
10 8 9 11 13 13 19 20 22 23 24 23 24 24 23 24 24 24 24 25 24 24 26 25 24 23 23 24 24 23 24 23 22 17 21 25 25 25 22 22 22 23 22 22 22
10 10 14 13 14 14 19 20 23 23 23 24 23 24 23 24 24 24 24 23 23 23 23 24 23 23 22 24 23 24 23 22 23 20 21 24 24 25 22 22 22 22 22 22 22
13 16 16 14 15 17 19 21 23 22 23 24 24 23 24 23 24 24 24 22 22 23 24 25 24 22 22 23 24 22 23 22 23 22 22 22 25 24 23 23 23 23 23 22 22
15 17 13 14 17 19 21 22 21 23 22 23 25 24 24 24 23 24 24 24 21 23 24 22 24 22 23 22 22 23 24 24 22 21 20 20 24 23 22 23 23 23 23 23 22
17 17 11 13 18 18 20 22 22 23 23 23 24 24 23 23 23 23 22 19 19 22 23 22 23 22 22 22 22 23 23 23 21 20 21 20 24 22 22 22 22 23 23 21 19
19 17 15 16 20 21 21 22 22 21 22 23 22 22 22 22 21 21 21 19 19 20 13 20 22 23 23 24 23 22 22 22 23 21 22 22 25 23 23 22 23 22 22 20 18
19 19 20 17 18 21 22 23 23 22 22 23 22 24 23 21 21 21 21 19 19 14 19 21 22 21 20 20 20 22 22 22 22 23 21 24 23 25 24 24 23 22 21 19 18
19 19 17 20 20 20 19 21 23 22 23 23 24 23 23 23 24 22 22 21 22 19 20 19 20 19 19 18 19 19 21 22 22 23 22 23 23 25 24 22 21 20 19 18 17
14 15 21 14 19 20 21 22 23 22 19 20 23 22 21 20 20 21 20 21 21 21 19 20 19 19 20 17 18 16 20 22 22 22 22 22 23 23 21 20 21 20 19 18 17

GFSSW_925_temp_039.txt.gz
Temp
12 12 13 13 14 13 13 12 9 9 9 9 9 9 12 12 15 16 20 23 23 22 23 25 26 26 27 29 30 31 29 30 28 27 27 28 28 29 29 28 27 27 27 25 22
11 12 13 13 13 12 13 11 10 9 10 9 9 9 13 13 13 20 23 22 22 22 23 26 28 28 28 29 29 29 29 31 30 25 18 27 28 29 28 28 27 26 26 23 21
11 11 12 13 12 14 14 14 14 11 11 9 9 10 13 13 19 27 24 23 22 22 25 27 28 28 28 29 29 29 29 31 31 30 22 29 29 29 29 28 28 27 25 21 21
12 12 13 13 13 13 14 14 14 12 11 9 9 10 12 13 25 26 24 24 23 22 25 27 28 27 28 28 30 29 30 31 31 31 29 28 30 29 28 23 30 30 25 21 23
12 12 13 13 13 13 14 14 13 12 10 9 9 11 13 21 25 25 24 24 23 22 26 28 27 28 28 29 30 29 30 30 30 30 29 29 29 29 28 29 30 29 25 24 25
12 12 13 13 13 13 14 14 13 11 10 9 9 10 15 21 26 25 24 22 24 24 27 28 28 29 28 29 29 30 30 29 29 29 30 29 29 29 29 29 28 27 26 25 26
12 12 13 13 13 13 13 14 13 10 9 10 11 11 18 23 26 26 24 26 26 26 28 28 28 28 28 28 29 29 28 28 28 29 29 29 27 26 28 29 27 26 26 27 27
12 12 12 12 13 13 13 13 13 13 12 13 11 14 21 25 25 26 26 26 26 26 27 27 27 27 28 28 28 28 28 27 29 29 29 29 27 27 28 28 28 28 27 27 28
12 12 12 12 13 13 13 13 13 14 13 12 12 16 23 24 25 27 27 28 26 26 26 25 26 27 28 26 27 28 27 28 28 30 29 29 28 28 29 29 28 28 28 28 28
12 12 12 12 13 13 13 13 13 13 12 13 15 19 23 27 28 28 28 27 28 27 26 26 26 26 27 27 25 27 28 29 28 29 29 28 28 29 29 29 28 28 27 27 27
12 12 12 12 13 13 13 13 17 18 18 23 25 25 27 27 27 28 28 28 28 28 27 27 26 26 28 28 29 29 29 29 30 29 29 29 28 28 28 28 28 28 28 27 27
12 12 12 12 12 12 12 19 23 21 22 23 24 25 25 25 27 29 28 28 27 27 28 27 26 28 29 29 29 29 28 28 29 29 29 29 29 29 29 29 29 28 28 28 27
12 12 12 12 10 9 14 18 20 19 22 25 25 25 26 27 27 29 29 29 27 26 28 25 27 28 28 28 28 28 28 27 28 28 29 29 29 28 28 29 29 29 29 28 27
12 11 11 11 10 16 16 18 18 18 22 25 24 26 26 27 27 30 29 29 27 26 27 24 26 28 28 28 28 27 28 28 28 28 27 29 27 28 28 27 26 26 27 28 27
11 11 11 13 15 18 20 20 19 19 21 26 26 28 28 27 28 28 28 29 27 27 27 27 27 28 28 28 28 26 28 28 29 29 28 28 28 27 29 27 26 26 26 26 26
11 11 11 9 11 17 18 19 19 20 20 25 27 26 26 27 27 29 28 29 29 28 27 23 28 29 28 27 27 27 27 28 28 28 26 28 28 29 29 29 28 26 26 26 25
11 11 10 13 18 17 17 19 20 21 26 25 26 26 26 26 27 27 27 26 26 25 25 27 27 27 28 27 27 28 27 25 25 25 25 27 27 28 29 27 28 26 25 25 24
11 10 10 13 15 15 17 18 20 24 25 27 27 26 26 27 26 26 27 26 28 27 27 26 25 27 27 28 27 27 27 25 23 24 26 27 26 28 27 26 27 26 26 24 24
10 9 11 11 13 14 19 19 22 25 27 26 26 25 26 27 26 26 26 27 27 28 25 25 25 27 27 27 27 27 26 27 25 22 23 26 29 27 26 26 26 26 25 24 24
11 11 13 14 12 14 17 20 24 26 27 26 25 26 25 26 25 26 26 28 27 27 28 27 25 26 25 26 26 26 27 25 25 22 23 27 27 28 26 26 25 25 25 24 24
14 15 18 14 14 16 18 21 24 26 26 26 26 26 26 26 26 26 26 26 27 26 27 28 27 25 25 25 27 25 25 25 26 25 23 24 27 28 27 27 26 26 25 25 24
15 16 15 14 17 17 20 23 23 26 25 26 26 27 26 27 26 26 26 27 27 27 26 27 26 25 25 26 26 26 26 26 23 24 23 23 24 27 26 27 26 26 26 25 25
15 16 14 16 18 18 21 23 25 25 25 25 25 27 27 26 25 26 26 22 24 25 26 26 25 24 24 25 25 25 26 26 26 23 23 22 24 27 26 26 26 26 26 25 25
17 15 12 16 20 21 21 23 23 25 25 26 26 27 26 25 26 25 25 22 22 24 16 21 25 25 24 25 26 24 25 26 25 22 23 24 26 27 26 26 26 26 26 26 25
16 20 18 17 20 19 23 23 23 23 25 25 25 25 25 24 25 24 25 22 22 16 22 24 24 25 25 25 24 25 25 25 25 25 24 25 26 28 28 27 27 26 25 25 24
16 22 21 20 20 19 20 23 24 25 24 24 25 26 26 25 25 24 25 24 24 22 23 24 23 23 22 24 23 23 24 25 25 25 25 26 26 28 27 27 26 25 25 24 23
17 22 23 19 20 21 22 23 24 25 22 26 26 26 25 25 25 25 26 26 26 24 23 23 22 21 21 21 21 18 22 24 25 26 25 24 26 27 25 24 24 24 24 23 23

GFSSW_925_temp_042.txt.gz
Temp
12 12 12 13 13 14 14 14 14 14 11 12 13 10 13 13 14 15 17 23 22 22 22 23 26 26 27 28 30 31 28 28 29 29 21 21 19 23 28 28 28 28 26 25 21
12 12 12 13 13 14 14 14 14 13 12 12 13 13 14 12 11 17 22 23 23 23 22 25 27 28 27 28 29 29 28 29 29 24 21 19 18 22 29 28 27 26 25 22 20
12 12 12 13 14 13 13 14 14 14 13 11 11 14 16 12 17 26 25 25 24 23 22 26 28 29 28 29 29 29 28 30 30 27 23 20 20 25 28 25 24 24 24 22 21
12 12 12 13 13 14 13 14 14 14 12 11 12 15 16 12 24 26 25 24 23 22 23 25 28 27 27 28 30 28 30 30 30 27 27 27 28 26 26 23 19 20 23 22 23
12 12 12 12 13 13 13 14 14 13 12 12 13 15 14 20 23 26 25 24 23 22 25 27 27 28 27 29 29 29 30 31 30 30 30 29 26 26 25 26 21 20 22 23 25
12 12 12 12 13 13 13 14 13 13 11 12 14 15 14 20 27 26 25 23 24 24 26 28 28 29 28 29 29 30 30 30 30 29 30 28 25 26 28 29 26 25 24 25 26
12 12 12 12 13 13 13 13 14 13 12 13 14 13 18 21 26 27 26 26 26 26 27 28 29 28 29 28 30 29 28 28 29 29 27 27 26 26 28 28 27 26 26 26 27
12 12 12 12 12 13 13 14 14 13 13 14 14 13 19 25 25 26 27 27 27 27 27 28 28 28 27 28 28 28 28 26 28 28 29 27 24 27 28 28 26 26 26 26 26
12 12 12 12 12 13 13 14 14 13 14 13 13 16 22 25 26 27 27 28 28 27 27 28 27 27 27 26 26 27 25 26 27 30 29 27 25 28 29 28 27 27 27 26 26
12 12 12 12 12 13 13 14 13 12 14 13 16 19 22 26 28 28 29 28 28 28 27 26 27 26 26 26 24 24 26 27 27 29 29 27 27 29 29 29 28 27 27 27 26
12 12 12 12 12 13 13 13 15 16 16 22 24 24 28 28 28 28 29 29 28 27 25 26 25 25 26 27 27 28 27 28 29 30 29 28 28 29 29 29 28 28 27 27 27
12 12 12 12 12 12 11 17 23 21 20 23 24 25 26 26 26 29 29 28 27 26 22 24 25 27 26 27 28 28 27 27 29 29 28 29 29 29 29 29 29 28 27 26 26
12 12 11 12 12 11 13 17 19 20 21 25 25 25 26 27 26 28 29 29 28 25 25 24 25 25 28 28 28 28 25 25 26 28 29 29 28 28 29 29 29 29 28 28 27
11 11 11 11 11 14 16 17 17 19 20 25 26 26 27 28 26 29 30 29 28 26 25 23 23 25 27 28 29 26 26 27 27 27 26 26 25 28 28 28 29 29 28 28 28
11 11 11 12 14 18 21 20 20 19 19 27 26 28 28 26 28 28 30 29 26 26 27 21 21 25 26 27 28 24 26 26 28 28 25 24 23 24 27 27 28 28 28 28 28
11 11 11 9 10 15 17 19 19 19 20 26 27 26 27 27 27 29 28 29 29 27 26 22 25 26 28 28 28 26 26 27 28 27 23 22 22 24 25 24 24 27 27 27 27
11 11 11 13 16 18 17 19 18 19 26 26 26 26 26 26 27 28 27 26 26 25 25 26 26 28 28 27 28 28 27 24 17 18 24 29 27 28 24 27 28 27 27 26 26
10 10 11 12 14 16 17 16 19 23 24 28 27 26 25 27 27 27 27 26 27 27 27 25 24 27 28 28 22 24 27 20 20 18 24 27 26 27 28 28 28 28 27 26 25
10 9 10 11 13 15 16 16 20 24 26 27 27 25 25 27 27 27 26 26 27 28 25 23 23 24 28 29 26 25 26 27 25 22 22 25 27 27 28 27 27 27 26 25 24
9 11 12 12 13 14 15 17 22 25 27 28 26 26 25 26 26 26 26 27 27 29 26 23 19 22 26 27 27 27 28 25 25 22 22 26 27 25 26 26 26 26 25 24 24
10 12 16 13 12 14 17 19 21 26 27 26 26 26 26 26 27 26 26 28 28 28 28 22 19 21 26 26 26 26 25 26 26 25 22 22 25 28 27 27 26 26 26 24 24
11 13 16 14 14 16 18 20 21 24 27 26 27 27 27 27 26 26 26 27 28 28 26 27 26 24 25 28 28 27 26 26 22 23 23 22 23 28 27 27 27 26 26 25 25
12 15 14 15 16 17 19 20 22 24 25 25 25 27 28 27 26 27 27 25 26 27 26 27 25 23 24 26 27 26 26 27 26 24 22 20 23 28 27 27 27 27 26 26 25
13 14 12 14 19 19 19 20 21 24 25 26 26 27 27 26 27 26 26 24 24 25 18 23 25 24 23 25 26 25 25 26 26 21 22 22 25 27 27 26 27 26 26 26 25
12 16 15 14 16 19 20 22 22 23 25 26 26 26 26 24 26 25 26 23 23 17 23 24 23 25 26 26 26 25 26 26 25 25 23 23 25 27 28 27 27 27 26 26 26
13 16 18 19 18 19 19 21 23 24 25 24 25 26 26 25 26 25 26 24 24 23 24 24 23 23 23 24 25 24 24 25 25 26 26 26 26 28 28 26 26 26 25 26 25
12 16 18 17 19 19 20 22 22 25 25 26 26 26 25 26 27 26 27 26 26 24 23 24 22 21 20 21 21 18 22 23 24 26 26 24 26 27 26 26 25 25 25 24 24

GFSSW_925_temp_045.txt.gz
Temp
12 12 12 12 14 13 14 14 14 15 15 15 15 14 13 13 15 15 13 22 22 23 23 23 23 23 24 22 23 25 21 22 23 23 22 20 20 18 18 18 24 23 21 18 16
12 12 12 12 13 14 14 13 14 14 15 15 15 14 13 13 12 14 25 24 22 22 22 22 22 24 22 23 23 23 20 23 26 21 20 19 22 20 21 20 20 19 17 16 16
12 12 12 12 13 14 14 14 14 14 15 15 15 15 15 13 14 22 25 25 23 23 23 23 23 23 24 24 23 23 23 25 27 24 20 19 20 23 22 23 19 21 20 16 17
12 12 12 12 13 13 13 14 14 15 15 15 15 15 14 13 21 25 25 25 23 23 22 23 23 23 24 23 23 24 25 26 26 23 21 20 22 23 23 23 19 17 18 18 18
13 12 12 12 13 13 13 13 14 14 15 15 14 13 14 15 18 25 25 24 23 22 22 23 23 24 23 24 24 25 26 27 26 23 23 22 19 22 22 20 20 20 19 18 19
12 12 12 12 12 13 13 14 14 14 14 14 14 12 11 16 24 25 25 24 23 23 24 24 24 25 25 25 24 26 26 28 28 26 26 23 20 23 22 19 20 20 18 18 19
12 12 12 12 12 13 13 14 14 14 14 14 13 10 14 16 25 25 24 26 25 25 23 25 26 26 24 24 25 26 25 26 27 26 24 23 20 21 22 20 20 19 20 20 20
12 12 12 12 12 13 13 14 14 14 14 13 11 10 13 23 24 24 26 26 26 25 26 27 27 25 26 24 24 24 25 24 27 25 24 25 21 22 21 22 20 21 21 22 22
12 12 12 12 12 13 13 14 14 14 14 13 11 11 16 23 24 25 26 26 27 27 27 27 26 24 24 23 20 23 23 25 25 26 23 23 22 23 22 23 22 21 22 22 22
12 12 12 12 12 12 13 14 14 13 14 11 12 14 17 23 26 26 27 27 27 26 26 25 23 22 21 21 20 23 24 24 23 25 24 23 23 23 23 24 23 21 21 21 22
12 12 12 12 12 12 13 14 12 12 13 16 18 19 23 26 28 27 28 27 27 23 22 19 21 20 22 23 25 25 24 23 24 26 24 24 23 23 23 23 22 22 22 21 21
12 11 12 12 12 12 12 12 17 18 16 18 19 21 22 24 25 25 28 25 24 21 20 20 18 23 25 25 24 24 24 24 25 26 26 24 24 24 24 23 23 22 21 21 21
12 11 11 12 12 12 12 14 18 17 16 20 22 21 22 25 24 24 26 25 24 20 20 19 20 23 25 24 24 24 23 24 23 23 25 25 23 24 25 25 24 24 23 23 22
11 11 11 12 11 13 13 18 18 17 14 20 23 23 24 25 23 26 27 26 26 23 21 21 23 23 24 23 25 23 25 24 24 22 21 24 20 24 24 25 25 24 23 22 21
11 11 11 12 11 12 17 17 19 17 15 23 24 26 25 24 25 25 28 26 24 25 23 21 21 22 22 23 25 24 24 24 24 24 23 23 19 21 24 24 25 24 22 22 22
11 11 10 10 10 15 17 17 18 16 15 24 25 24 24 24 25 26 26 28 26 25 23 23 23 24 23 24 24 25 24 24 20 20 20 23 22 20 23 24 24 27 25 23 20
10 11 10 11 13 15 16 15 15 15 23 24 23 24 23 24 24 25 24 24 22 22 21 23 24 23 24 21 24 23 23 19 17 16 17 23 22 21 24 25 23 24 25 20 20
10 10 10 11 14 13 14 14 15 20 21 26 24 24 23 24 24 24 23 22 22 22 21 21 21 22 23 24 24 22 22 18 18 16 17 23 22 23 24 24 24 24 22 21 20
9 9 9 11 13 12 13 15 15 20 23 24 25 23 22 24 24 23 23 22 23 23 21 20 20 22 24 23 24 21 20 23 19 17 15 20 24 24 24 25 22 22 21 19 19
8 9 10 11 12 11 13 15 17 21 23 23 23 23 22 23 23 23 22 24 24 24 22 22 20 19 22 22 24 23 23 21 19 20 20 21 23 21 22 24 22 21 20 19 19
9 10 12 11 11 11 13 15 17 20 22 23 24 23 23 23 23 23 23 25 24 25 22 19 20 18 20 21 22 23 22 23 22 18 17 16 19 24 22 22 22 20 20 19 19
10 11 14 12 11 12 13 15 17 20 21 21 24 24 23 23 24 23 23 24 24 25 23 21 18 17 19 21 23 25 23 21 15 21 18 13 17 24 23 22 22 21 21 20 20
10 12 11 13 12 12 14 15 17 19 20 22 23 24 24 23 23 23 23 22 23 24 23 23 20 16 20 21 23 24 23 24 22 17 19 14 17 23 24 24 23 21 20 20 20
10 11 11 12 15 14 14 16 17 19 20 21 22 23 22 22 24 22 21 22 22 20 18 21 22 20 17 21 22 23 23 23 22 14 18 17 20 21 22 22 22 23 23 19 20
9 13 14 13 12 15 16 16 17 18 20 21 22 22 22 22 23 23 21 21 22 18 22 21 20 23 22 22 23 24 23 23 23 21 18 19 21 21 22 22 23 21 22 24 22
10 12 13 14 15 14 15 16 18 19 20 21 21 22 22 22 22 22 22 21 20 20 21 21 19 21 21 22 21 20 21 22 21 22 22 22 22 22 23 21 20 21 21 21 19
9 11 15 13 14 14 15 17 18 20 21 22 22 21 21 22 23 22 22 21 21 19 19 19 18 15 18 17 18 15 19 20 21 21 22 21 20 19 19 19 19 19 19 19 19

GFSSW_925_temp_048.txt.gz
Temp
13 13 13 13 13 14 13 14 14 14 15 15 16 15 15 15 16 15 13 24 23 23 22 22 23 22 22 21 22 22 20 19 21 23 23 20 19 19 20 22 21 17 18 16 14
13 13 13 13 13 14 14 14 14 14 15 15 15 15 15 15 12 12 25 24 23 22 22 22 21 22 20 21 22 21 19 21 22 23 21 19 19 18 20 20 20 16 15 15 14
13 13 13 13 13 13 14 14 14 14 14 15 15 15 15 15 12 20 25 25 23 22 21 22 22 22 21 21 22 22 21 23 23 22 19 19 21 22 21 20 19 16 15 15 15
13 13 13 13 13 13 14 14 14 13 14 14 15 15 15 14 21 24 25 25 24 22 22 22 22 21 22 22 23 23 23 24 24 20 19 19 21 22 22 21 19 16 16 15 16
13 13 13 13 13 13 13 14 14 14 14 14 14 14 14 14 16 24 24 24 23 21 22 21 22 22 22 23 23 23 23 25 24 21 20 22 22 22 19 17 18 18 16 16 16
13 13 13 13 13 13 13 14 14 14 14 14 13 13 12 15 23 23 23 22 23 22 22 21 22 23 22 23 23 24 24 25 22 22 22 22 22 22 19 18 18 19 18 17 16
12 12 13 13 13 13 13 13 13 14 13 13 13 11 11 15 23 23 23 22 24 24 23 24 24 22 24 23 24 23 25 25 22 22 21 20 22 22 20 20 19 18 18 18 19
12 12 12 12 12 13 13 13 13 13 14 13 12 11 12 22 21 22 24 24 24 25 26 26 25 23 24 23 22 22 23 23 24 22 22 23 22 22 20 20 19 18 18 19 19
12 12 12 12 12 12 13 13 14 14 14 12 11 11 14 21 21 25 25 24 25 25 24 25 25 23 22 21 19 20 22 23 25 24 23 24 22 22 18 20 18 18 18 19 19
11 12 12 12 12 12 13 14 14 13 12 10 11 12 15 22 24 25 26 25 24 24 24 23 19 20 19 19 19 21 23 23 24 24 23 23 22 21 20 20 20 18 18 20 19
12 12 12 12 12 12 13 14 13 13 12 15 16 16 19 22 24 25 26 25 25 22 21 21 19 19 20 20 22 23 24 23 23 24 22 22 22 21 20 21 20 19 19 19 20
11 12 12 12 12 12 12 11 14 16 14 16 17 18 19 20 20 22 26 23 22 21 20 20 20 22 21 23 23 24 23 22 23 23 23 21 22 21 21 21 21 21 20 20 19
11 12 12 11 12 12 12 13 16 16 14 17 18 18 19 20 20 22 24 23 21 20 20 20 22 22 22 23 22 23 22 22 22 23 23 22 22 22 23 22 22 22 22 21 21
10 12 11 11 12 12 11 15 16 15 14 17 19 20 21 23 22 24 25 24 22 20 20 21 23 23 22 22 23 21 23 23 24 21 21 22 20 21 22 22 22 22 21 21 20
10 11 11 11 11 12 15 15 15 15 14 21 21 24 22 22 24 24 25 24 23 21 20 20 21 21 22 23 24 21 22 23 24 22 21 21 20 20 21 21 21 22 21 21 20
9 10 11 10 10 13 15 16 16 15 14 21 22 21 21 22 23 24 25 24 24 23 22 22 21 23 23 23 23 22 23 20 18 19 19 21 20 20 21 23 23 22 21 20 18
9 10 10 11 11 13 14 15 14 15 20 22 22 22 21 21 22 23 23 23 21 21 22 22 22 22 23 22 22 23 20 17 16 15 17 21 20 20 22 23 23 22 20 19 18
9 9 10 10 13 13 14 14 14 17 18 22 22 21 21 21 22 22 22 21 21 21 19 20 20 22 22 22 22 21 20 16 20 16 17 20 20 21 22 23 23 22 21 19 17
8 8 9 10 12 12 12 14 13 17 21 21 22 20 20 22 23 22 20 20 21 20 20 18 20 21 21 22 22 22 20 21 17 16 14 19 22 22 22 23 21 21 19 18 16
7 8 9 10 11 11 12 15 16 18 20 21 21 21 20 21 21 20 20 21 22 21 21 20 19 19 21 23 23 21 22 20 18 19 19 19 20 19 22 23 22 20 19 17 16
7 9 12 10 11 10 13 14 16 19 19 20 21 21 21 20 21 20 22 23 22 23 20 19 18 19 19 20 21 21 21 21 19 16 17 15 18 19 21 21 20 19 18 17 16
8 10 11 10 10 10 13 15 15 17 18 19 20 20 21 20 21 20 21 23 22 20 21 19 17 16 20 22 21 19 19 20 15 20 16 13 17 20 20 20 19 19 19 17 18
8 10 9 12 11 10 13 15 15 17 18 19 20 20 22 21 21 21 21 22 21 21 20 19 18 16 18 20 20 20 20 21 18 15 17 14 16 21 21 21 19 19 18 18 18
9 10 10 11 12 13 12 14 14 16 17 17 18 19 19 22 22 21 21 22 20 21 17 19 18 17 16 19 20 21 22 22 19 13 16 16 19 21 21 20 20 19 18 17 18
8 11 11 11 12 13 13 14 14 14 17 18 18 18 18 20 22 21 20 20 21 18 21 19 19 20 20 21 22 22 22 22 21 19 17 19 18 20 20 21 19 19 21 19 18
8 10 11 12 13 12 13 13 14 16 17 18 18 18 19 19 20 20 19 19 20 20 21 19 19 21 20 19 20 20 21 20 21 21 20 21 20 16 18 18 17 18 18 17 18
9 9 12 13 13 12 12 14 15 16 17 19 19 19 18 19 20 21 20 19 19 19 18 18 16 13 17 16 17 14 18 19 20 20 20 18 18 18 16 16 16 15 16 16 15

GFSSW_925_temp_051.txt.gz
Temp
13 13 13 13 13 14 14 14 14 14 14 14 15 15 15 15 16 15 13 23 22 22 22 22 21 22 20 20 20 18 18 18 21 21 22 19 19 19 19 20 17 17 17 16 15
13 13 13 13 13 13 13 14 14 14 14 14 15 15 15 15 15 12 24 23 22 22 22 21 21 21 19 21 19 19 17 20 21 22 21 18 19 19 19 18 16 16 15 15 15
13 13 13 13 13 13 13 13 13 13 13 14 14 15 15 15 14 20 24 24 23 22 21 21 21 22 21 20 21 21 20 22 22 22 18 18 18 19 19 20 17 17 15 15 16
13 13 13 13 13 13 13 13 13 13 13 14 14 15 15 14 20 23 23 24 23 22 21 21 21 20 21 21 21 22 21 22 23 19 19 18 19 21 20 20 17 17 16 15 15
13 13 13 13 13 13 13 13 13 13 13 14 14 14 15 14 16 23 23 24 22 21 21 21 21 21 21 21 22 21 23 23 21 19 19 20 21 21 17 16 16 16 16 15 16
12 12 12 12 13 13 12 13 13 13 13 13 14 13 12 15 22 22 22 23 22 21 21 21 22 22 21 21 22 23 22 20 20 20 21 21 20 21 16 16 15 16 16 16 16
12 12 12 12 13 13 13 13 13 13 13 13 13 12 11 16 22 21 22 22 22 22 21 22 23 23 22 22 23 23 23 21 21 21 22 22 22 20 17 17 16 15 16 16 16
12 13 12 12 12 13 13 13 13 13 13 13 12 11 12 20 21 22 23 23 23 23 22 23 24 22 23 22 21 22 22 21 22 21 22 21 21 19 17 17 17 16 17 16 16
11 12 12 12 12 13 13 14 14 13 13 12 11 11 13 20 19 24 24 23 24 24 23 23 24 21 20 20 19 19 20 22 22 21 21 21 22 20 18 18 18 17 17 17 16
11 11 12 12 12 12 13 14 14 12 11 10 10 12 16 21 22 23 24 24 24 22 22 22 18 19 17 18 18 20 21 22 23 24 22 20 22 19 18 20 19 16 17 18 17
10 11 11 11 12 12 13 14 13 12 11 14 16 15 17 20 22 23 24 23 24 22 21 19 19 19 20 19 20 20 21 22 23 23 23 21 21 20 18 19 18 17 17 18 17
9 10 10 11 11 11 12 11 14 14 13 14 15 16 18 19 19 20 24 23 21 20 20 19 19 21 21 21 22 22 22 21 22 22 22 20 20 21 18 19 19 19 17 18 18
9 10 11 11 11 11 11 13 14 13 13 16 16 16 18 18 18 19 22 21 21 19 19 19 22 22 22 22 22 22 22 21 21 21 22 20 20 21 20 20 20 20 19 19 18
9 10 11 11 10 11 11 14 14 13 14 17 17 17 19 19 20 21 23 23 21 20 18 20 21 22 21 22 22 21 22 21 22 21 20 21 19 20 19 20 20 20 19 19 18
9 9 10 11 11 11 14 14 14 14 14 20 19 21 19 21 23 22 23 23 21 20 20 20 21 21 21 22 22 21 21 21 22 21 20 21 19 19 19 20 20 20 19 19 19
8 9 10 10 10 13 13 14 14 13 14 20 20 19 20 21 22 23 23 24 22 20 21 20 21 21 21 23 22 23 22 19 18 18 18 20 19 18 20 21 22 21 21 20 18
8 9 9 10 11 12 13 13 14 12 18 20 20 20 19 19 21 22 22 20 20 19 20 21 21 22 21 22 21 21 18 17 16 15 18 20 19 19 21 21 21 20 21 18 17
8 8 8 9 11 12 13 13 13 16 16 19 21 19 19 20 21 20 21 20 20 20 18 19 19 21 22 21 21 21 19 16 20 16 17 19 19 20 21 19 22 19 18 17 17
8 7 8 9 10 11 12 14 13 15 19 19 21 20 19 20 20 21 19 19 20 19 20 18 20 20 21 21 22 21 20 20 16 15 14 17 19 20 20 22 20 20 19 17 15
6 7 9 9 10 11 11 15 15 17 18 18 19 19 18 19 20 19 18 20 21 20 20 19 20 19 20 21 20 21 20 19 16 19 18 18 18 18 21 22 22 17 17 17 16
7 8 11 10 9 10 12 14 16 17 18 18 19 20 19 19 19 18 20 21 20 20 20 18 19 19 20 20 20 20 20 19 17 15 16 15 17 18 20 21 21 20 18 16 14
6 7 9 10 10 10 11 14 15 17 18 17 18 18 20 19 19 19 20 21 20 18 19 19 16 16 19 21 20 20 19 18 14 18 14 12 16 20 19 19 19 19 19 16 15
7 8 9 11 11 11 12 14 14 16 16 17 18 18 18 20 19 19 19 21 19 19 18 18 17 16 18 19 18 19 18 19 16 13 15 13 16 19 18 19 18 18 17 16 16
7 7 9 10 12 13 12 13 13 16 15 16 16 17 19 19 19 20 20 20 18 19 17 18 17 17 17 19 19 20 20 19 17 13 16 14 18 20 20 19 18 18 16 16 16
7 8 11 10 11 12 13 13 13 14 15 16 15 16 17 18 20 20 19 20 20 16 18 18 18 18 18 20 20 21 21 18 19 18 17 18 17 18 18 19 17 16 19 19 16
8 8 9 9 12 12 13 13 13 14 15 15 16 18 17 17 18 20 19 19 19 20 19 18 17 19 19 18 19 20 20 19 19 19 18 18 18 18 17 16 14 15 15 15 16
8 8 8 11 11 11 12 13 13 14 15 16 16 17 16 17 17 18 18 18 19 18 17 17 15 14 17 15 17 14 16 18 19 19 19 17 17 17 16 15 14 14 14 14 14

GFSSW_925_temp_054.txt.gz
Temp
13 13 13 13 13 13 13 13 14 13 13 14 15 15 15 16 16 14 13 22 21 22 21 21 21 20 20 19 19 17 16 17 20 22 21 18 20 19 19 18 17 17 17 16 15
13 13 13 13 13 13 12 12 13 13 13 14 14 15 15 16 14 12 22 22 22 21 21 21 20 20 18 20 18 17 15 19 20 21 22 19 19 19 19 17 17 16 16 15 14
13 13 13 13 13 12 13 12 13 13 13 13 14 15 15 16 14 20 22 22 21 21 21 21 21 21 21 20 19 17 18 20 21 21 19 18 18 18 18 18 17 16 16 16 15
12 12 13 13 13 12 12 13 13 13 13 13 14 14 15 15 21 22 23 23 22 21 21 20 20 20 20 21 20 21 20 21 22 20 17 17 18 19 18 19 17 17 17 16 15
12 12 12 12 12 12 13 13 13 13 13 13 13 14 15 14 16 22 22 22 21 20 20 20 21 20 21 21 20 20 21 22 21 18 19 19 20 19 15 15 17 16 16 16 16
12 12 12 12 12 12 13 13 13 13 13 13 13 13 12 15 20 21 21 20 21 20 20 20 21 20 21 20 21 22 21 19 19 19 20 20 19 18 16 17 16 16 15 15 15
11 11 12 12 12 12 12 13 13 13 13 12 12 12 11 15 20 19 20 21 21 21 21 21 22 22 22 21 22 22 22 21 21 20 21 19 19 18 16 16 16 16 15 15 16
10 11 12 12 12 12 12 12 13 13 12 12 12 11 12 19 20 21 21 22 22 21 22 23 22 21 21 20 20 21 20 20 21 21 19 21 20 16 15 15 15 16 16 15 16
9 10 11 11 12 12 12 12 13 13 12 10 10 11 13 19 18 23 23 22 23 22 21 22 22 20 19 19 18 18 19 21 21 20 21 21 21 17 16 16 16 15 16 16 16
9 9 10 11 11 11 11 12 13 11 10 9 10 12 15 20 21 22 22 22 23 22 21 21 17 18 16 17 18 20 20 20 21 21 21 20 19 17 17 17 16 15 15 15 15
8 9 10 10 11 11 11 13 11 11 11 14 15 15 16 19 20 21 22 22 22 21 20 19 18 18 19 19 20 20 20 20 21 23 22 20 19 17 17 17 17 16 15 16 16
8 9 9 10 11 11 10 10 13 12 12 13 14 14 17 18 18 19 22 22 21 20 19 19 18 19 20 20 21 21 21 20 21 21 21 20 20 18 17 18 18 17 16 16 16
8 8 9 10 10 10 11 12 13 13 11 15 14 15 16 17 17 18 20 20 20 19 18 18 21 20 21 21 22 21 22 21 21 20 21 20 20 19 18 18 18 18 18 17 17
8 8 9 9 10 11 11 13 13 12 12 16 16 16 17 17 19 19 21 21 20 19 18 19 20 21 21 21 21 21 21 21 20 20 19 20 19 19 18 18 19 18 17 18 17
8 8 9 9 10 10 12 13 13 13 14 18 17 18 17 19 20 20 22 22 19 19 19 20 20 20 20 20 21 21 20 21 20 20 19 19 18 18 19 19 18 18 18 18 17
8 8 8 8 9 12 12 12 13 14 14 19 18 17 17 20 21 20 21 22 20 19 20 19 20 20 21 21 21 21 20 18 17 17 18 19 18 18 18 19 19 19 19 18 17
8 8 8 9 10 12 12 12 13 13 18 19 18 18 18 18 20 21 19 19 18 18 19 20 21 21 21 21 20 20 18 17 16 15 17 19 18 18 20 20 20 19 19 19 18
8 8 8 8 10 12 12 12 13 15 15 18 19 17 18 18 20 20 19 18 19 19 16 18 19 20 21 21 20 20 18 16 19 16 17 18 19 20 21 18 18 18 18 18 17
7 7 7 7 9 10 11 13 12 14 17 18 20 18 18 19 19 20 18 17 18 18 19 17 19 20 20 21 21 20 19 18 15 14 13 16 18 19 20 22 20 19 17 15 14
6 7 7 8 9 9 11 13 14 15 17 18 18 19 17 18 19 18 17 19 20 18 19 19 19 19 20 20 20 21 19 18 15 18 18 17 18 18 20 20 20 19 19 17 14
6 7 9 8 9 10 11 13 15 17 17 16 17 18 18 17 17 17 18 20 19 18 19 17 18 19 19 19 20 18 19 17 16 14 16 15 17 17 20 20 21 20 18 17 15
6 6 9 9 10 11 12 12 14 16 16 16 17 17 18 17 17 18 18 20 18 17 19 18 16 15 18 20 19 19 18 17 14 18 14 12 15 19 18 18 19 19 18 17 15
6 7 8 10 10 11 13 13 14 15 15 16 16 17 18 19 19 17 18 20 17 18 18 17 16 16 17 18 18 19 18 17 15 13 15 13 16 18 17 17 17 17 17 17 16
6 6 8 8 12 12 12 13 12 14 15 14 15 16 18 18 17 20 18 19 17 18 15 18 15 17 17 18 18 18 18 17 16 13 15 14 17 18 18 18 17 17 16 15 15
6 7 10 9 9 11 13 13 12 13 14 14 14 15 17 17 17 19 19 19 19 16 17 18 18 16 17 19 19 19 19 16 17 17 16 18 15 18 17 16 15 14 15 17 15
6 6 9 8 10 11 12 13 13 13 14 14 14 16 15 15 17 18 19 18 18 16 16 16 17 18 18 18 18 19 19 16 17 18 16 17 17 16 16 15 14 13 14 14 13
6 7 9 10 11 9 11 12 13 14 14 15 15 15 14 15 17 16 16 17 18 18 15 15 14 13 17 15 17 14 16 17 18 17 17 16 16 15 15 14 13 13 12 11 10

GFSSW_925_temp_057.txt.gz
Temp
13 13 13 12 13 12 12 13 13 13 13 13 14 14 15 15 16 15 13 21 21 21 21 20 20 20 19 20 20 19 22 21 22 22 24 20 20 19 19 19 18 18 19 17 15
13 13 13 13 12 12 13 13 13 13 13 13 14 14 15 15 14 12 21 21 21 21 20 20 20 19 21 20 20 22 21 22 23 23 23 20 21 20 20 19 18 17 16 15 14
13 12 12 12 12 12 12 13 13 13 13 13 14 14 15 15 14 21 21 21 21 21 21 21 21 21 22 21 20 19 23 22 23 23 23 22 20 20 21 20 19 18 16 15 15
12 12 12 12 12 12 12 12 13 13 13 13 13 14 15 14 21 21 22 22 21 21 20 20 20 21 22 22 21 22 22 22 24 22 20 21 21 20 20 20 18 19 17 15 15
11 12 12 12 12 12 12 12 12 13 13 13 13 13 14 15 17 20 21 22 21 20 20 20 21 21 22 21 21 21 22 22 22 21 20 20 20 20 18 17 18 18 16 16 16
11 11 12 12 12 12 12 12 12 12 12 12 12 13 12 15 20 20 20 20 21 20 20 20 21 21 22 21 22 22 22 21 20 20 20 21 20 20 17 17 17 17 17 17 16
9 11 11 11 12 12 12 12 12 12 12 12 12 11 11 16 20 19 19 20 21 21 20 21 21 22 22 22 22 22 22 22 21 21 21 21 21 21 18 17 16 17 16 16 16
9 9 10 10 11 11 12 12 12 12 12 12 11 11 13 19 19 20 20 20 20 20 21 21 21 21 21 21 21 22 21 22 22 22 20 21 23 19 17 17 18 16 17 17 17
8 8 9 10 11 11 11 11 12 12 12 10 10 10 14 18 18 21 21 21 21 20 20 21 21 20 21 21 21 21 22 22 23 22 21 22 23 19 16 17 18 17 17 17 17
8 8 9 9 11 11 11 11 12 11 10 9 9 12 15 20 20 20 21 21 22 20 20 20 19 21 20 21 21 22 21 21 23 23 22 22 23 18 17 17 18 18 17 18 18
8 8 8 9 10 10 11 12 12 11 10 14 15 15 17 19 19 20 20 21 21 21 21 19 21 21 22 20 21 21 21 22 22 23 22 22 22 20 17 18 18 18 18 18 19
7 8 8 9 9 10 10 11 12 12 12 13 14 14 16 17 18 19 21 21 21 21 19 20 21 21 20 20 20 21 22 22 22 22 22 21 23 21 18 18 19 19 19 19 19
8 8 8 8 9 9 10 12 12 12 11 14 14 15 16 17 17 18 20 20 20 19 19 20 21 19 21 21 21 22 22 21 22 21 21 22 22 21 19 19 19 19 20 20 20
8 7 8 8 9 10 11 12 12 12 12 15 15 16 16 17 18 19 20 21 20 21 18 20 20 20 20 21 21 21 22 21 21 22 22 21 22 21 20 19 19 20 20 20 19
8 8 8 8 8 9 11 12 12 12 15 18 16 17 16 18 20 19 20 21 20 19 20 21 20 20 20 21 21 22 21 21 21 21 21 20 22 23 20 21 21 21 21 20 20
8 8 8 8 7 10 11 11 12 13 13 18 17 16 17 18 20 19 21 20 20 19 19 20 20 20 21 21 20 20 20 19 19 19 21 20 21 23 23 23 22 22 22 20 21
8 8 8 8 9 10 10 12 13 13 17 18 18 17 17 18 19 19 19 20 20 19 19 20 20 21 21 21 21 20 21 20 20 20 20 19 20 23 22 22 22 23 22 21 21
8 7 7 8 9 10 12 11 12 14 15 18 18 17 18 18 19 19 19 20 19 20 19 20 20 21 20 22 22 21 21 20 20 20 20 19 21 24 22 22 20 20 20 20 20
8 7 7 7 8 9 11 12 14 14 16 17 18 17 17 18 19 19 18 21 20 19 21 18 20 20 20 20 22 20 21 20 17 15 18 20 21 23 21 22 21 21 20 20 19
7 6 7 8 8 8 10 13 14 15 17 17 17 18 17 18 18 19 18 19 19 19 20 19 20 19 20 20 19 21 20 20 18 19 19 20 20 22 23 23 21 22 21 20 18
6 7 8 8 8 9 11 13 14 16 16 16 16 17 18 17 18 17 18 19 20 18 19 18 20 19 19 20 21 20 20 18 19 18 20 19 21 20 22 22 22 21 20 20 19
6 6 8 8 8 10 11 13 14 15 16 16 16 16 17 17 17 18 19 20 18 19 20 19 18 18 20 19 19 20 20 20 19 19 16 16 19 20 20 20 19 20 20 20 19
6 6 6 8 8 10 12 13 14 15 16 16 16 16 17 18 18 17 18 19 16 19 19 18 18 18 19 19 19 20 19 18 17 16 17 18 20 20 19 21 20 20 20 19 19
6 6 7 7 11 11 11 12 13 15 15 15 15 15 17 17 17 18 18 19 16 18 15 19 17 19 20 21 19 18 18 18 19 18 19 18 21 22 22 21 21 20 18 18 18
5 7 9 8 8 10 12 13 13 13 15 14 14 15 16 17 17 18 18 18 17 15 17 19 19 17 18 19 19 20 19 18 19 20 20 21 18 21 21 21 19 16 17 16 16
5 6 7 10 9 9 11 12 13 14 14 14 15 14 16 16 17 16 17 18 18 16 17 16 18 17 18 17 18 19 19 18 18 18 18 19 19 19 18 17 16 15 16 15 14
5 6 9 10 9 9 10 12 13 14 14 15 15 15 14 15 16 17 16 17 17 19 16 16 15 16 18 16 17 16 18 18 18 18 19 18 20 18 17 16 15 14 13 13 11

GFSSW_925_temp_060.txt.gz
Temp
12 12 13 12 12 12 13 13 13 14 13 14 14 14 15 15 17 14 20 22 21 21 21 21 22 23 24 25 25 26 26 26 26 26 27 26 25 22 23 25 23 23 24 22 15
12 12 12 12 12 12 12 13 13 13 13 14 14 14 15 15 14 18 21 21 21 21 22 24 25 24 26 26 26 26 26 27 27 28 27 27 25 24 24 24 24 20 17 15 14
11 12 12 12 12 12 12 13 12 13 13 13 14 14 15 16 19 25 21 21 21 21 22 23 24 25 26 26 26 26 26 27 27 28 28 28 25 26 25 26 26 23 17 16 16
11 11 12 12 12 12 12 12 12 12 13 13 13 13 15 14 24 23 21 21 21 20 22 23 25 25 26 26 26 25 27 27 27 27 27 26 26 25 25 24 24 23 18 16 16
10 11 11 11 12 12 12 12 12 12 12 12 13 13 14 20 22 21 21 21 20 20 23 25 25 26 26 26 26 25 27 27 27 26 25 24 25 25 24 23 22 20 17 17 16
9 9 10 11 11 11 12 12 12 12 12 12 12 12 15 19 20 20 20 19 21 22 23 24 26 26 26 26 25 26 26 27 26 25 24 25 25 25 24 22 21 18 18 18 17
8 9 9 10 11 11 11 11 12 12 12 12 12 11 14 19 20 19 19 20 21 23 25 24 24 25 26 26 26 26 25 27 26 26 25 26 26 26 24 21 19 19 18 19 18
8 8 9 9 10 11 11 11 12 12 12 12 12 11 16 19 18 18 19 21 20 21 23 23 23 25 25 26 26 26 26 26 26 26 25 25 26 26 24 23 21 19 20 19 18
8 8 8 9 9 10 11 11 12 12 12 11 11 13 18 18 19 20 20 23 22 21 22 22 24 25 25 25 26 26 26 26 25 26 26 26 27 25 23 23 24 22 22 21 20
8 8 8 8 9 9 11 12 12 11 10 9 11 15 19 23 21 21 20 22 24 23 23 24 25 25 25 25 25 26 25 26 26 26 26 26 27 26 23 24 24 24 23 21 22
8 8 8 8 9 9 10 12 15 15 12 18 18 20 21 21 20 22 21 22 24 25 24 24 25 25 26 26 24 26 26 26 27 26 26 26 27 28 25 22 24 24 24 23 23
8 8 8 8 8 9 10 14 16 13 15 17 17 18 18 19 20 23 22 24 24 24 24 24 24 26 25 24 24 25 26 26 26 26 25 27 27 27 26 24 24 25 23 24 24
8 8 8 8 8 9 10 14 13 13 15 17 18 19 20 19 20 23 23 25 24 24 24 25 25 24 24 25 24 25 25 25 26 26 26 26 27 26 24 24 23 23 24 25 25
8 8 8 8 8 10 12 12 12 12 16 19 17 19 19 21 20 23 23 25 24 24 25 25 26 24 24 24 25 25 26 25 25 25 25 26 25 26 27 25 24 25 25 25 26
8 8 8 8 8 11 13 11 11 13 18 20 18 19 20 21 23 23 24 24 24 24 24 24 24 24 24 25 25 25 25 25 25 25 25 25 25 27 26 26 26 26 26 25 25
7 8 7 8 8 10 11 11 13 16 17 20 19 18 18 20 22 23 23 24 26 24 24 26 24 25 25 25 24 25 24 24 25 25 24 25 25 27 28 28 28 28 27 27 26
7 7 7 9 11 10 10 13 15 16 20 20 19 18 20 20 21 22 23 22 23 22 23 24 24 25 24 24 24 24 25 23 22 23 23 24 24 27 28 28 27 27 27 28 27
7 7 7 8 9 10 11 12 16 19 19 20 20 19 19 22 22 23 23 23 25 25 24 24 23 24 25 25 25 25 25 24 22 22 24 23 24 27 27 27 27 26 26 25 26
6 7 7 7 8 9 11 13 17 18 20 19 20 19 19 22 22 22 23 23 24 25 24 24 24 24 24 25 25 24 24 25 23 20 22 25 26 27 27 27 26 27 26 26 26
6 6 7 7 8 7 11 14 17 19 19 19 20 21 19 19 21 22 22 24 24 25 26 24 23 24 23 24 24 24 25 23 24 21 22 24 24 26 26 26 27 27 27 27 25
6 7 9 7 8 7 11 14 17 19 19 18 20 19 21 20 21 22 22 23 25 23 25 25 24 22 22 23 25 23 24 23 24 23 22 22 24 27 27 27 26 26 26 26 26
6 6 8 8 6 8 11 15 17 18 18 18 18 18 19 21 21 22 23 24 24 25 23 25 24 23 24 23 24 25 25 24 23 22 22 22 23 27 27 26 26 26 25 25 25
6 6 7 9 7 8 12 14 17 17 18 18 17 18 19 20 20 22 22 24 23 25 24 24 23 22 22 22 23 24 24 25 24 23 23 22 23 27 25 25 26 26 26 25 24
6 6 6 7 13 11 11 14 14 17 18 18 18 18 18 19 20 21 21 20 21 24 19 22 24 23 22 24 25 23 24 24 24 22 23 23 24 26 27 27 27 26 25 25 24
6 8 8 7 9 12 13 14 14 15 17 17 18 18 18 18 19 19 20 20 20 16 22 23 23 23 24 25 25 25 25 25 24 24 24 24 25 25 26 27 27 23 22 22 22
6 11 10 11 11 11 12 13 15 16 16 16 17 18 18 18 19 18 20 21 21 20 22 22 23 23 23 24 24 24 24 25 25 25 24 25 25 27 27 25 23 22 21 21 19
5 12 13 12 11 11 13 12 15 16 17 17 17 17 16 17 18 19 18 19 19 20 21 21 22 21 22 22 22 19 22 24 24 24 24 24 25 27 25 23 22 21 20 19 17

GFSSW_925_temp_063.txt.gz
Temp
12 13 12 12 12 13 13 13 13 13 13 14 14 15 14 16 18 19 22 24 23 22 22 24 24 26 27 29 29 29 28 28 29 29 28 28 28 26 26 27 27 27 26 18 15
12 12 12 12 12 12 12 13 13 13 13 13 14 15 16 16 15 22 23 22 22 22 23 25 27 27 28 29 29 28 29 29 30 30 29 30 29 28 26 27 27 24 21 17 15
11 11 11 12 12 12 12 13 12 12 12 12 13 14 16 16 21 27 23 22 22 22 24 26 27 28 28 29 29 29 28 30 30 30 30 30 30 29 27 25 24 26 20 17 16
9 10 11 11 12 12 12 12 12 12 12 12 12 14 16 16 25 25 22 22 22 21 24 26 27 27 27 28 30 27 29 29 30 30 29 29 30 29 29 27 26 25 20 17 17
9 9 9 10 11 11 12 12 12 12 12 12 12 13 15 21 24 23 22 22 21 21 24 27 27 28 28 29 29 28 29 30 30 30 29 29 28 29 28 27 24 21 18 17 17
8 8 9 9 10 11 11 12 12 12 12 12 12 13 17 19 24 22 22 20 22 23 25 27 28 29 28 28 28 29 29 29 30 29 29 28 29 28 28 27 22 19 18 18 18
8 8 8 9 9 10 11 11 12 12 12 12 12 12 17 20 23 23 22 23 24 24 27 27 28 27 28 27 29 28 27 29 29 30 29 29 28 19 27 25 23 22 21 20 19
8 8 8 8 9 9 10 11 11 12 12 12 12 14 18 21 22 22 22 23 24 25 25 27 26 27 27 29 28 27 28 27 28 29 29 28 20 19 27 25 23 24 23 22 23
9 8 8 8 8 9 9 11 11 11 12 12 13 15 20 20 21 22 22 24 24 24 24 25 26 27 28 26 27 28 27 26 26 29 28 28 23 21 28 27 26 25 24 23 23
9 9 8 8 8 9 9 11 12 11 11 12 14 17 20 24 24 23 23 24 25 25 25 25 26 26 27 27 26 27 28 28 28 27 28 28 28 26 28 28 28 26 25 25 24
8 9 8 8 8 8 10 13 16 16 16 19 22 21 24 24 23 24 24 24 26 26 25 26 26 26 28 29 28 27 28 28 29 29 28 28 28 29 28 28 28 27 26 25 25
8 8 8 8 8 8 9 15 19 16 18 21 20 21 22 23 22 25 24 24 24 25 26 26 25 28 28 27 26 27 27 28 29 28 27 28 28 28 29 28 28 28 27 26 26
8 8 8 8 8 8 11 14 16 16 17 21 22 22 22 23 22 25 25 25 25 25 26 26 28 28 27 27 26 27 27 26 26 26 28 28 28 29 29 29 28 28 28 26 26
7 7 8 7 8 12 14 14 15 15 18 22 21 22 22 23 22 25 26 26 26 26 27 26 28 27 27 26 27 26 28 27 27 27 26 26 24 26 29 28 28 27 27 26 27
7 7 7 8 10 13 16 16 15 14 18 25 22 22 23 22 26 25 26 26 26 26 27 26 27 26 26 27 27 27 27 27 27 27 27 27 27 25 29 29 29 28 27 28 28
7 7 7 7 9 10 12 15 15 17 18 23 22 20 21 22 24 26 25 26 27 26 27 27 28 27 27 28 27 28 26 27 27 27 24 26 27 26 28 29 30 30 29 29 29
7 7 7 9 10 11 10 12 17 18 23 23 22 21 22 21 22 25 24 24 24 23 24 26 26 27 27 26 27 26 26 24 23 22 24 26 27 27 27 30 30 30 30 30 29
7 7 7 8 10 11 11 12 16 21 22 23 23 21 21 23 22 24 24 24 25 26 26 24 24 26 27 27 26 26 26 24 22 23 21 27 26 27 30 30 29 30 29 30 29
7 7 6 8 9 9 8 12 18 21 24 23 23 21 21 22 23 23 23 24 25 26 25 25 25 28 28 27 27 26 25 27 25 25 24 26 28 29 29 29 29 29 29 29 29
6 8 7 8 8 9 8 12 18 22 23 23 22 23 22 22 21 22 23 25 25 27 28 27 25 27 27 27 27 26 27 25 25 22 23 26 27 27 28 28 28 29 29 29 29
6 7 9 8 8 8 8 13 17 22 23 22 22 23 23 22 22 22 24 25 26 26 28 27 26 25 25 25 26 25 25 26 25 23 23 24 26 29 28 28 28 28 29 29 29
7 7 9 8 7 10 10 14 16 19 22 22 21 24 23 23 21 21 23 25 26 27 25 27 26 24 25 27 28 27 26 26 24 24 25 24 25 29 29 29 29 28 28 29 28
6 7 8 8 8 11 13 14 14 17 20 21 20 21 22 22 22 21 22 25 26 26 26 26 24 24 25 25 26 25 27 27 26 26 24 22 24 28 29 28 28 28 29 28 28
6 6 7 8 12 13 13 14 14 16 19 21 21 21 20 20 22 22 22 23 23 25 21 24 25 24 24 25 26 24 26 27 26 24 24 25 26 28 28 28 29 29 29 29 28
6 8 8 8 9 13 14 15 14 15 18 20 20 20 20 20 21 21 23 21 21 19 23 25 24 25 26 27 27 27 26 26 26 26 24 25 26 28 28 28 29 28 28 27 26
6 11 11 12 10 12 13 14 15 17 18 17 19 20 21 20 21 21 22 22 22 23 23 25 23 24 24 26 26 26 26 27 27 27 26 27 26 29 29 29 28 27 26 26 24
7 12 13 11 11 12 14 14 16 17 18 19 19 20 20 20 19 19 19 20 21 22 23 24 23 23 22 25 25 23 25 26 26 27 27 25 27 28 28 28 27 27 26 25 22

GFSSW_925_temp_066.txt.gz
Temp
11 11 12 11 12 12 12 12 13 13 13 13 13 14 15 16 17 18 21 24 24 23 23 23 24 25 26 28 29 30 27 27 29 28 27 27 27 29 28 28 22 19 20 17 14
10 10 11 11 12 12 12 12 12 13 12 13 13 13 15 16 15 20 23 24 23 23 22 26 27 28 27 28 29 28 27 28 30 30 30 30 29 30 27 21 19 18 18 15 15
9 9 10 10 11 11 11 12 12 13 12 12 13 14 15 16 20 26 23 23 23 23 22 26 28 28 27 29 29 29 28 29 30 30 30 30 30 30 29 20 18 17 19 17 17
9 9 9 9 10 11 11 12 12 12 12 12 12 13 15 16 23 24 24 23 23 23 23 26 27 27 27 27 30 28 29 30 30 31 30 29 30 29 27 22 21 20 19 17 17
9 8 8 9 9 10 11 11 12 12 12 12 12 13 13 21 23 23 23 23 22 22 24 26 26 27 27 28 30 29 29 30 30 30 30 30 29 29 22 23 23 21 19 17 17
9 9 8 8 9 9 10 10 11 11 12 12 12 12 15 18 23 25 23 22 23 23 25 26 27 28 28 28 28 29 29 29 30 30 30 29 28 24 19 13 21 21 19 19 19
9 9 8 8 8 9 9 10 10 11 12 12 12 12 15 18 22 24 24 24 24 25 26 27 28 28 28 27 29 29 28 29 29 29 29 30 27 22 19 17 21 20 20 20 19
9 8 8 8 8 8 9 9 10 11 11 12 12 12 16 21 23 23 23 24 25 25 25 27 27 27 27 28 28 28 28 26 29 29 29 29 26 21 20 20 22 23 22 21 21
9 9 9 8 8 8 8 10 10 11 11 12 11 14 18 22 22 22 24 25 25 25 26 26 27 26 27 26 26 27 26 27 28 29 29 28 23 19 20 22 20 24 24 23 22
8 8 9 9 8 8 8 10 13 10 12 12 14 16 19 22 25 24 24 24 26 25 25 25 25 24 26 25 24 27 27 28 28 28 29 28 21 19 20 22 22 26 24 24 23
8 8 8 8 9 8 8 12 15 14 14 18 20 19 24 25 25 25 25 24 25 25 23 25 24 24 26 27 27 28 27 27 28 29 28 28 28 24 22 25 26 26 25 24 24
8 8 8 8 9 9 8 12 19 18 17 19 19 20 21 23 23 25 26 24 24 24 25 25 23 26 28 28 28 27 27 27 29 29 28 28 28 26 26 28 29 27 26 25 25
8 7 8 8 8 8 9 12 16 17 17 19 21 22 22 22 22 24 26 25 24 24 25 24 26 28 27 28 26 27 27 26 26 28 28 28 27 28 29 29 29 29 28 26 26
8 7 7 7 8 10 12 14 14 16 16 20 23 23 24 23 22 24 26 25 25 24 25 26 28 28 28 27 27 26 28 28 28 27 26 27 23 26 28 28 28 29 28 27 27
7 7 7 7 11 12 15 15 17 16 16 25 26 24 25 22 25 24 25 26 24 25 25 26 27 27 26 27 28 27 27 27 27 27 27 26 24 27 27 28 28 28 28 26 26
7 7 7 7 8 10 12 11 14 15 17 23 23 22 23 23 23 27 24 26 26 25 27 27 29 28 28 28 28 28 27 27 27 26 24 27 25 25 27 27 29 29 28 27 27
7 7 7 8 9 11 11 10 13 15 22 23 23 23 22 22 22 24 24 24 24 23 24 26 26 28 28 27 28 27 26 23 23 23 24 27 26 27 26 27 29 30 28 27 28
7 7 7 8 9 10 11 10 13 19 20 25 25 23 22 23 23 23 24 23 24 25 24 23 23 27 28 27 26 26 26 24 21 18 21 22 25 28 29 30 30 30 30 30 29
7 7 7 8 8 9 9 10 13 18 23 22 24 23 22 23 24 23 23 24 25 25 24 23 24 28 28 27 27 26 25 27 21 20 20 21 27 29 30 29 29 29 29 29 29
6 7 8 9 8 8 8 10 15 18 20 23 22 23 22 23 23 23 23 25 25 25 26 25 24 27 28 28 28 27 27 25 25 19 22 26 26 27 28 28 29 29 29 29 29
6 6 9 9 8 8 8 11 14 18 20 21 22 23 23 24 24 23 23 24 24 25 25 25 25 26 28 26 26 26 25 25 26 26 23 23 24 24 27 29 28 29 29 28 28
6 7 9 9 7 8 9 12 14 17 19 19 20 23 23 24 24 23 23 24 25 24 24 25 25 24 26 27 28 27 26 26 24 24 24 22 24 25 26 29 29 28 29 29 29
6 6 9 9 8 8 11 12 14 16 18 19 19 22 23 22 23 23 23 24 24 23 22 24 24 23 23 26 27 26 27 27 27 26 24 21 24 29 29 29 29 28 29 28 28
6 6 7 8 11 11 11 12 13 15 17 19 20 21 21 21 23 22 23 22 21 23 20 22 25 24 23 24 26 25 26 26 26 22 24 24 25 27 28 27 28 28 28 29 28
5 7 9 8 8 11 12 14 14 14 16 18 18 19 19 20 21 22 23 22 22 22 22 24 23 25 25 26 26 26 26 26 26 26 24 25 26 27 28 28 29 28 28 27 28
4 11 11 13 10 10 12 13 15 15 16 16 17 19 18 19 21 22 23 21 20 22 22 22 23 24 23 25 26 26 27 26 26 26 27 27 26 29 29 29 28 28 27 27 27
5 11 12 10 10 9 11 13 14 16 17 18 18 19 17 17 16 19 19 20 20 21 21 21 21 22 21 24 24 22 25 27 27 27 27 26 27 28 28 28 28 28 28 26 25

GFSSW_925_temp_069.txt.gz
Temp
10 10 11 11 11 11 12 12 12 12 13 13 13 13 14 15 17 17 17 22 23 23 23 23 22 23 23 22 23 24 20 20 22 24 26 26 26 27 25 21 19 19 18 17 14
9 9 9 10 10 11 11 11 11 11 12 13 12 12 14 15 15 16 23 22 23 23 23 22 22 23 21 22 23 22 19 22 25 26 26 26 25 26 24 21 19 16 16 14 14
9 9 9 9 9 10 10 11 11 12 12 12 12 12 13 15 15 23 24 22 23 23 23 23 23 24 23 23 23 23 22 25 26 26 27 26 26 19 21 18 13 19 16 15 15
9 8 8 8 9 9 9 10 11 11 12 12 11 11 13 15 20 24 24 23 23 23 22 23 23 23 23 22 24 23 25 26 26 27 26 26 25 16 14 14 17 18 16 16 15
9 9 8 8 8 8 9 9 10 11 11 12 11 11 12 15 18 22 23 23 23 23 21 22 22 23 22 24 24 24 25 27 26 26 26 27 20 19 16 17 17 18 17 16 16
9 9 9 8 8 8 8 9 9 10 11 11 11 11 12 13 20 21 22 23 23 22 22 22 23 24 24 24 24 25 25 25 26 26 26 27 22 22 16 18 19 19 17 16 16
9 9 8 8 8 8 8 8 9 9 10 10 11 10 12 13 21 22 21 22 23 23 22 24 25 23 23 23 25 25 24 24 25 25 25 27 23 19 18 19 19 19 19 17 17
9 9 9 8 8 8 8 8 9 10 10 10 11 10 12 16 20 19 22 22 23 24 24 25 25 24 24 24 24 23 23 22 24 25 26 25 22 19 17 19 18 18 18 18 17
8 8 9 9 8 8 8 8 9 10 10 11 9 10 13 19 18 21 21 22 23 24 25 25 25 23 24 21 20 21 21 22 24 26 26 24 19 20 20 20 19 19 19 19 16
8 8 8 9 9 8 8 8 14 11 11 11 12 12 15 19 22 23 22 22 23 23 23 23 21 20 20 19 19 21 23 23 23 26 26 23 20 20 19 21 20 16 17 19 15
8 8 8 8 9 9 8 8 12 10 11 14 14 15 20 22 22 24 23 23 23 22 20 21 19 20 20 21 23 23 24 23 25 27 25 24 21 20 20 20 17 17 17 18 17
7 8 7 8 8 8 8 8 11 13 12 14 16 17 18 20 20 22 25 21 20 20 21 20 20 22 23 24 24 25 24 23 26 26 27 25 23 21 20 19 20 18 18 19 18
7 7 7 7 7 8 8 8 12 12 11 16 18 18 18 19 18 20 22 22 21 20 21 20 22 23 23 24 24 24 24 23 24 25 25 25 23 21 23 22 21 21 22 21 18
7 7 7 7 7 9 9 11 12 12 12 15 18 19 20 21 19 21 22 22 21 21 22 21 23 24 24 24 25 24 25 26 25 24 21 23 20 24 24 24 24 24 22 21 19
7 7 7 7 9 9 12 10 11 13 10 20 21 23 22 20 21 21 22 21 21 22 22 22 23 23 23 25 25 24 26 26 25 23 23 23 20 22 23 24 24 22 22 22 21
7 7 7 7 7 9 10 10 10 11 12 19 21 21 21 20 21 22 21 21 22 22 22 22 24 24 25 26 26 26 26 25 24 22 19 22 21 19 22 24 25 24 23 22 22
7 7 7 7 8 9 9 9 11 11 19 20 20 21 20 20 20 21 20 20 19 19 20 22 23 25 26 24 25 25 24 19 18 17 17 23 22 22 24 25 25 24 23 23 23
7 7 7 7 8 8 9 9 11 15 16 21 21 21 20 21 20 20 20 19 20 21 21 20 20 24 26 25 24 23 22 18 19 17 18 21 21 23 25 25 27 25 25 23 23
7 6 6 7 8 8 8 9 11 14 18 17 19 19 20 21 21 20 19 20 21 21 20 20 21 26 25 26 25 23 21 22 18 18 16 19 22 25 25 25 26 27 23 23 23
6 6 6 7 8 8 8 9 11 14 17 18 16 19 20 20 20 20 19 21 21 22 23 22 21 24 25 25 25 24 25 22 19 16 17 20 21 22 22 24 25 25 25 24 23
6 6 7 7 8 7 7 9 11 14 15 16 16 16 18 17 21 20 20 22 22 22 23 22 21 21 23 23 24 23 23 23 22 19 17 18 19 21 22 25 25 23 23 23 23
7 6 7 7 7 7 8 10 11 13 15 14 16 16 16 17 17 21 21 21 22 22 21 22 20 19 20 23 26 24 23 22 18 20 19 16 18 24 22 25 23 24 24 23 22
7 6 7 8 7 7 9 10 11 12 13 14 14 17 18 17 16 20 21 22 22 21 20 20 18 17 20 23 25 24 23 24 23 20 19 15 18 23 23 26 24 23 23 23 23
5 6 6 7 8 8 9 9 10 11 12 14 14 15 16 17 17 18 18 21 22 21 18 20 20 19 18 20 23 22 23 24 22 17 19 18 21 23 24 25 26 24 24 22 23
4 6 7 8 7 8 10 11 10 11 12 13 14 14 14 15 15 17 17 17 20 17 19 19 18 19 20 22 23 23 23 23 23 22 19 21 22 23 23 23 24 24 23 23 23
3 6 8 9 9 8 9 9 11 11 13 12 12 14 15 15 16 14 14 16 15 21 19 19 18 19 19 22 23 22 23 23 24 23 23 23 22 24 24 24 24 24 24 24 22
4 8 9 9 9 7 8 9 10 12 13 15 14 14 14 15 15 14 13 14 15 17 18 19 18 18 17 20 21 18 21 21 23 24 23 21 22 24 24 25 24 22 23 22 21

GFSSW_925_temp_072.txt.gz
Temp
9 9 9 10 10 10 10 11 11 11 11 12 12 12 12 13 17 18 16 22 23 23 23 22 21 22 21 20 21 21 18 18 19 21 22 24 25 22 20 19 18 17 17 15 14
9 9 8 8 9 9 9 10 10 11 11 12 12 12 11 13 14 14 24 23 22 22 22 22 21 20 19 20 21 19 17 19 21 22 23 24 24 22 17 15 16 17 15 14 14
9 9 8 8 8 8 8 9 9 10 11 11 11 11 11 12 13 19 24 23 22 22 22 22 22 22 20 21 20 21 20 23 23 23 21 24 19 16 16 15 15 17 16 15 15
9 9 9 8 8 8 8 8 9 9 10 10 10 11 11 13 18 23 23 23 22 22 22 22 22 21 21 21 21 22 22 23 24 24 24 25 17 18 16 18 17 17 16 15 15
9 9 9 9 8 8 8 8 8 9 9 10 10 10 11 12 15 22 21 21 22 21 21 20 21 22 21 22 22 22 22 23 24 23 24 24 20 18 17 17 17 17 16 15 14
9 9 9 8 8 8 8 8 8 8 9 9 10 9 11 11 19 20 20 21 22 21 21 20 21 22 21 21 21 23 22 22 23 23 24 23 19 20 17 17 18 17 16 15 15
8 9 9 9 8 8 8 8 8 8 8 9 10 9 12 12 21 20 20 18 20 21 20 22 23 21 22 21 22 23 22 22 23 24 24 21 21 19 19 17 18 17 16 15 15
8 8 8 9 9 8 8 8 8 8 9 10 9 9 11 15 18 17 19 18 21 21 21 23 23 21 21 22 22 22 21 20 22 24 24 23 22 19 17 18 17 17 16 16 16
8 8 8 8 8 9 8 8 8 9 9 10 8 9 11 16 16 20 19 17 21 22 22 23 22 21 21 21 19 19 19 20 21 25 23 23 21 19 17 18 18 17 17 16 15
7 8 8 8 8 8 9 8 11 10 11 10 10 11 13 17 20 21 22 19 20 21 21 21 20 19 18 17 17 18 20 20 20 23 22 23 21 18 17 18 18 17 17 16 15
7 7 7 7 7 8 8 9 10 10 10 12 13 13 16 19 20 21 21 20 20 20 19 20 18 19 19 18 20 20 20 20 22 24 25 23 19 18 17 18 17 16 16 16 15
7 7 7 7 7 8 8 7 8 9 8 12 13 14 15 17 17 18 21 20 19 18 19 19 19 21 20 20 20 20 20 20 22 24 25 23 23 18 18 19 18 18 17 16 15
7 7 7 7 7 8 8 8 10 9 7 12 15 15 15 17 15 17 19 19 19 18 18 19 20 22 21 20 21 21 20 21 22 24 23 23 21 20 20 19 18 19 19 17 16
7 7 7 7 7 8 7 9 10 9 8 13 15 16 17 17 17 19 20 20 19 19 19 19 21 21 20 21 21 20 22 23 23 22 21 22 19 20 20 20 20 19 18 18 17
7 7 7 7 8 7 9 9 10 10 10 17 17 19 18 17 18 18 20 19 18 19 19 19 20 20 20 22 23 22 23 23 24 22 21 21 19 19 21 21 20 20 19 19 18
7 7 7 6 6 7 9 9 10 11 9 16 19 18 17 18 19 20 18 20 20 20 20 20 22 21 22 23 23 24 23 23 20 20 19 21 19 19 19 22 22 21 21 20 18
7 7 7 6 6 8 8 9 10 10 17 17 19 19 18 17 18 20 18 18 18 17 18 20 20 22 22 21 22 23 21 19 18 17 17 21 20 20 22 22 22 22 21 20 19
7 7 7 6 8 7 7 8 10 13 14 17 17 18 18 18 18 19 18 17 18 19 18 18 18 21 22 22 22 22 21 18 19 17 17 19 20 21 23 24 23 22 22 21 19
7 6 6 7 7 7 7 8 10 13 15 15 16 16 17 19 18 17 17 17 19 19 18 18 18 22 24 24 24 22 20 21 17 17 16 18 20 21 23 24 23 22 22 21 20
6 6 6 7 7 6 6 9 10 13 15 14 13 16 16 16 15 16 17 19 19 20 20 20 19 22 23 24 24 22 22 19 18 17 17 18 19 19 23 25 24 22 19 21 21
6 7 7 7 6 6 7 8 10 12 12 13 13 14 15 15 16 16 17 19 19 19 20 20 19 19 22 22 21 22 22 21 20 18 17 17 18 19 21 23 23 21 20 20 20
7 6 6 6 6 6 6 8 10 11 12 11 13 14 14 14 14 15 16 18 19 21 19 20 18 17 20 22 22 21 22 21 17 18 17 15 18 22 20 23 22 21 21 20 20
7 6 6 7 7 7 8 9 9 10 11 11 13 14 15 14 13 16 17 18 19 19 19 18 17 17 19 21 22 21 22 22 20 18 18 16 18 22 21 22 22 20 20 21 21
4 5 6 6 7 9 7 8 9 11 10 11 11 12 12 13 14 15 16 17 16 19 17 19 17 19 18 19 20 20 22 23 21 16 18 17 21 22 22 22 23 20 21 20 20
3 5 6 7 7 8 9 9 9 9 11 11 10 11 11 12 13 15 15 15 16 17 17 18 17 18 19 20 20 20 20 22 22 20 20 21 20 22 21 21 22 21 22 20 20
3 5 6 8 8 7 8 7 9 10 11 10 10 12 12 12 12 13 14 13 15 15 16 17 17 17 17 19 19 19 20 22 21 21 21 20 20 22 22 20 21 22 22 20 21
5 5 8 8 7 7 7 8 9 11 11 11 11 10 11 12 13 14 13 14 14 13 14 17 16 15 15 18 19 16 17 19 20 20 21 20 21 23 23 22 21 21 21 20 19

GFSSW_925_temp_075.txt.gz
Temp
9 9 8 8 8 9 9 9 9 10 10 10 11 11 12 12 15 15 15 22 22 22 21 21 20 20 21 20 20 17 17 16 18 20 21 22 23 19 18 18 17 17 17 14 13
9 9 8 8 8 8 8 8 8 9 9 10 10 10 11 12 12 13 24 22 22 21 21 21 20 20 18 20 19 18 16 18 19 20 22 22 22 19 18 16 16 16 15 13 13
9 9 9 9 8 8 8 8 8 8 9 9 10 10 11 11 12 18 22 23 21 21 21 22 21 21 20 20 20 19 19 20 22 21 20 20 20 17 17 16 17 17 16 14 14
9 9 9 9 9 8 8 8 8 8 8 8 9 10 11 11 19 21 22 21 21 21 21 21 20 20 20 20 20 21 20 21 22 22 22 21 19 18 16 20 17 16 15 15 15
8 8 9 9 9 8 8 8 8 8 8 8 9 10 10 11 13 22 21 19 20 20 20 20 20 20 20 20 21 20 21 22 22 21 20 19 20 20 17 17 17 16 15 15 15
8 8 8 9 9 8 8 8 8 8 8 8 9 9 11 10 18 19 18 19 19 20 20 20 20 20 21 21 20 22 22 21 20 21 22 21 18 18 19 16 16 15 16 16 15
8 8 8 8 9 9 8 8 8 8 8 8 8 8 11 11 19 19 18 17 18 19 19 20 21 21 21 21 21 21 20 20 21 22 22 19 20 18 19 16 16 15 15 15 14
8 8 8 8 8 8 9 9 9 8 8 8 8 8 10 15 16 17 17 16 19 19 18 20 20 20 20 21 20 21 20 19 21 23 22 23 20 20 16 16 15 15 15 15 14
7 7 7 7 8 8 9 9 9 10 8 8 7 8 10 15 14 19 17 16 19 20 20 20 20 19 20 19 18 18 18 19 20 22 23 23 20 20 16 16 16 16 15 15 14
7 7 7 7 7 8 8 9 10 10 9 8 9 10 12 15 18 19 19 17 18 19 20 19 18 17 16 16 16 17 18 18 19 21 21 20 19 19 16 16 16 15 15 15 14
7 7 7 7 7 8 8 8 9 10 9 10 11 11 14 17 18 19 19 17 19 19 18 18 17 17 18 18 19 19 19 18 19 21 22 20 20 19 16 15 15 15 15 15 15
7 7 7 7 7 8 7 7 9 8 7 10 10 11 13 14 14 16 19 18 17 17 17 18 17 20 19 18 19 18 18 18 19 21 21 20 21 19 16 17 17 16 15 15 14
7 7 7 7 7 7 7 8 9 8 8 10 11 12 14 14 13 15 17 18 17 16 17 18 19 20 20 19 19 18 18 18 19 20 21 21 21 20 19 18 18 17 17 15 14
7 7 7 7 7 7 7 8 8 8 7 11 12 14 15 16 14 17 18 18 17 18 17 17 20 19 19 19 19 18 20 20 20 19 19 21 18 19 18 18 18 18 16 15 14
7 7 7 7 8 7 8 8 9 8 10 15 15 17 16 16 17 16 18 17 17 18 18 17 18 19 19 19 19 19 21 20 20 19 20 20 18 18 19 19 19 20 18 16 15
7 7 7 6 6 7 8 9 9 9 10 14 17 15 15 16 17 17 16 18 18 18 18 18 19 19 19 21 20 22 21 21 19 18 17 19 18 18 19 20 21 20 20 18 16
7 7 7 6 6 8 7 8 9 9 14 16 17 16 16 15 16 18 15 16 16 16 17 18 18 20 21 19 20 20 20 17 17 17 17 20 18 18 20 20 21 21 19 19 17
7 7 7 7 7 8 7 7 8 12 12 15 15 15 15 17 16 17 15 15 16 18 16 17 16 19 19 20 19 19 19 16 19 17 17 18 18 20 21 21 20 21 21 20 17
7 6 6 7 6 7 6 7 10 12 14 13 14 14 15 15 15 16 15 14 17 16 17 16 17 20 20 21 22 19 18 21 16 16 15 17 19 20 21 21 20 20 19 18 18
6 6 7 7 6 6 6 8 10 12 12 13 12 14 14 14 15 13 14 17 17 18 18 18 17 20 21 21 21 21 20 19 17 17 17 17 18 19 21 21 21 19 18 19 19
6 6 7 7 6 6 6 7 9 11 12 11 12 12 13 13 15 13 14 16 17 17 18 17 17 18 20 20 19 20 20 19 18 16 17 16 17 18 20 20 21 19 18 18 19
7 6 6 6 5 5 7 8 10 10 11 11 11 11 12 13 13 13 13 15 16 16 17 17 16 17 18 21 22 21 20 19 16 17 16 14 17 20 19 20 21 20 18 18 19
6 5 6 7 7 6 8 8 9 10 10 11 11 11 13 13 12 13 14 14 16 16 17 16 15 15 17 19 20 20 19 20 19 17 15 15 17 21 20 20 20 20 19 18 19
3 5 6 6 6 8 7 7 7 9 9 10 10 10 10 11 13 12 14 15 15 15 14 15 16 17 17 18 19 19 20 20 20 16 17 17 20 21 22 21 21 20 19 19 18
3 5 6 6 7 8 9 9 7 8 9 10 9 9 9 9 11 12 14 15 15 15 14 16 16 17 18 20 19 19 19 19 18 20 19 19 19 21 21 21 21 20 19 19 18
3 5 6 6 8 7 8 8 9 9 10 9 9 10 9 9 9 11 13 14 14 14 13 14 16 17 17 18 20 19 19 18 18 19 19 20 19 20 21 20 20 20 20 20 19
5 4 7 8 7 7 7 9 8 9 9 10 10 9 9 10 11 11 12 13 13 13 13 13 13 14 15 17 17 15 16 19 18 18 18 19 19 21 20 20 20 20 19 20 19

GFSSW_925_temp_078.txt.gz
Temp
9 9 9 8 8 8 8 8 8 8 8 9 10 10 11 12 13 13 13 22 22 21 21 20 19 20 20 18 18 16 16 15 18 18 20 21 22 19 17 18 17 17 16 14 14
9 9 9 9 9 8 8 8 8 8 8 8 9 10 11 11 11 10 21 20 21 21 21 20 18 18 17 19 17 17 15 17 18 19 21 20 21 22 19 17 17 16 14 14 13
9 9 9 9 9 9 8 8 8 8 8 8 9 10 11 10 11 17 20 21 19 20 21 21 20 19 20 19 18 16 17 18 20 19 19 20 19 18 17 19 16 18 14 14 14
8 8 8 9 9 9 8 8 8 8 8 8 8 9 11 11 19 19 19 19 20 20 20 20 20 19 19 19 19 20 19 20 21 21 21 20 19 18 16 19 17 16 14 15 14
8 8 8 8 8 9 9 8 8 8 8 8 8 9 10 10 12 20 19 19 19 19 19 19 19 18 19 19 19 19 20 20 20 19 19 20 19 19 16 17 16 14 14 15 15
8 8 8 8 8 8 9 9 9 8 8 8 8 7 9 10 18 17 18 18 18 19 19 18 19 19 20 19 19 20 20 19 19 20 20 21 19 18 19 15 15 14 14 15 15
7 8 7 8 8 8 8 9 9 8 9 8 8 7 9 12 19 17 17 17 17 17 18 19 20 20 20 20 20 20 19 18 19 20 20 19 20 17 18 15 15 14 16 16 15
7 7 7 7 7 8 8 8 9 9 9 8 7 8 9 14 15 16 17 15 17 18 17 19 19 19 19 20 19 20 19 19 20 21 22 21 18 20 17 15 14 14 15 16 15
7 7 7 7 7 8 8 8 9 10 9 7 7 8 9 14 13 18 16 15 16 16 18 19 19 18 19 17 17 17 17 18 18 20 21 20 19 20 15 15 14 14 14 15 14
7 7 7 7 7 8 7 8 10 9 8 7 8 9 11 15 17 18 17 16 17 15 17 17 16 16 15 15 16 17 17 17 17 20 20 19 18 19 17 15 15 14 14 14 14
7 7 7 7 8 8 7 9 8 8 8 9 10 11 13 14 16 17 17 17 17 17 16 16 15 15 17 16 18 18 18 18 17 19 20 19 17 19 18 15 14 14 14 14 14
7 7 7 7 7 7 7 7 8 8 7 9 9 9 11 12 12 15 17 16 16 16 17 16 16 18 18 17 17 18 18 18 18 19 19 18 19 19 17 16 15 14 14 14 14
7 7 7 7 7 7 7 8 8 8 8 9 10 11 12 13 12 14 16 16 16 15 16 17 18 18 18 17 17 17 17 18 18 18 19 19 18 19 20 16 17 16 15 14 14
7 7 7 7 6 6 7 8 8 7 7 10 11 11 14 14 13 15 17 17 16 16 16 16 19 18 18 18 18 17 18 19 18 18 17 19 17 18 19 18 18 17 15 14 14
7 7 7 6 7 7 8 8 9 7 11 15 14 15 15 14 16 16 17 16 17 16 17 16 17 17 17 18 18 18 19 18 18 17 18 18 16 17 19 20 19 18 16 14 14
7 7 7 6 6 7 8 8 8 9 10 14 15 14 14 15 15 16 16 17 16 17 16 16 18 17 18 19 19 20 19 19 18 16 15 18 17 17 18 20 21 20 18 15 14
6 7 7 7 6 8 7 7 8 8 13 14 14 14 14 15 15 16 15 15 15 15 16 17 17 19 20 18 18 18 18 16 16 15 16 18 17 20 20 19 19 20 19 17 15
6 7 7 6 7 8 8 8 8 11 11 13 14 14 15 15 16 15 14 13 15 16 15 16 16 17 18 18 18 17 17 15 18 16 17 17 18 19 20 20 19 19 19 17 14
6 6 6 6 6 7 6 6 9 10 12 13 13 14 14 15 15 14 14 14 15 15 16 15 15 18 19 19 20 18 17 18 16 15 15 16 18 19 21 20 20 18 18 17 14
5 6 6 7 6 6 6 7 9 11 11 12 12 13 12 12 13 13 13 15 15 15 16 17 16 17 19 19 20 19 18 17 15 16 16 17 17 18 20 21 20 20 18 17 16
5 6 7 7 6 6 6 6 9 10 10 10 10 11 12 12 12 12 14 15 14 15 15 16 16 17 19 18 18 18 19 19 18 16 17 16 17 17 20 19 18 18 18 17 16
6 6 6 7 7 5 6 8 10 9 10 10 10 10 10 10 12 12 12 14 13 14 14 16 14 14 17 19 19 19 18 19 17 17 15 15 19 20 19 18 19 18 19 17 16
6 6 6 7 7 6 7 8 8 9 9 10 9 10 11 11 11 12 13 15 14 14 13 14 13 14 16 18 18 19 19 19 18 15 15 16 18 19 21 21 20 19 18 18 17
3 5 6 7 7 8 7 8 7 8 9 9 10 10 9 10 11 11 11 14 14 14 12 13 13 14 15 17 17 18 19 19 19 15 15 15 19 20 21 20 20 20 18 17 16
3 4 6 6 7 7 8 8 8 8 9 9 8 8 8 8 8 9 11 12 14 14 13 12 12 13 15 17 18 19 18 19 18 17 17 19 18 21 20 21 21 20 20 19 18
3 5 6 5 8 7 8 8 9 9 9 8 8 9 9 8 9 10 11 12 11 13 13 12 11 12 14 16 17 17 18 17 17 17 18 18 17 20 19 19 19 20 20 19 18
3 4 6 7 7 7 7 8 8 10 9 11 9 9 8 9 9 9 10 10 10 10 12 11 10 11 15 16 17 15 16 17 18 17 18 16 18 19 19 19 18 19 18 19 18

GFSSW_925_temp_081.txt.gz
Temp
9 9 9 9 9 9 8 8 8 8 8 7 8 9 11 11 14 14 13 20 20 20 20 19 19 19 19 20 19 18 21 21 21 20 23 22 23 22 19 21 19 19 19 17 14
9 9 9 8 9 8 8 8 8 8 8 8 8 9 11 11 11 11 19 18 19 19 19 19 19 19 20 20 20 22 21 21 21 21 23 22 22 23 22 20 21 18 16 15 14
8 8 8 8 8 8 8 8 8 8 8 8 8 9 10 11 12 17 18 19 19 18 20 20 19 20 20 19 20 19 22 21 22 22 22 22 22 22 21 23 23 21 19 16 15
8 8 8 8 8 8 9 8 8 8 8 8 8 8 10 11 19 18 19 18 18 18 19 19 19 20 20 21 20 20 20 21 23 22 21 22 22 22 20 24 20 20 18 16 16
8 8 8 8 8 8 8 8 8 8 8 8 8 8 10 12 15 19 19 19 18 18 19 19 20 20 20 20 20 20 21 22 21 21 21 21 22 22 20 22 18 17 16 16 16
7 7 7 7 7 8 8 8 8 8 8 8 8 7 9 11 18 18 18 18 17 18 18 19 20 20 20 20 21 21 21 22 21 22 21 21 21 19 24 20 17 15 16 17 17
7 7 7 7 7 7 8 8 8 8 9 9 8 7 8 11 17 16 16 16 17 17 18 18 19 20 20 20 20 21 21 21 22 23 23 21 21 20 23 18 17 16 17 17 17
7 7 7 7 7 8 8 8 8 9 9 8 7 7 8 12 14 15 16 15 16 18 16 18 18 20 20 20 20 21 20 21 22 21 22 22 24 24 20 19 18 17 17 17 17
7 7 7 7 7 7 7 8 9 9 9 7 7 7 9 13 13 17 15 14 14 14 16 18 18 19 19 20 20 18 21 20 21 21 22 22 23 23 18 18 18 16 17 17 17
7 7 7 7 7 7 7 8 10 8 7 7 8 8 11 15 15 16 16 15 16 15 16 17 18 18 18 19 20 20 19 19 20 21 21 21 22 23 20 19 19 18 16 16 16
7 7 7 7 7 7 7 9 9 9 8 10 10 10 12 13 14 16 16 16 17 17 17 16 17 17 19 19 20 20 20 20 21 20 21 22 21 23 23 18 18 18 18 17 16
6 7 7 7 7 7 7 7 8 7 7 9 8 10 11 11 12 15 16 16 16 17 17 16 17 18 19 18 19 20 20 20 20 21 20 22 22 23 22 22 20 19 18 18 18
6 7 7 7 7 7 7 7 7 7 7 10 10 10 11 12 11 13 15 16 16 16 17 18 18 19 19 18 18 19 19 20 20 20 21 20 21 22 23 20 19 19 20 19 19
6 6 7 6 6 7 6 7 7 7 8 11 11 11 12 13 12 14 16 17 16 17 17 17 19 18 18 19 19 19 20 19 19 19 20 20 21 22 24 23 21 20 18 19 18
6 6 6 6 7 6 8 8 8 7 12 14 12 14 14 13 15 15 15 15 16 17 17 17 17 18 18 18 19 19 20 19 20 19 19 21 20 21 20 23 25 24 20 19 19
5 6 6 6 6 6 7 8 8 9 11 14 14 14 14 14 15 15 15 16 16 16 17 17 18 18 19 19 19 20 20 19 18 19 18 20 20 22 23 24 24 24 23 19 19
5 6 6 6 7 8 8 7 8 9 13 13 14 14 14 15 15 15 15 14 15 15 15 17 18 18 19 18 18 19 19 18 18 17 19 20 19 22 22 22 23 25 25 21 18
5 5 6 6 6 8 7 8 8 12 11 13 13 14 14 15 15 14 14 14 16 16 15 16 16 18 19 20 19 19 19 18 18 19 20 18 20 23 23 23 22 22 23 21 18
5 4 5 6 6 7 6 6 10 11 12 12 14 14 13 14 14 14 14 14 15 16 16 16 16 18 19 19 21 18 18 20 18 16 18 20 20 22 23 22 23 23 22 21 19
4 5 5 7 7 6 6 7 9 10 11 11 12 13 12 13 13 13 14 15 15 15 16 16 16 18 19 19 20 20 20 18 18 18 18 20 20 23 23 24 23 22 22 21 19
4 5 7 7 6 6 7 8 9 10 10 10 10 11 11 12 12 13 13 15 14 15 16 16 16 17 18 18 19 19 19 19 20 19 20 20 21 21 23 23 22 21 21 21 19
4 5 8 6 6 5 7 8 10 9 10 10 10 10 10 11 12 13 13 14 14 14 13 13 14 15 17 19 19 20 20 20 19 18 18 19 21 21 22 22 20 22 21 21 20
5 5 6 7 6 6 7 6 9 9 9 9 10 10 11 11 11 12 13 14 14 14 13 13 13 14 16 18 19 19 19 20 20 18 20 19 21 21 20 21 22 22 23 22 20
4 5 5 6 6 8 8 7 7 9 9 9 9 10 10 10 11 11 11 13 12 14 13 13 12 12 14 15 16 18 19 19 20 18 19 19 21 22 22 22 23 21 22 22 20
4 4 6 6 6 6 8 9 8 8 9 9 9 9 9 9 9 10 11 12 13 14 13 13 13 13 13 14 15 16 18 20 19 20 19 20 21 22 22 23 23 21 21 22 22
3 5 5 7 8 7 8 8 9 8 8 8 8 9 9 8 9 10 11 11 11 12 12 13 11 11 12 14 15 15 18 19 19 19 19 19 19 21 22 22 22 22 20 22 22
4 4 6 7 6 7 7 9 9 10 9 10 9 9 7 8 10 10 10 10 10 10 10 10 10 11 13 13 12 15 17 18 19 19 20 19 20 21 21 20 21 21 19 20 21

GFSSW_925_temp_084.txt.gz
Temp
9 9 9 9 9 9 9 9 8 8 9 9 9 9 10 11 14 16 18 20 19 19 19 19 20 22 23 26 25 26 26 27 28 27 28 28 27 28 26 26 27 27 27 25 19
8 8 8 8 8 9 8 8 8 8 9 9 9 9 10 13 13 18 19 18 18 19 20 21 23 23 25 25 25 26 27 28 29 28 27 27 27 28 27 29 28 27 25 21 19
8 7 7 7 7 8 8 8 8 8 8 9 9 9 11 12 18 23 18 18 18 18 20 22 24 24 25 26 25 26 26 28 27 27 28 28 27 28 27 28 29 28 28 24 21
8 8 8 7 7 7 8 8 8 8 8 9 9 8 11 13 22 21 18 18 18 17 20 22 24 24 24 25 26 24 26 27 27 28 27 27 28 27 28 28 29 27 26 25 22
7 7 7 7 7 7 7 8 8 8 8 8 8 7 11 17 20 19 18 19 18 18 21 23 23 24 24 26 26 24 26 27 27 27 26 27 26 27 28 28 29 25 24 24 22
7 7 7 7 8 8 8 8 8 8 8 8 8 7 11 15 19 17 17 17 19 20 21 22 24 25 24 25 25 26 26 26 27 27 26 25 26 27 27 29 27 24 25 24 22
7 7 7 7 7 8 8 8 8 8 9 8 7 8 11 16 17 16 16 18 18 20 22 21 22 23 24 24 25 25 24 26 26 26 26 27 26 27 28 26 26 25 24 24 23
7 7 7 7 7 7 7 8 8 9 9 9 7 9 12 15 14 15 16 16 17 17 18 20 20 22 23 24 24 24 25 25 27 26 26 25 26 29 29 26 27 26 24 23 23
7 7 7 7 7 7 7 8 9 8 9 8 8 10 15 15 15 17 16 17 17 17 17 19 20 22 23 22 23 24 24 26 26 27 27 26 27 29 27 26 26 26 25 24 23
6 6 7 7 7 7 7 9 9 8 9 9 10 10 15 19 17 17 16 17 18 16 18 19 21 22 22 23 22 24 24 25 25 27 25 26 26 28 29 26 27 26 25 25 24
6 6 7 7 7 7 8 10 14 13 11 14 16 15 17 16 16 18 17 18 19 18 19 20 20 21 22 22 24 25 24 25 27 26 24 25 26 28 29 28 27 26 25 24 24
6 6 6 7 7 7 8 11 10 8 9 13 13 14 15 15 14 18 17 19 19 20 20 19 19 23 23 23 22 23 23 24 26 25 24 25 26 28 28 29 28 28 26 26 24
6 6 6 7 7 8 9 9 8 8 9 13 14 14 14 14 14 16 18 19 19 19 19 19 22 22 22 21 21 22 23 24 24 25 25 24 25 27 28 28 27 27 27 27 26
5 5 6 6 7 9 10 8 8 7 10 16 13 15 14 15 14 16 17 19 19 19 19 18 20 21 21 21 22 21 24 23 23 23 23 24 24 28 27 28 28 28 26 27 26
5 5 6 6 7 9 9 8 7 9 14 16 15 16 16 15 17 16 16 18 18 19 19 20 19 19 20 21 22 21 23 23 23 23 23 24 23 26 27 27 28 29 28 27 26
5 5 5 7 7 7 8 8 8 10 13 17 17 16 15 15 17 16 16 17 18 17 19 19 20 20 20 22 22 22 22 22 22 22 21 23 24 26 28 27 28 29 29 28 27
5 5 5 6 8 8 8 9 11 12 16 16 16 16 17 17 17 16 15 14 17 16 16 18 19 21 21 21 22 21 22 21 21 21 22 25 24 25 28 28 28 28 29 28 27
5 5 5 6 7 7 8 9 9 15 15 16 16 16 17 17 17 17 16 16 17 17 19 18 18 19 20 21 21 21 22 23 21 22 24 24 23 25 28 29 29 28 28 28 26
4 5 5 6 6 6 6 8 13 14 15 14 16 16 16 16 17 17 17 18 18 18 18 19 19 21 21 22 23 22 21 24 22 22 20 24 25 26 27 27 28 28 28 28 27
5 5 6 7 6 6 6 8 12 13 13 14 15 15 16 16 17 17 17 17 17 18 18 19 18 21 21 21 22 23 24 20 21 19 20 24 24 25 26 27 28 28 28 28 28
4 5 8 7 6 6 7 7 11 13 12 13 13 14 14 14 15 16 16 16 17 17 18 18 18 20 20 20 20 20 20 21 23 22 21 22 25 27 26 27 27 27 27 27 26
4 5 8 6 6 5 7 10 10 12 13 12 12 13 13 14 14 15 15 16 17 17 16 16 17 17 19 21 22 22 22 22 21 22 22 22 23 26 26 27 26 27 27 26 25
4 5 7 6 7 7 7 8 11 11 12 12 12 12 14 13 13 14 15 16 16 16 15 16 14 17 18 20 21 20 21 21 22 22 21 21 23 27 27 27 27 27 27 27 25
4 5 7 6 7 8 10 8 8 10 12 12 12 13 12 12 13 13 14 15 15 15 14 15 16 14 16 16 17 17 19 21 21 20 20 22 23 25 26 26 27 27 27 28 27
4 5 9 7 6 6 9 9 9 9 11 12 11 12 12 12 12 13 14 14 15 15 15 15 15 16 17 17 18 18 18 19 20 22 21 22 23 24 25 26 27 27 26 26 27
3 5 8 10 10 8 6 9 10 12 10 10 11 12 12 12 13 12 12 13 13 14 13 14 13 14 14 16 18 17 18 19 20 21 22 23 23 25 26 26 26 26 26 25 26
3 4 6 8 9 7 8 9 10 11 11 12 12 12 11 12 12 11 11 12 12 12 12 12 12 11 14 17 16 16 18 19 21 22 22 21 23 25 24 25 25 26 26 25 25

GFSSW_925_temp_087.txt.gz
Temp
8 8 8 8 8 8 8 8 8 8 9 9 9 10 10 12 15 18 22 23 21 20 20 22 23 24 26 28 29 29 28 29 30 31 31 32 30 31 31 30 31 31 30 29 25
8 8 7 7 8 8 8 8 8 9 9 9 9 10 11 12 13 20 23 21 21 19 20 24 25 26 27 28 29 28 28 29 32 32 31 31 30 30 31 30 31 30 31 28 25
8 8 7 7 7 7 7 8 8 8 9 9 9 9 12 12 19 26 21 21 20 19 20 25 26 27 26 28 29 28 27 30 31 31 31 31 31 31 30 30 31 30 31 31 27
8 7 7 7 7 7 8 8 8 8 8 9 9 9 12 12 23 24 20 19 20 19 22 24 27 26 26 27 29 27 29 29 30 31 30 30 31 30 31 30 31 31 31 29 29
7 7 7 7 7 7 8 8 8 8 8 9 8 9 11 19 22 22 20 19 19 20 23 25 26 26 26 28 29 28 29 29 30 30 30 30 29 29 30 31 31 31 31 29 28
8 7 7 7 7 8 8 8 8 8 9 8 8 7 13 16 22 21 20 20 22 22 24 26 26 27 27 28 28 29 29 29 29 30 30 29 29 29 30 31 30 30 30 30 28
7 7 7 7 7 8 8 8 8 9 8 9 8 8 13 17 21 20 20 20 22 23 25 25 25 26 26 26 27 27 26 27 28 29 29 29 28 28 30 31 30 30 30 29 29
7 7 7 7 7 8 8 8 9 9 9 9 8 10 14 18 18 19 19 20 20 21 23 24 24 24 25 26 26 25 26 25 28 30 30 30 27 30 32 31 30 30 30 29 28
7 7 7 7 7 7 8 9 10 9 9 9 10 12 17 17 18 19 19 20 21 21 21 22 23 23 24 23 24 25 24 26 28 31 29 28 28 31 32 30 30 30 30 29 28
7 7 7 7 7 7 8 10 11 9 10 11 14 13 17 20 20 20 20 20 21 22 21 21 22 23 23 24 23 24 25 26 27 30 30 28 29 30 31 30 30 30 30 29 28
7 6 7 6 7 7 8 12 16 15 14 17 19 17 20 20 19 21 20 20 21 21 20 21 21 22 24 24 25 25 26 27 29 30 28 28 28 29 31 31 31 30 30 30 29
6 6 6 6 7 7 8 14 14 11 12 16 16 17 18 19 18 20 21 20 21 21 23 23 21 24 25 25 24 24 25 25 27 28 28 27 27 29 30 31 31 31 31 30 29
6 6 6 6 7 8 12 12 12 11 13 16 18 18 19 18 18 19 22 21 22 21 23 22 24 25 23 23 21 23 24 24 25 28 29 27 27 28 30 30 31 31 31 31 30
6 6 6 6 7 12 13 11 11 10 14 19 18 18 17 17 17 19 21 21 21 21 22 23 24 24 23 23 23 22 25 24 25 25 25 28 26 28 30 31 31 31 30 30 31
6 5 5 6 7 11 11 11 10 10 16 20 18 19 19 18 19 19 19 20 19 21 21 22 22 22 21 23 23 23 25 24 24 25 25 26 26 27 29 30 30 31 31 30 30
5 5 5 7 8 10 10 10 11 12 15 19 19 18 18 18 19 19 17 19 20 19 21 21 24 22 23 22 22 23 23 24 24 24 23 25 26 27 29 30 30 31 31 31 31
5 5 5 7 10 9 9 10 12 14 19 20 19 19 19 19 19 19 17 17 18 16 17 19 21 22 22 21 22 21 22 21 22 22 23 27 27 27 30 30 31 30 31 31 31
5 5 6 8 8 9 9 10 11 17 18 19 18 19 19 19 19 19 19 19 19 20 20 19 20 21 23 22 22 22 22 21 21 23 25 28 26 28 30 31 31 31 31 31 30
5 6 8 8 8 7 8 8 13 16 18 17 18 18 19 19 19 19 19 21 21 21 20 21 21 24 22 23 23 23 21 23 23 24 23 25 27 29 29 29 30 30 30 30 30
6 8 9 9 8 7 6 8 14 16 16 16 17 18 19 19 18 19 19 19 19 20 20 20 19 23 22 23 22 21 25 21 23 21 21 24 26 27 28 28 29 29 30 30 31
6 6 10 9 7 7 7 9 13 14 15 14 16 17 18 17 18 18 19 18 19 19 20 20 19 21 22 21 22 21 22 23 23 23 22 23 26 29 29 29 29 29 29 29 30
6 6 11 8 6 7 7 11 10 13 16 15 14 15 16 16 16 17 17 18 18 18 18 18 18 19 21 23 24 24 23 23 21 22 24 24 24 29 28 29 29 29 28 28 28
5 8 9 8 8 8 11 9 10 11 13 14 14 15 16 15 15 16 17 18 17 18 16 17 17 17 19 21 22 22 22 23 23 23 22 22 24 28 29 28 28 28 29 29 28
5 6 9 8 9 8 10 11 11 11 11 14 14 15 15 14 16 15 16 17 17 17 14 15 17 17 17 17 20 20 22 22 22 22 22 22 24 26 27 28 28 28 29 29 29
4 6 10 7 8 10 11 10 11 11 11 13 12 13 14 13 14 14 15 16 17 17 16 16 15 17 18 19 19 20 20 21 21 21 21 22 24 25 26 27 27 28 29 28 28
3 5 9 10 12 10 10 10 11 9 10 11 12 14 14 14 14 13 12 13 13 16 16 15 15 16 17 18 19 19 20 21 21 22 22 22 23 26 27 27 27 28 28 28 28
5 7 7 9 10 10 11 11 12 12 13 13 13 14 13 13 15 14 14 14 14 13 14 14 14 13 14 18 18 17 20 21 21 21 21 22 23 25 26 26 26 26 27 27 27

GFSSW_925_temp_090.txt.gz
Temp
8 8 8 8 8 8 8 8 8 9 9 9 10 10 12 13 14 15 20 23 22 22 21 22 22 24 26 27 28 30 27 27 28 30 32 33 32 32 32 31 31 32 31 30 26
8 8 8 7 7 7 7 8 8 8 8 9 9 10 12 13 12 17 21 22 22 22 21 23 25 26 26 27 28 28 27 28 30 31 32 32 32 31 31 30 30 31 31 30 26
8 7 7 7 7 7 7 8 8 8 9 9 9 10 12 12 17 24 20 20 21 21 21 23 26 27 26 27 28 28 27 29 30 31 32 31 31 32 31 30 31 30 31 32 28
8 8 7 7 7 7 8 8 8 8 9 8 9 9 11 11 21 21 21 22 21 20 20 22 26 25 26 26 28 27 29 29 30 31 30 30 31 30 31 31 32 32 31 31 30
8 8 8 7 7 7 7 8 8 8 9 9 9 8 10 17 19 22 21 21 20 20 23 24 25 26 25 27 28 28 29 30 30 30 30 30 30 30 30 31 31 31 31 30 30
8 8 8 7 7 7 8 8 8 9 9 9 9 8 11 13 20 23 23 22 22 23 24 25 26 27 26 27 27 28 29 30 30 30 30 29 30 30 30 31 31 31 30 30 30
8 7 7 7 7 7 7 8 8 9 9 9 8 8 12 14 20 20 20 21 22 24 25 25 26 26 27 26 28 28 27 28 28 29 29 29 28 29 30 31 30 31 31 31 31
7 7 7 7 7 7 7 8 9 10 9 9 8 9 12 17 19 20 21 21 21 23 23 25 25 26 25 26 26 26 26 25 27 28 29 29 27 29 31 31 31 31 31 30 31
7 7 7 7 7 7 8 8 10 11 10 9 9 11 15 19 19 20 20 20 22 22 23 23 24 23 24 23 23 24 24 25 26 28 29 29 28 30 32 32 31 31 31 31 30
7 7 7 7 7 7 8 9 13 11 10 11 12 14 16 20 23 22 22 22 22 23 23 22 22 21 22 22 22 23 24 25 25 27 28 29 29 29 31 31 30 30 30 30 30
7 7 7 7 7 7 7 10 17 15 13 16 18 17 21 22 21 22 22 22 22 22 20 22 20 20 22 23 23 24 24 25 26 28 29 29 29 30 31 31 31 30 30 30 30
6 6 6 6 7 7 7 11 15 13 12 16 17 18 19 20 19 21 22 21 21 20 21 21 20 22 24 24 24 24 24 23 25 26 27 28 28 29 30 30 31 31 31 30 30
6 6 6 6 7 8 9 13 13 13 12 16 18 18 19 20 19 20 22 22 21 21 22 22 23 24 23 23 23 24 23 23 22 24 27 27 27 28 29 30 30 31 31 31 31
5 6 6 6 7 10 13 12 13 11 12 18 19 20 20 20 18 21 21 22 21 20 22 22 24 24 24 24 24 23 24 23 21 21 21 26 25 27 29 30 31 31 30 30 31
5 6 5 6 7 10 11 11 12 11 13 21 19 20 20 19 21 21 21 21 20 21 21 21 22 23 23 23 24 23 24 22 20 20 22 24 25 26 28 28 30 31 31 30 30
5 5 5 7 7 9 11 11 11 10 13 20 20 19 19 19 20 20 19 20 21 20 21 21 23 23 24 24 24 24 23 22 22 21 19 22 24 25 27 29 31 32 31 30 30
5 5 5 7 9 9 9 10 10 12 20 20 20 20 20 20 20 20 18 18 19 17 18 20 21 22 23 21 23 23 21 20 18 17 19 24 25 26 28 30 31 31 31 31 30
5 5 6 7 8 9 9 9 10 16 18 21 20 21 20 21 20 20 20 19 19 20 20 20 19 21 23 22 21 22 21 20 18 18 18 22 23 27 30 30 31 31 31 31 30
5 6 7 7 8 9 7 8 12 15 17 18 19 19 19 21 20 20 20 20 22 21 19 20 21 24 23 23 23 22 20 22 21 21 19 21 23 26 29 30 30 30 31 30 30
6 7 8 10 9 8 6 8 12 15 15 15 15 19 19 20 19 20 20 21 19 21 21 20 19 23 23 23 23 22 23 20 21 18 19 22 24 25 27 29 30 29 30 30 30
6 6 9 9 9 7 7 9 12 14 14 13 16 13 16 15 19 20 18 14 20 20 20 20 20 20 23 21 21 21 20 20 21 22 21 20 22 25 24 25 29 29 29 28 29
7 6 11 10 7 8 8 11 12 13 14 10 13 15 12 14 16 18 19 18 19 19 18 17 18 17 20 23 24 23 21 21 19 20 22 21 21 26 27 27 28 29 29 28 29
6 8 10 9 8 9 11 11 12 12 12 12 12 16 15 15 15 17 18 18 18 18 15 16 18 16 19 21 22 22 23 23 22 22 21 20 22 27 27 26 28 27 29 28 28
5 6 9 8 10 9 10 11 12 13 12 11 12 15 16 15 16 16 17 18 17 17 15 16 16 16 16 15 18 17 20 23 22 20 21 22 23 25 25 24 23 24 28 29 28
5 6 9 7 9 10 11 11 10 12 14 13 10 12 14 15 15 16 17 17 16 15 16 16 15 16 17 18 19 19 19 20 21 22 21 21 22 24 25 26 26 27 27 28 28
4 5 9 9 9 10 11 11 12 12 11 11 12 13 15 12 15 15 14 14 14 16 16 16 14 16 16 18 18 18 19 20 20 21 22 22 22 25 25 26 26 27 27 28 28
5 7 7 8 9 10 10 11 12 13 13 11 10 13 13 14 15 15 13 13 13 14 14 14 14 14 14 16 17 16 18 20 20 21 22 20 21 22 23 24 25 27 27 27 27

GFSSW_925_temp_093.txt.gz
Temp
8 8 8 7 8 8 8 8 8 9 9 9 10 9 10 12 13 14 15 20 21 22 21 22 21 21 22 21 22 24 20 20 22 24 26 28 30 30 29 29 29 29 29 26 23
8 7 7 7 7 7 8 8 8 8 9 9 9 10 10 12 11 13 22 20 21 21 20 21 21 21 20 22 21 22 19 22 24 25 27 27 26 29 28 27 28 27 27 24 23
8 8 7 7 7 7 7 8 8 8 9 9 9 9 11 11 12 20 21 20 21 21 21 21 22 22 21 21 22 22 22 24 25 26 26 25 25 27 27 26 26 26 27 23 22
8 8 8 7 7 7 7 7 8 8 8 8 8 8 10 11 18 21 21 21 22 21 20 21 21 20 21 21 23 22 24 25 26 27 27 25 26 26 26 26 28 27 28 23 23
8 8 8 7 7 7 8 8 8 8 9 9 8 7 9 12 15 20 20 20 21 20 20 20 21 21 21 23 23 23 24 25 26 26 25 26 26 26 25 26 27 27 28 27 23
8 8 8 7 7 7 7 8 8 8 9 9 8 7 9 10 18 19 19 19 21 21 21 21 22 23 22 23 22 24 25 25 25 25 26 26 25 26 26 26 27 27 26 25 25
7 8 8 7 7 7 7 7 8 9 9 9 8 7 9 10 19 20 19 20 20 21 21 23 23 22 23 22 24 24 23 24 24 24 24 25 24 24 26 26 26 27 26 25 25
7 7 7 7 7 7 7 7 8 9 9 10 8 8 8 14 16 17 18 19 20 21 21 22 23 22 22 22 23 21 21 21 24 24 25 25 24 25 26 27 27 27 27 26 25
7 7 7 7 7 7 7 8 10 11 10 9 7 8 11 16 16 19 18 18 19 21 21 22 22 21 21 20 18 20 19 20 22 24 24 25 24 25 27 28 27 27 26 24 24
7 7 6 6 7 7 7 9 13 10 10 9 10 10 12 17 20 21 21 19 19 19 20 19 18 18 18 17 17 18 19 19 20 23 24 24 25 26 27 26 26 25 26 24 23
6 6 6 6 7 7 7 8 11 11 12 12 13 13 17 19 20 21 21 21 20 19 17 18 16 15 16 17 19 20 20 20 21 24 24 23 23 24 26 26 25 24 24 24 24
6 6 6 6 6 7 7 7 11 12 9 13 14 14 16 17 17 18 19 19 19 17 18 18 17 18 19 19 19 20 20 20 22 23 24 22 21 22 24 26 26 25 23 23 24
6 6 6 6 6 7 8 9 12 12 9 12 14 14 15 16 15 16 18 18 18 18 18 18 19 21 20 20 20 20 20 20 21 22 21 19 20 21 24 26 27 26 25 24 25
6 6 5 6 6 7 9 11 11 12 7 12 16 17 17 18 17 18 18 18 18 18 19 19 21 21 21 20 21 19 21 22 22 19 17 20 16 19 21 24 27 27 27 26 24
6 5 6 6 6 7 10 10 11 11 9 18 19 20 19 18 20 20 20 18 17 18 18 19 19 19 20 21 21 21 21 21 20 18 17 18 16 18 22 24 26 26 26 27 24
5 5 5 6 6 7 8 9 10 9 9 17 18 17 17 18 18 19 19 19 19 17 18 18 19 20 20 21 21 22 22 21 19 18 15 17 17 17 21 24 26 27 28 24 23
5 5 5 5 5 7 8 8 8 9 16 19 18 18 17 17 17 18 17 16 15 15 14 17 18 19 20 19 20 21 20 17 16 16 16 20 18 18 22 25 27 27 27 25 25
5 5 5 5 6 7 7 7 8 13 14 17 15 17 17 18 18 18 17 15 16 16 16 15 15 18 20 19 19 20 20 16 16 16 16 19 18 20 22 22 27 27 26 25 22
4 5 5 6 6 7 6 7 9 12 15 13 14 15 17 19 19 18 17 17 18 17 16 17 18 21 20 20 20 19 18 20 18 19 17 18 20 21 23 25 27 27 27 25 22
4 5 6 7 8 7 6 7 9 12 13 12 11 15 13 13 15 18 17 17 19 18 19 19 17 20 21 20 20 20 21 18 18 16 16 19 21 19 21 23 23 26 25 24 24
4 4 7 9 8 5 5 6 9 12 13 12 11 9 11 10 12 15 17 15 14 17 17 15 16 17 20 19 19 19 19 19 19 17 16 17 19 22 22 22 22 22 23 24 24
4 3 9 9 4 4 5 8 10 10 12 11 10 10 10 10 11 11 10 13 13 15 16 15 16 15 18 20 19 20 20 19 17 17 18 18 19 23 22 21 21 19 19 25 26
3 3 8 8 3 5 8 9 10 10 11 12 10 10 12 9 10 10 12 15 16 15 14 14 14 14 16 19 17 17 20 20 19 18 18 16 18 23 23 22 21 20 18 22 26
3 1 4 4 4 6 8 8 9 12 11 12 11 11 11 11 12 12 12 14 15 15 15 15 14 14 13 15 14 15 17 19 17 16 17 18 20 22 23 21 20 20 21 21 22
2 3 6 4 5 7 8 9 9 10 11 12 10 11 10 10 12 13 15 14 15 14 15 14 13 14 15 16 17 17 17 18 18 17 16 17 19 21 21 21 22 23 24 23 23
2 3 6 7 8 6 6 8 9 10 10 11 11 12 11 10 11 11 12 12 12 14 14 14 13 13 14 16 17 16 17 18 18 19 19 19 19 19 20 20 19 20 22 24 24
3 4 5 6 6 7 7 7 10 10 11 12 10 10 9 9 10 10 11 12 12 12 12 12 12 11 12 14 14 13 16 17 18 19 19 17 16 15 16 16 16 17 19 22 21

GFSSW_925_temp_096.txt.gz
Temp
8 8 8 7 7 7 8 8 8 9 9 9 9 9 10 11 12 13 12 20 21 21 21 20 20 20 20 19 20 19 17 17 18 21 22 25 25 27 26 28 28 28 25 25 23
7 7 7 7 7 7 7 8 8 8 9 9 9 8 9 10 10 10 22 20 20 20 19 19 20 19 18 19 19 18 16 19 21 22 23 24 24 24 27 25 27 28 23 22 20
7 7 7 7 7 7 7 7 8 8 8 9 8 8 9 10 10 16 21 21 20 20 20 20 21 20 18 19 19 19 20 21 22 22 22 22 23 25 26 25 25 26 24 20 20
8 8 8 7 7 7 7 7 7 8 8 8 8 7 9 10 17 20 20 20 20 20 19 19 19 19 18 19 20 19 21 21 23 23 23 23 23 24 24 25 26 25 24 20 20
8 8 8 8 7 7 7 7 7 8 8 8 8 7 8 10 13 19 18 18 19 19 18 18 18 18 19 19 20 20 21 22 23 23 23 23 23 24 24 24 24 24 23 21 21
8 7 7 7 7 7 7 7 8 8 9 8 8 7 8 8 17 18 17 18 19 18 19 19 20 20 20 20 20 22 22 22 22 23 23 23 23 23 24 24 25 25 24 21 21
7 7 7 7 7 7 7 7 8 8 8 8 8 7 8 9 17 17 18 17 18 19 19 21 21 20 20 20 21 22 21 21 21 22 22 23 22 22 24 23 24 24 24 24 23
7 7 7 7 7 7 7 7 8 8 8 8 7 7 8 12 15 15 16 17 18 19 19 20 21 19 19 21 21 21 20 19 23 23 23 22 22 23 24 23 23 23 24 24 24
7 7 7 7 7 7 7 7 8 9 8 8 7 7 8 13 14 18 16 16 19 20 20 20 20 19 20 19 17 18 19 19 20 23 22 22 22 23 23 23 23 24 25 25 25
6 7 6 6 6 7 7 7 11 9 9 8 8 8 10 15 18 19 20 19 18 18 19 19 17 17 15 16 17 17 17 18 18 21 22 21 21 22 22 21 21 22 24 23 21
6 6 6 6 7 6 6 7 10 10 11 10 11 10 14 17 17 19 19 19 18 18 16 17 15 14 16 17 19 18 18 17 19 20 21 20 21 21 20 20 21 22 23 22 21
6 6 6 6 7 6 6 5 9 11 9 12 12 12 13 14 13 15 17 17 17 16 17 16 15 16 17 17 17 17 17 17 19 20 20 20 20 19 20 21 21 21 23 22 22
6 6 6 6 6 7 6 7 9 10 8 11 12 12 13 14 13 14 16 16 16 16 16 16 18 19 17 17 17 17 17 17 18 19 19 19 20 21 22 21 22 23 23 23 21
6 5 5 6 6 6 6 8 9 9 7 11 13 13 14 14 13 16 17 16 16 16 16 16 18 18 18 18 18 17 19 19 19 18 17 19 18 20 21 21 21 22 23 24 21
5 5 5 5 5 5 8 7 9 9 10 16 16 17 16 15 17 18 17 15 15 16 16 16 17 17 18 18 19 18 19 19 19 17 16 17 16 19 19 19 20 22 24 25 22
5 5 5 6 5 6 6 8 9 8 9 15 17 17 15 16 17 18 17 17 16 16 16 16 17 17 18 19 19 20 19 19 17 16 14 16 17 19 17 19 21 23 25 25 22
5 5 5 5 4 6 6 6 7 8 13 14 14 14 15 15 16 16 16 15 14 13 14 15 16 17 18 17 18 19 18 15 14 15 15 18 16 18 19 20 21 21 23 24 24
5 5 5 5 6 6 5 6 7 11 12 13 13 14 15 16 16 16 15 14 15 15 14 13 14 16 17 17 17 16 16 14 16 15 16 18 16 17 20 21 22 22 24 24 24
4 5 5 7 7 5 5 7 8 10 12 11 12 13 14 15 14 15 15 15 16 15 14 14 14 18 18 19 18 17 17 18 17 16 15 16 18 19 20 19 20 21 21 23 23
3 4 4 7 7 5 5 7 8 10 10 11 10 11 10 10 12 13 15 16 17 16 16 16 15 18 19 18 18 18 18 17 16 16 15 17 17 18 19 17 19 19 20 20 21
3 2 7 7 7 5 4 6 8 10 11 9 9 10 11 10 10 11 12 14 12 15 16 15 15 16 18 18 17 17 17 18 17 15 15 15 17 18 16 17 16 19 20 20 20
3 -0 7 7 4 4 2 7 9 9 10 10 10 10 10 9 9 10 11 10 10 10 13 14 14 14 16 17 17 18 18 16 14 15 15 15 17 19 17 16 17 17 19 20 20
2 1 6 6 4 4 5 7 8 9 9 10 10 10 9 8 9 9 9 11 10 10 12 14 14 14 15 16 14 14 15 17 17 16 16 14 17 21 20 19 18 17 18 19 20
2 1 1 3 4 5 6 7 7 9 9 10 10 11 11 9 9 9 9 10 12 10 12 14 13 13 13 14 14 13 12 16 15 13 14 15 18 19 19 19 17 16 17 18 20
1 0 3 4 3 5 5 6 7 8 10 9 10 10 10 9 9 10 9 9 10 11 14 13 12 13 14 15 15 16 14 15 16 15 14 16 16 18 17 18 17 18 18 20 21
1 -0 3 5 6 6 6 6 7 8 9 7 9 10 10 9 10 9 9 11 12 12 12 13 12 12 13 14 14 14 15 16 17 17 17 18 17 15 16 16 16 16 16 20 19
2 3 3 4 5 5 5 7 7 7 7 9 9 10 9 9 9 9 9 10 11 11 11 11 11 10 11 12 13 13 15 16 16 13 15 15 13 14 14 15 14 14 16 17 16

GFSSW_925_temp_099.txt.gz
Temp
7 7 7 7 7 7 7 7 7 7 7 7 7 7 8 10 11 13 11 20 21 21 20 19 18 18 19 18 18 16 16 16 17 19 21 22 23 24 24 25 26 25 22 23 23
7 7 7 7 7 7 7 7 8 8 7 7 7 7 8 10 9 10 21 19 19 19 18 18 18 17 16 17 17 17 14 16 19 20 22 21 21 21 24 23 25 26 23 20 20
7 7 7 7 7 7 7 7 8 8 7 7 7 7 8 10 9 16 19 20 17 18 19 19 20 18 18 17 17 17 18 18 20 21 20 20 20 22 23 22 23 25 24 18 18
8 8 8 7 7 7 7 7 7 8 8 7 7 7 8 9 16 18 19 19 18 18 17 19 18 18 17 17 18 18 18 21 21 21 20 21 22 21 20 23 24 23 22 18 18
7 8 8 7 7 7 7 7 7 7 7 7 7 7 7 8 11 19 18 17 18 18 17 17 17 17 17 17 18 18 19 20 20 20 20 21 21 21 22 23 22 22 22 18 19
7 7 7 7 7 7 7 7 7 7 7 6 6 7 7 7 15 16 16 17 17 16 17 17 18 18 18 18 18 20 20 20 20 21 21 21 21 21 21 22 22 22 20 18 19
7 7 7 7 7 7 7 7 7 7 6 6 6 7 8 8 16 15 15 15 16 17 16 19 19 19 19 19 20 20 19 19 19 20 21 22 20 20 22 22 21 22 22 20 19
7 8 7 7 7 7 7 7 7 7 6 6 6 7 8 11 13 13 14 15 17 17 17 19 19 18 18 19 19 20 19 18 20 20 21 21 21 22 22 22 21 21 21 21 20
6 7 7 7 6 7 7 7 7 8 7 6 6 7 8 12 12 16 13 14 16 17 18 19 19 17 18 17 17 17 16 17 19 21 21 19 20 22 21 22 21 20 19 19 20
6 6 6 6 6 7 6 7 9 8 7 7 8 8 9 14 16 17 16 15 17 16 17 17 16 15 14 15 16 16 16 16 17 20 20 19 19 19 20 20 19 19 19 19 19
6 6 6 6 6 7 6 6 7 9 8 9 10 10 12 15 16 17 17 16 17 17 15 15 14 14 14 16 18 17 17 17 18 19 18 18 18 19 19 19 18 18 18 19 19
5 6 6 6 6 6 5 4 8 8 7 10 11 11 11 12 12 15 16 16 16 15 15 15 14 15 15 16 16 16 16 16 17 18 18 18 19 19 18 19 19 19 18 18 19
5 5 5 5 5 6 5 6 7 7 8 9 11 11 12 13 11 13 15 16 15 15 15 14 15 16 16 16 16 15 15 16 16 18 17 16 18 18 19 19 20 20 19 20 19
4 5 5 5 4 5 5 7 7 6 6 9 10 12 13 13 11 14 15 15 15 15 15 14 16 17 16 16 16 15 17 17 16 16 14 17 17 19 19 20 20 20 20 21 20
5 5 5 5 4 4 6 7 7 7 7 14 13 14 13 13 16 14 15 15 14 14 15 15 17 15 16 16 16 16 17 16 16 16 16 16 14 17 19 18 20 20 20 20 20
4 5 5 4 4 5 5 6 6 6 8 14 15 14 13 14 15 14 14 15 14 15 15 15 16 17 16 18 17 19 17 17 16 14 13 16 15 18 18 18 19 20 20 20 20
4 4 5 5 4 6 5 5 6 7 12 12 11 13 13 14 15 16 14 14 13 12 12 15 15 16 17 16 16 17 17 14 14 14 15 16 15 18 19 20 19 19 18 19 20
4 4 5 5 5 5 5 6 6 10 10 12 11 13 12 12 14 15 15 13 14 14 12 12 14 14 15 16 15 14 15 13 15 14 16 16 15 17 19 18 18 18 18 19 19
4 4 4 6 6 5 5 4 7 8 10 9 11 11 11 11 11 12 13 13 14 14 13 13 13 16 16 17 17 16 15 17 16 15 14 15 16 18 18 16 16 16 17 17 18
3 3 3 5 5 4 4 6 7 9 9 10 9 10 10 10 10 11 11 12 11 12 14 15 14 17 18 17 16 17 17 16 14 15 15 15 16 16 16 15 16 15 15 16 18
3 2 6 5 5 2 1 4 7 9 9 9 9 8 9 9 9 10 11 11 10 10 10 14 14 15 17 17 15 15 16 16 16 14 16 15 14 15 16 16 15 14 14 16 18
2 -0 6 5 2 2 -0 6 8 8 9 9 9 9 9 9 9 10 10 10 11 10 10 12 12 12 15 15 15 16 16 15 14 15 14 14 15 18 18 17 16 15 14 16 18
2 2 5 5 4 5 5 6 7 7 8 9 9 10 9 8 8 9 9 11 10 11 9 9 11 12 15 15 14 13 14 15 15 14 14 14 15 18 18 18 17 14 13 15 17
1 2 1 2 3 4 5 5 6 8 8 8 9 9 9 9 9 8 9 9 10 10 11 10 10 10 13 13 14 13 14 13 14 13 13 14 16 17 16 17 16 16 14 14 17
2 -0 2 3 4 4 5 5 6 7 9 8 8 9 9 8 9 9 10 9 10 11 11 10 9 11 13 14 14 14 14 13 14 14 13 15 16 16 14 15 15 16 16 16 16
-1 -1 1 2 5 5 6 6 7 7 7 8 7 8 8 7 9 8 10 8 9 12 9 11 10 11 12 13 13 14 15 15 14 16 15 14 15 14 14 15 14 14 16 16 14
2 2 1 3 4 4 5 7 7 7 7 7 7 7 7 9 9 10 10 10 10 9 10 11 11 10 11 11 12 13 14 14 12 12 13 14 13 13 13 14 13 13 12 12 12

GFSSW_925_temp_102.txt.gz
Temp
8 8 8 7 7 7 7 7 7 7 7 7 7 7 7 9 9 10 9 19 20 21 19 19 18 17 17 17 17 14 15 14 17 17 20 21 22 23 22 24 23 25 23 21 20
7 7 7 7 7 7 7 7 7 7 7 7 7 7 7 9 9 8 19 18 18 19 17 18 16 16 16 17 16 16 14 16 18 18 20 22 21 20 23 20 22 23 22 19 19
7 7 7 7 7 7 7 7 7 6 7 7 7 7 7 9 9 15 17 19 15 16 18 18 18 17 16 15 16 16 16 18 18 19 20 20 20 21 22 21 21 22 23 17 17
7 7 7 7 7 7 7 7 7 7 6 6 6 7 7 8 14 17 16 17 17 17 16 17 17 17 16 16 16 16 16 19 19 19 20 19 20 21 19 21 22 22 22 18 17
7 7 7 7 7 7 7 7 7 7 6 6 6 6 7 7 9 17 18 16 17 16 16 16 16 16 16 16 17 16 17 18 18 19 19 19 19 19 19 20 20 20 20 19 17
7 7 7 7 7 6 7 7 7 7 7 6 6 6 7 6 12 14 15 15 16 16 16 16 17 16 17 17 16 18 18 19 18 19 19 20 20 20 20 20 20 20 20 18 17
6 6 7 7 7 7 7 7 7 7 7 6 6 6 7 7 12 13 14 12 15 15 15 17 17 18 17 18 18 18 18 18 17 18 18 19 19 19 20 20 20 20 20 19 18
6 7 7 6 6 6 7 7 7 8 8 6 6 6 7 10 11 11 12 12 15 15 14 17 18 16 17 18 18 19 18 17 19 18 20 21 20 21 20 20 20 20 19 20 19
5 6 6 7 7 6 6 6 7 8 7 6 6 6 7 10 11 13 12 11 14 15 15 17 16 16 16 15 16 15 15 16 19 19 21 19 20 21 20 19 19 19 19 18 18
5 5 5 6 6 7 6 6 8 8 6 6 7 7 8 12 15 15 14 12 15 14 15 15 15 14 13 13 15 15 15 16 17 19 19 18 18 18 18 19 18 18 18 17 17
5 5 5 5 6 6 5 5 5 7 8 8 8 8 11 13 14 15 15 14 16 15 14 14 14 13 13 15 16 17 16 16 17 18 18 17 17 16 17 17 17 16 17 17 17
4 4 4 4 5 5 6 4 6 5 5 7 8 9 10 10 10 13 15 15 15 15 15 14 13 15 15 14 15 15 15 15 16 17 17 17 18 17 17 17 17 18 16 17 17
4 4 4 4 4 5 4 5 6 4 6 9 9 10 10 11 10 12 13 15 15 15 14 14 16 15 15 14 15 14 15 15 16 16 16 15 16 17 17 17 18 18 17 17 17
4 4 5 4 4 3 4 5 5 4 5 8 9 10 12 12 10 13 14 15 14 15 15 15 16 15 14 15 15 14 15 16 15 15 14 15 14 19 18 18 19 18 18 17 17
4 4 4 4 3 2 4 5 4 4 6 12 11 12 12 12 13 13 14 14 14 14 15 15 16 14 15 15 15 14 15 15 15 14 15 15 13 14 18 18 19 19 18 17 17
3 4 4 4 4 5 4 4 5 7 7 12 12 13 11 12 14 13 13 15 14 15 14 14 15 15 15 16 15 17 16 15 14 13 12 14 14 15 17 19 19 19 18 17 16
3 3 3 4 4 5 4 4 5 6 10 9 11 12 12 12 14 14 13 12 11 12 12 14 14 15 17 16 16 16 14 14 13 13 14 15 14 17 18 18 17 16 15 15 15
3 3 4 4 5 5 4 5 6 8 8 11 11 12 10 11 12 11 13 13 14 14 12 12 14 14 15 15 15 14 14 13 15 14 14 15 14 15 16 15 16 16 15 14 15
3 3 4 5 5 4 3 5 6 7 8 8 10 10 9 11 11 11 11 11 10 10 13 12 13 15 15 15 16 14 13 15 15 15 14 14 15 17 16 15 15 14 14 14 15
3 3 3 4 5 4 0 5 6 6 8 8 8 9 8 9 9 9 10 10 10 10 10 13 13 15 17 16 15 16 15 14 13 14 14 14 15 15 16 16 15 14 13 13 15
3 1 4 4 4 2 -2 3 6 8 8 8 8 8 8 9 9 9 10 10 10 10 10 10 13 13 15 16 15 14 14 15 14 13 15 15 14 14 15 16 15 14 13 13 14
1 -1 4 4 2 2 -0 5 7 7 8 8 8 8 8 8 8 9 10 10 10 10 10 10 10 12 13 15 15 15 15 14 13 14 13 13 15 17 15 14 14 13 14 13 13
1 3 4 4 1 3 6 5 6 7 7 7 8 9 9 7 7 8 9 10 10 9 9 10 10 12 13 14 14 13 14 14 13 12 13 12 14 16 15 14 14 14 14 14 13
1 1 -0 1 4 4 4 5 5 7 7 8 8 8 8 8 8 8 8 9 9 9 10 10 9 10 11 10 11 12 13 13 13 13 13 12 14 15 13 13 14 14 14 14 13
2 -0 1 0 4 4 4 5 5 6 8 8 7 7 6 7 8 7 8 8 9 9 9 10 8 9 10 10 11 13 12 13 13 14 13 14 14 13 13 13 13 13 16 14 13
1 -1 1 2 3 4 5 5 6 6 6 7 6 6 6 6 8 7 8 8 8 9 9 9 9 9 10 11 12 12 12 12 13 13 13 14 13 13 13 13 12 12 12 12 11
2 1 1 2 2 3 3 6 6 6 7 7 6 6 6 8 8 8 8 9 9 9 9 8 10 9 11 11 10 11 13 13 11 11 12 13 12 12 13 13 11 11 11 10 10

GFSSW_925_temp_105.txt.gz
Temp
7 7 7 7 7 7 7 7 7 7 7 7 7 7 7 7 9 9 10 18 19 19 17 18 16 16 17 19 18 17 21 21 23 22 24 23 24 24 23 24 24 26 26 23 19
7 7 7 7 7 7 7 7 7 7 7 7 7 7 7 7 8 9 17 16 16 16 16 16 16 17 18 18 19 21 20 21 21 22 23 23 23 23 24 24 24 24 23 20 18
7 7 7 7 7 7 7 7 7 7 7 6 6 7 7 7 9 15 15 16 17 14 16 17 17 18 18 17 18 19 21 20 21 22 22 23 22 23 23 24 24 25 25 22 20
6 6 6 7 7 7 7 7 7 7 6 6 6 6 7 7 15 15 15 15 16 15 15 16 17 18 18 18 18 18 18 21 21 21 22 22 22 22 23 24 25 25 23 22 21
6 6 6 6 6 6 6 7 7 7 7 7 6 6 6 7 9 16 17 15 15 15 15 17 17 18 18 18 18 18 19 19 20 21 21 21 22 22 22 23 24 23 22 22 22
6 6 6 6 7 7 7 7 7 7 7 7 6 6 6 6 11 12 13 14 14 14 15 16 18 19 19 19 19 19 19 21 21 21 20 21 22 21 22 22 22 22 24 24 22
5 5 6 6 6 6 7 7 7 7 8 8 6 6 7 7 11 13 12 11 12 13 15 16 17 18 18 18 19 19 19 20 20 20 20 20 21 20 23 23 23 24 24 23 23
5 5 5 5 5 6 6 6 6 7 8 7 6 6 6 8 12 10 11 10 11 14 12 14 15 17 17 19 19 19 19 19 20 20 21 22 22 23 23 22 22 22 23 22 23
5 5 5 5 5 6 6 6 6 8 8 7 6 6 7 9 10 12 11 10 12 11 12 15 16 17 17 17 18 17 19 18 19 20 22 21 23 23 21 21 22 22 22 22 22
5 5 5 5 5 5 5 6 7 8 6 6 7 6 8 11 12 13 13 10 14 13 14 14 15 16 16 17 17 17 17 18 20 21 20 21 21 21 22 21 21 22 22 22 23
4 4 4 4 4 4 5 5 6 7 6 6 7 7 9 11 11 14 13 12 14 15 14 14 14 15 16 17 18 18 18 19 18 19 20 20 21 20 21 21 21 22 22 22 22
4 4 4 4 4 4 5 4 5 3 3 6 7 8 9 10 9 12 13 14 15 13 15 14 13 16 16 16 17 17 17 18 17 18 19 20 20 21 20 21 22 22 22 22 21
4 4 4 4 5 4 4 4 4 3 4 6 8 8 9 10 9 11 12 15 15 15 14 14 17 17 16 15 15 16 16 17 17 18 18 18 19 21 20 19 20 20 21 20 20
4 4 4 4 5 4 4 4 5 3 4 8 8 10 11 11 9 12 14 15 15 15 14 14 16 15 14 15 16 15 16 17 17 17 17 17 19 20 21 21 21 22 21 20 19
3 3 3 4 4 3 4 4 4 4 6 11 10 12 12 11 13 12 13 14 15 15 15 15 15 15 15 15 15 15 16 17 17 16 16 17 17 19 19 21 21 21 19 19 18
3 3 3 4 3 4 5 4 4 4 7 10 10 11 11 12 13 13 13 14 15 15 15 15 15 16 16 16 16 17 16 16 15 16 15 17 18 19 20 21 20 19 18 18 17
3 4 4 3 4 4 4 4 5 6 10 9 7 7 10 11 13 13 13 13 13 13 14 14 15 15 16 15 16 17 17 16 15 15 16 17 16 20 20 19 18 18 18 17 17
4 5 5 4 4 4 4 4 5 7 7 9 8 8 8 10 12 12 13 13 11 12 13 14 14 15 16 17 16 16 17 17 16 16 17 16 17 19 19 17 17 17 17 17 17
4 4 5 4 4 4 3 4 6 6 7 8 10 8 9 9 11 12 11 11 11 10 13 14 15 15 15 17 17 15 15 17 16 15 16 17 17 18 17 16 16 17 16 16 16
3 2 4 4 4 4 2 5 6 7 8 8 8 9 8 9 10 10 10 9 9 11 11 13 14 15 16 16 16 17 17 16 15 15 15 17 17 18 17 18 17 18 17 16 16
3 2 4 4 4 2 2 4 5 7 8 8 8 8 9 8 9 9 9 10 10 10 11 11 13 15 16 16 15 15 16 16 16 16 16 16 18 17 18 18 18 17 16 15 15
1 1 4 4 3 2 3 5 6 6 7 8 8 8 8 8 8 10 9 10 10 10 10 10 11 13 15 16 16 16 16 16 16 15 16 17 17 18 17 17 16 16 15 15 15
1 2 4 4 2 3 5 5 6 6 7 7 8 8 9 8 8 9 9 10 9 10 10 10 11 13 14 14 15 14 14 15 15 15 16 16 17 16 16 16 16 16 16 15 14
0 0 1 3 3 3 4 5 5 6 7 8 7 8 7 8 9 8 9 10 9 10 10 11 10 11 13 12 12 13 14 14 15 15 16 16 17 16 15 15 15 15 16 15 14
2 1 2 1 4 4 4 5 5 6 7 8 7 7 7 7 8 8 9 9 10 10 9 9 9 10 11 11 11 12 13 14 14 15 15 15 15 16 14 14 13 14 14 13 12
-0 1 1 2 3 3 5 5 5 6 6 7 6 6 7 6 7 7 8 9 9 10 10 8 9 9 11 12 12 12 13 13 14 14 14 15 15 13 14 13 12 11 11 10 10
1 1 2 3 3 3 4 5 6 6 7 7 6 6 6 7 7 8 8 9 9 9 9 8 9 10 11 11 12 13 13 14 13 13 13 14 13 13 13 11 9 9 9 8 8

GFSSW_925_temp_108.txt.gz
Temp
7 7 7 7 7 7 7 7 7 7 7 7 7 7 7 7 8 12 16 18 17 17 17 17 18 19 21 24 24 25 25 27 28 28 29 28 27 28 29 29 29 30 30 28 25
7 7 7 7 7 7 7 7 7 7 7 7 7 7 7 8 10 14 17 15 15 15 16 19 21 21 22 23 24 24 25 27 29 29 28 28 28 29 28 29 29 29 28 27 25
6 6 6 7 7 7 7 7 7 7 7 7 7 7 7 8 15 21 14 15 16 14 17 19 21 22 22 23 24 24 25 27 28 28 28 28 28 28 28 29 29 29 29 29 27
6 6 6 6 6 6 6 7 7 7 7 8 8 7 7 9 18 18 15 15 14 15 16 19 21 21 22 23 24 22 25 26 27 26 26 26 28 27 28 28 30 29 28 28 28
6 6 6 6 6 6 6 7 7 7 7 8 6 6 8 12 14 17 15 14 15 16 18 20 20 21 22 23 24 23 24 25 25 25 25 26 25 26 27 28 28 28 27 27 28
6 6 5 5 5 6 6 7 7 7 7 8 6 6 9 9 13 14 13 13 16 16 19 20 21 22 22 23 23 25 24 24 24 24 25 24 25 25 26 26 26 27 27 29 29
5 5 5 5 5 5 6 7 7 8 8 8 6 7 9 10 12 13 13 14 14 15 18 19 20 21 22 21 23 23 22 23 24 24 24 24 24 25 27 27 26 27 28 29 29
5 5 5 5 5 5 6 6 7 8 9 8 6 8 8 10 11 12 13 13 13 13 15 16 16 18 21 22 22 21 22 22 25 25 24 24 25 27 27 27 27 27 28 28 28
5 5 5 5 5 6 6 6 7 8 7 8 8 8 10 11 11 12 12 14 15 14 15 16 18 19 20 19 21 22 22 23 24 25 25 24 25 28 28 27 27 27 27 28 28
5 4 4 4 5 5 5 6 7 7 9 8 8 6 9 13 13 13 15 14 15 16 15 16 18 18 19 20 20 21 22 22 22 24 23 24 24 27 26 26 26 26 27 27 28
4 4 4 4 4 5 5 9 10 11 8 9 11 8 11 11 11 13 15 14 16 16 17 17 17 17 20 20 21 22 22 21 23 23 23 24 25 26 27 26 26 26 27 27 27
4 4 4 4 5 5 6 8 5 5 4 10 9 10 9 10 11 12 14 15 16 16 19 17 17 20 20 20 19 17 17 20 21 21 21 23 24 25 26 25 26 26 27 28 28
4 4 4 5 5 6 6 7 6 5 7 10 12 12 12 11 11 12 14 16 17 18 18 17 19 19 19 18 17 17 17 17 19 21 21 22 22 24 25 26 26 26 26 26 26
4 4 4 5 5 6 8 6 6 5 6 12 11 11 10 11 11 14 14 16 17 18 18 18 19 19 17 17 17 18 20 19 18 17 19 22 22 24 24 25 25 26 26 25 25
3 3 4 4 5 7 7 5 5 5 9 13 8 9 9 11 14 16 15 16 16 18 17 17 18 17 18 18 18 18 20 18 18 19 19 21 20 23 24 24 25 25 25 24 23
4 3 4 5 5 6 5 5 6 8 9 11 10 7 8 13 14 14 14 16 17 18 18 19 19 19 19 18 18 18 17 18 18 19 18 20 21 23 24 25 25 24 23 23 22
4 4 4 5 7 5 5 7 9 10 12 10 10 7 8 11 14 15 14 15 16 15 16 18 18 18 19 17 17 18 18 17 17 17 19 21 21 23 23 24 24 23 23 23 22
5 5 5 5 4 4 6 8 9 10 9 11 11 8 8 9 12 15 16 15 15 17 18 17 16 18 18 19 18 17 18 19 16 18 20 20 19 21 24 23 22 23 23 22 22
5 5 6 5 4 5 8 10 9 8 10 10 12 9 9 10 8 12 12 12 13 14 16 17 17 18 19 19 20 18 17 20 18 19 18 21 21 21 21 21 21 22 22 22 22
5 6 6 4 4 6 8 7 9 10 10 10 10 10 8 8 9 10 11 10 11 13 14 16 16 18 18 18 19 19 20 17 19 17 18 21 21 21 20 21 21 21 22 21 21
6 8 6 4 4 9 7 8 8 10 10 9 10 10 10 10 10 9 9 9 10 12 14 15 17 16 17 17 17 17 17 18 19 19 19 19 21 22 22 22 21 21 21 20 19
6 7 5 5 8 7 8 8 7 9 10 10 10 11 10 10 11 11 10 10 11 9 11 13 14 16 17 17 19 19 18 19 17 18 18 19 20 21 20 20 20 20 20 20 19
7 7 6 5 7 7 9 8 8 9 9 9 10 10 11 10 10 11 12 12 12 12 10 11 14 16 16 16 17 18 19 19 19 19 19 19 20 20 20 20 19 19 19 19 18
5 6 8 8 7 7 7 8 8 9 9 10 10 11 10 11 12 11 11 12 12 12 9 12 13 13 15 16 17 16 17 18 18 18 19 20 20 20 19 19 18 18 16 14 14
5 5 6 6 7 7 7 8 8 8 9 10 10 10 9 8 11 11 11 12 13 10 10 10 12 13 15 15 15 16 17 18 18 18 18 19 19 19 18 18 15 14 13 13 12
5 5 6 7 7 7 7 8 8 8 9 9 9 9 10 9 9 10 11 11 11 11 11 9 12 11 13 15 14 15 16 17 18 18 18 18 18 17 16 14 12 12 12 10 10
4 4 7 6 7 7 8 8 8 8 9 9 9 8 9 10 11 11 11 11 12 11 9 9 11 12 13 14 14 14 16 17 17 17 17 17 16 15 14 11 9 10 9 8 7

GFSSW_925_temp_111.txt.gz
Temp
7 7 7 7 7 7 7 7 7 7 7 7 7 7 7 8 9 15 19 21 20 18 18 20 22 22 23 26 28 28 27 27 29 30 32 34 31 32 33 33 33 33 33 31 29
7 7 7 7 7 7 7 7 7 7 7 7 7 7 7 8 11 17 19 19 18 16 16 21 24 24 25 26 27 27 27 27 30 32 32 32 31 32 31 31 32 31 32 30 29
6 6 6 7 7 7 7 7 7 7 7 7 8 7 7 8 16 22 16 17 17 16 16 21 23 25 25 26 27 27 26 29 30 31 32 32 32 31 31 31 32 31 31 31 31
6 6 6 6 6 6 7 7 7 7 7 8 7 7 7 10 19 20 17 17 16 16 19 21 23 24 24 25 27 26 27 28 28 30 30 29 30 31 31 31 32 33 32 31 31
6 6 6 6 6 6 6 7 7 8 8 8 7 7 8 14 17 19 17 17 17 18 20 22 22 23 24 25 27 26 27 28 28 28 29 29 28 29 30 31 31 31 31 31 30
5 5 6 6 6 6 6 7 7 8 8 7 7 6 10 13 17 17 17 17 17 19 21 22 23 24 24 25 26 27 27 27 27 28 27 27 27 28 28 29 29 29 30 30 30
5 5 6 6 6 6 7 7 8 8 7 7 6 8 11 13 15 16 17 17 18 19 22 22 23 24 24 23 26 26 25 26 27 27 27 27 26 27 29 29 28 28 29 30 31
5 5 6 6 6 7 7 7 8 8 8 9 8 9 11 14 14 14 15 16 17 18 18 20 22 22 23 25 25 24 25 24 26 27 27 26 25 28 31 30 29 29 29 30 30
5 5 6 6 6 6 6 8 9 8 8 9 9 12 12 14 15 15 14 15 17 18 18 18 20 20 21 21 22 23 23 24 25 28 27 27 25 28 30 30 29 30 30 30 31
5 5 5 5 6 6 7 9 10 9 10 12 12 12 14 14 15 15 14 16 17 18 18 18 19 20 20 22 21 23 23 24 26 28 28 27 26 28 29 29 29 29 30 30 30
4 4 5 6 6 6 7 12 13 14 13 11 13 12 13 14 14 15 15 15 16 17 17 18 18 19 21 21 23 24 23 24 25 27 26 25 26 27 28 29 28 28 29 29 29
4 5 5 5 6 7 7 12 10 7 6 11 13 15 15 12 13 15 13 11 12 16 18 19 18 21 22 23 22 23 22 22 25 25 24 24 25 27 28 29 29 29 28 29 30
4 4 5 6 6 6 10 10 9 7 8 12 15 15 12 11 11 14 14 12 10 14 18 18 20 22 22 22 22 22 22 21 22 23 21 23 23 25 27 28 28 29 28 29 30
4 4 4 5 6 9 12 9 9 8 9 15 15 13 12 11 10 16 15 14 11 11 19 20 22 22 21 22 22 21 22 21 20 18 17 21 20 25 26 27 28 28 28 29 29
4 4 4 4 7 10 10 8 8 7 12 16 15 13 14 12 14 15 16 16 14 13 15 20 20 21 20 21 21 21 21 20 19 19 20 21 20 24 27 26 27 27 28 28 27
4 4 4 8 8 10 8 8 8 8 13 15 15 14 13 11 14 16 17 17 17 15 13 20 22 21 21 22 22 21 19 19 20 19 19 21 22 23 24 26 27 28 27 27 26
5 5 5 7 10 8 7 11 10 12 15 13 13 14 12 11 10 16 16 16 16 16 13 18 17 22 22 20 21 19 18 15 15 16 18 22 21 23 26 26 27 26 26 25 25
5 6 7 8 7 7 9 10 10 13 13 14 14 13 10 9 11 12 17 17 17 18 18 18 16 19 21 21 19 19 19 17 16 17 18 22 21 24 26 26 27 26 25 25 25
6 7 9 7 7 8 12 11 13 11 12 12 14 13 13 13 8 9 14 13 16 18 16 18 18 21 21 21 21 19 19 21 19 20 19 21 23 24 25 25 24 24 25 25 25
8 9 9 7 7 9 11 10 12 12 12 13 12 13 12 12 11 8 11 10 10 13 16 17 18 20 21 21 21 21 22 19 19 18 19 22 22 22 23 23 23 23 23 24 24
8 12 9 7 8 12 9 11 11 12 12 12 12 12 13 12 12 9 9 11 11 12 15 16 17 19 20 19 20 20 20 20 21 21 19 20 21 23 23 23 23 23 24 23 23
10 10 8 8 10 10 11 11 10 12 13 13 12 12 12 12 12 12 12 11 11 10 11 13 14 17 19 21 22 22 20 21 19 19 20 20 17 24 23 23 23 23 23 23 22
11 11 9 8 10 12 12 12 11 12 12 12 11 12 13 12 11 13 13 14 14 12 10 11 15 13 14 19 21 20 20 20 20 21 19 18 20 23 22 22 22 21 18 18 17
8 7 11 11 11 10 10 11 11 12 12 12 12 13 13 12 14 12 13 14 14 13 11 11 13 13 13 13 18 18 20 21 20 19 20 21 17 19 22 21 18 17 15 16 15
8 8 10 9 10 10 11 11 11 11 12 13 13 13 12 11 12 13 14 14 15 13 13 13 13 15 15 15 17 16 17 20 20 20 19 19 19 18 17 17 15 14 14 14 13
4 8 10 11 10 9 9 11 11 11 11 12 11 12 12 12 13 12 13 13 13 14 13 13 12 15 16 17 18 17 19 19 20 20 20 21 21 20 17 16 14 12 12 11 10
8 8 10 9 11 10 11 11 10 11 11 12 11 11 11 12 13 13 13 13 13 13 12 11 12 14 15 17 17 16 18 19 19 20 20 19 18 18 14 12 10 10 9 8 7

GFSSW_925_temp_114.txt.gz
Temp
7 7 7 7 7 7 7 7 7 8 8 8 8 7 8 9 9 13 17 20 21 19 19 20 22 23 23 25 27 28 26 26 27 28 30 33 33 33 33 33 34 35 33 32 31
7 7 7 7 7 7 7 7 8 8 8 8 8 8 8 9 10 16 18 19 19 19 18 20 22 24 24 25 26 26 26 26 29 30 31 32 33 34 32 32 32 33 33 31 30
6 6 6 7 7 7 7 8 8 8 8 8 8 8 8 8 15 20 18 18 17 18 17 19 21 24 24 25 25 25 25 27 29 30 31 32 32 34 32 31 32 32 32 32 31
6 6 6 6 6 6 7 7 7 7 7 7 7 7 7 9 19 19 18 18 18 18 18 20 21 22 23 24 26 25 27 27 28 30 30 30 32 32 32 31 33 33 32 32 31
6 6 6 6 6 6 6 7 7 7 8 7 6 7 8 14 16 18 18 18 18 19 20 22 22 23 22 24 25 26 26 28 29 29 29 30 29 30 30 31 32 32 32 32 30
6 6 6 6 6 6 7 8 8 9 9 8 7 6 9 11 16 18 18 18 19 20 20 21 22 24 23 24 24 26 27 28 29 29 29 28 29 29 29 30 30 30 31 31 31
6 6 6 6 7 7 8 9 9 9 9 9 7 7 11 12 14 15 16 16 17 19 20 20 21 22 24 23 25 25 25 27 28 28 28 28 27 27 29 30 29 29 29 30 30
5 5 6 7 7 8 8 9 10 10 9 10 8 8 11 14 15 16 16 16 16 17 18 20 21 23 22 24 24 24 24 23 26 27 28 28 26 28 29 29 29 29 29 29 29
5 5 6 7 7 8 8 9 11 11 10 10 9 11 13 16 17 16 17 17 16 17 17 19 20 20 22 21 21 23 23 23 24 27 27 27 25 27 29 29 29 29 29 29 29
5 5 6 7 7 8 8 10 13 10 11 11 13 13 16 16 15 16 16 16 17 17 16 17 18 18 19 21 19 21 22 23 24 26 27 27 26 27 28 29 28 29 30 30 30
5 6 6 6 7 8 8 13 14 14 13 12 13 13 14 15 15 16 15 16 16 16 14 14 16 16 17 20 22 22 23 24 25 26 26 26 27 28 29 28 28 29 29 30 30
5 5 6 6 7 9 9 13 11 9 8 12 13 14 14 16 15 16 15 15 15 13 15 11 13 18 18 20 20 22 22 23 26 27 24 23 23 27 28 28 28 29 29 29 29
5 5 5 7 8 8 11 12 11 10 9 13 17 17 16 15 15 16 16 15 14 13 12 9 14 18 18 19 20 21 21 23 24 21 18 22 21 23 27 28 29 29 29 29 28
4 5 6 7 7 10 13 11 10 10 8 17 17 17 16 17 16 17 16 16 11 10 9 10 14 17 18 18 21 21 23 23 23 21 15 20 19 22 24 26 27 27 28 28 28
5 5 6 5 7 12 11 10 10 9 12 17 17 18 18 16 15 16 15 13 12 10 11 11 13 18 19 19 21 22 24 23 22 19 17 18 18 21 23 23 24 27 28 28 27
5 6 6 9 7 10 10 9 10 9 13 16 17 16 16 16 14 14 15 16 16 12 12 12 15 17 21 22 23 23 22 21 20 19 16 18 19 20 23 23 24 27 28 27 26
6 6 5 8 11 9 9 11 10 12 17 15 14 15 16 14 14 14 14 16 15 14 13 15 17 18 21 21 22 21 20 16 15 16 16 20 19 21 25 26 26 27 27 26 25
6 6 7 9 9 8 10 11 11 15 14 15 15 16 14 14 13 12 13 17 18 17 16 15 12 15 20 21 21 19 19 16 15 16 17 20 19 22 25 26 27 26 25 25 24
7 7 8 9 8 9 10 11 13 12 14 13 15 14 14 15 11 10 8 12 14 14 13 14 16 16 18 22 21 19 18 20 18 18 18 20 21 25 26 25 25 25 24 23 24
6 11 12 9 8 9 11 11 13 14 14 14 13 14 13 14 13 10 10 10 12 13 14 14 13 17 16 21 21 20 20 17 18 17 17 17 21 20 23 23 23 22 24 24 24
6 11 10 9 9 10 10 13 13 14 14 13 13 13 13 13 13 12 12 12 13 12 14 15 14 16 20 16 18 19 19 19 20 20 18 18 16 20 23 22 18 23 23 20 20
11 11 10 9 9 11 12 12 11 14 15 14 14 13 13 14 12 14 14 14 15 12 12 14 13 13 18 22 22 21 20 20 18 18 20 19 18 20 20 23 23 19 20 18 18
12 13 11 10 10 13 14 13 14 13 14 13 13 14 14 14 12 12 14 15 15 14 12 12 12 12 15 18 21 20 21 21 21 20 18 18 19 18 18 15 19 17 17 17 16
9 8 12 13 12 11 12 13 13 14 13 14 14 13 13 13 14 10 14 15 15 15 13 13 13 11 12 12 14 18 21 21 20 18 19 18 18 19 16 16 16 15 15 14 14
8 9 11 10 11 11 12 12 12 13 14 14 13 13 12 11 13 13 14 14 15 14 15 14 12 12 14 15 10 13 15 19 20 20 19 16 16 16 14 12 14 14 14 12 12
4 9 12 12 11 11 10 12 12 13 12 12 12 12 12 12 12 11 12 12 12 14 14 14 12 13 15 18 16 13 14 14 14 16 18 18 18 13 13 14 12 11 11 10 10
8 10 11 10 12 12 12 12 12 12 12 13 12 11 12 13 12 12 13 13 13 12 13 13 11 12 15 17 17 17 18 19 20 20 19 17 15 14 13 11 9 9 9 8 7

GFSSW_925_temp_117.txt.gz
Temp
7 7 7 7 7 7 7 8 8 9 9 9 9 9 9 11 12 11 13 16 18 19 20 19 20 21 21 19 20 21 20 21 21 22 24 27 28 30 32 31 31 32 29 28 28
7 7 7 7 7 7 8 8 8 9 9 9 9 9 10 11 9 11 16 16 18 19 18 19 19 20 18 20 19 19 20 21 23 24 25 27 28 28 29 29 30 30 27 29 29
6 6 6 7 7 7 8 8 9 9 9 9 9 7 8 9 10 17 18 18 18 17 17 17 18 19 17 19 20 21 20 22 24 25 25 25 26 28 28 26 28 28 26 26 27
6 6 7 7 7 7 8 8 8 8 8 7 6 6 8 8 17 17 17 18 18 18 18 18 18 17 18 17 20 20 22 23 23 24 25 25 25 26 26 27 28 28 26 26 26
6 7 7 7 7 7 7 7 8 7 7 7 6 6 8 10 12 16 16 16 16 16 17 18 18 18 17 19 20 20 22 23 24 24 25 26 26 26 26 27 27 28 28 26 25
6 6 7 7 6 7 7 8 8 9 9 8 6 6 8 8 14 15 16 16 16 16 16 17 18 18 18 19 20 21 22 23 24 24 25 25 26 24 26 26 27 27 26 27 25
6 6 6 6 6 7 8 9 9 10 10 9 6 7 8 9 15 15 15 15 16 16 16 16 17 17 18 18 20 21 20 22 23 24 24 25 24 25 26 26 25 25 25 25 25
5 5 6 6 6 8 9 10 11 11 11 10 8 8 7 13 14 14 16 16 16 17 17 16 17 16 15 18 18 18 19 19 22 23 24 24 23 26 25 25 25 24 24 25 25
5 5 5 6 7 9 10 11 12 12 11 11 8 8 10 15 15 15 16 16 16 16 16 16 16 15 15 15 15 17 16 18 20 22 23 23 23 25 24 26 25 25 25 25 25
5 5 6 6 8 9 10 12 13 12 13 10 10 10 12 14 14 15 15 16 15 14 15 14 13 12 13 13 13 16 16 17 19 21 23 23 23 23 24 24 25 25 26 25 26
5 5 6 7 8 9 10 11 9 10 10 10 11 11 12 14 14 15 16 16 14 13 12 13 12 11 12 13 15 16 16 18 19 22 22 22 23 24 23 25 24 24 24 24 26
5 5 6 7 8 10 9 10 10 10 6 10 11 12 13 13 13 15 16 14 13 12 13 13 11 13 14 13 14 15 15 17 20 22 22 23 21 24 22 23 25 24 22 23 23
5 5 6 8 9 10 11 11 10 10 6 10 14 15 15 16 14 15 15 14 13 12 12 12 11 14 13 12 12 15 15 16 18 18 18 18 19 19 22 23 24 26 25 24 24
5 5 6 8 8 9 10 10 10 9 4 14 14 16 16 16 15 16 15 14 12 10 11 9 11 9 11 12 12 14 16 17 18 18 16 18 16 19 21 22 22 23 24 24 24
5 6 6 6 7 9 10 10 10 9 10 16 16 18 16 15 15 15 16 13 12 11 8 10 12 9 9 11 14 15 16 17 19 17 15 16 15 16 19 20 21 21 22 23 24
5 6 7 7 7 9 9 9 9 8 11 15 15 14 14 15 15 15 14 15 14 12 12 11 13 12 11 14 16 17 16 17 17 15 13 15 15 15 18 20 21 22 23 24 23
5 6 6 7 8 9 9 8 8 8 15 13 13 13 14 13 13 13 12 12 12 11 12 15 15 15 15 15 16 17 16 14 13 13 13 17 16 17 19 21 22 23 23 23 22
6 6 7 8 8 9 9 7 8 12 12 13 13 13 12 13 12 12 11 11 13 12 11 12 12 13 15 14 16 17 16 12 13 13 14 18 16 17 20 21 22 23 22 21 20
7 8 7 9 8 8 6 5 10 12 13 12 13 12 12 13 10 10 9 10 12 13 10 11 13 14 15 15 15 17 16 17 15 17 15 16 19 20 21 22 23 22 21 19 19
6 7 9 9 9 8 5 9 12 13 13 13 12 12 10 11 11 7 11 11 12 13 13 13 12 14 13 14 18 18 18 14 14 14 15 16 18 18 20 20 18 16 17 17 17
5 6 9 9 9 6 4 10 13 13 14 13 12 12 12 11 11 10 11 12 13 12 13 12 12 13 14 15 16 17 17 17 14 16 15 14 14 19 18 20 16 15 14 14 14
6 6 10 9 5 6 5 12 12 13 14 13 13 13 12 11 11 11 11 12 13 12 11 12 10 11 14 15 18 17 16 17 15 15 16 15 13 16 16 16 16 15 14 13 13
6 7 10 10 6 7 12 13 13 13 13 13 12 13 11 11 10 12 12 13 13 13 11 11 11 10 13 14 15 14 17 19 18 17 17 15 15 15 14 13 14 13 12 12 12
5 5 7 7 8 10 10 12 12 13 13 13 13 11 11 11 11 11 12 13 12 12 13 12 12 10 9 10 10 11 14 17 18 16 16 16 15 12 13 12 11 12 11 11 10
4 5 9 5 7 10 10 11 11 12 13 13 12 12 10 9 10 10 10 11 12 13 12 11 10 12 12 13 9 10 14 15 15 17 17 15 14 12 10 10 10 10 10 9 8
2 4 7 8 10 10 9 11 11 12 11 11 11 11 10 9 11 9 10 9 10 12 11 11 10 11 12 15 14 14 14 15 15 15 16 15 13 12 11 10 9 9 8 7 6
8 9 6 8 9 8 10 11 11 12 12 12 10 10 9 10 10 10 10 10 10 10 10 10 10 10 12 14 14 12 11 12 11 12 15 13 11 10 9 8 7 7 6 6 5